[[{"header":{"parameterUnit":"m.s-1","parameterCategory":1,"la1":30.6,"la2":28.766,"lo1":-90.7593,"lo2":-88.6598,"dy":0.0162,"dx":0.0183,"nx":116,"ny":114,"refTime":"2023-04-11T06:00:00:Z","depth":0,"parameterNumber":2,"parameterNumberName":"U-component_of_WINDS"},"data":[0.0,0.0,0.0,0.0,0.0,0.0,0.0,0.0,0.0,0.0,0.0,0.0,0.0,0.0,0.0,0.0,0.0,0.0,0.0,0.0,0.0,0.0,0.0,0.0,0.0,0.0,0.0,0.0,0.0,0.0,0.0,0.0,0.0,0.0,0.0,0.0,0.0,0.0,0.0,0.0,0.0,0.0,0.0,0.0,0.0,0.0,0.0,0.0,0.0,0.0,0.0,0.0,0.0,0.0,0.0,0.0,0.0,0.0,0.0,0.0,0.0,0.0,0.0,0.0,0.0,0.0,0.0,0.0,0.0,0.0,0.0,0.0,0.0,0.0,0.0,0.0,0.0,0.0,0.0,0.0,0.0,0.0,0.0,0.0,0.0,0.0,0.0,0.0,0.0,0.0,0.0,0.0,0.0,0.0,0.0,0.0,0.0,0.0,0.0,0.0,0.0,0.0,0.0,0.0,0.0,0.0,0.0,0.0,0.0,0.0,0.0,0.0,0.0,0.0,0.0,0.0,0.0,0.0,0.0,0.0,0.0,0.0,0.0,0.0,0.0,0.0,0.0,0.0,0.0,0.0,0.0,0.0,0.0,0.0,0.0,0.0,0.0,0.0,0.0,0.0,0.0,0.0,0.0,0.0,0.0,0.0,0.0,0.0,0.0,0.0,0.0,0.0,0.0,0.0,0.0,0.0,0.0,0.0,0.0,0.0,0.0,0.0,0.0,0.0,0.0,0.0,0.0,0.0,0.0,0.0,0.0,0.0,0.0,0.0,0.0,0.0,0.0,0.0,0.0,0.0,0.0,0.0,0.0,0.0,0.0,0.0,0.0,0.0,0.0,0.0,0.0,0.0,0.0,0.0,0.0,0.0,0.0,0.0,0.0,0.0,0.0,0.0,0.0,0.0,0.0,0.0,0.0,0.0,0.0,0.0,0.0,0.0,0.0,0.0,0.0,0.0,0.0,0.0,0.0,0.0,0.0,0.0,0.0,0.0,0.0,0.0,0.0,0.0,0.0,0.0,0.0,0.0,0.0,0.0,0.0,0.0,0.0,0.0,0.0,0.0,0.0,0.0,0.0,0.0,0.0,0.0,0.0,0.0,0.0,0.0,0.0,0.0,0.0,0.0,0.0,0.0,0.0,0.0,0.0,0.0,0.0,0.0,0.0,0.0,0.0,0.0,0.0,0.0,0.0,0.0,0.0,0.0,0.0,0.0,0.0,0.0,0.0,0.0,0.0,0.0,0.0,0.0,0.0,0.0,0.0,0.0,0.0,0.0,0.0,0.0,0.0,0.0,0.0,0.0,0.0,0.0,0.0,0.0,0.0,0.0,0.0,0.0,0.0,0.0,0.0,0.0,0.0,0.0,0.0,0.0,0.0,0.0,0.0,0.0,0.0,0.0,0.0,0.0,0.0,0.0,0.0,0.0,0.0,0.0,0.0,0.0,0.0,0.0,0.0,0.0,0.0,0.0,0.0,0.0,0.0,0.0,0.0,0.0,0.0,0.0,0.0,0.0,0.0,0.0,0.0,0.0,0.0,0.0,0.0,0.0,0.0,0.0,0.0,0.0,0.0,0.0,0.0,0.0,0.0,0.0,0.0,0.0,0.0,0.0,0.0,0.0,0.0,0.0,0.0,0.0,0.0,0.0,0.0,0.0,0.0,0.0,0.0,0.0,0.0,0.0,0.0,0.0,0.0,0.0,0.0,0.0,0.0,0.0,0.0,0.0,0.0,0.0,0.0,0.0,0.0,0.0,0.0,0.0,0.0,0.0,0.0,0.0,0.0,0.0,0.0,0.0,0.0,0.0,0.0,0.0,0.0,0.0,0.0,0.0,0.0,0.0,0.0,0.0,0.0,0.0,0.0,0.0,0.0,0.0,0.0,0.0,0.0,0.0,0.0,0.0,0.0,0.0,0.0,0.0,0.0,0.0,0.0,0.0,0.0,0.0,0.0,0.0,0.0,0.0,0.0,0.0,0.0,0.0,0.0,0.0,0.0,0.0,0.0,0.0,0.0,0.0,0.0,0.0,0.0,0.0,0.0,0.0,0.0,0.0,0.0,0.0,0.0,0.0,0.0,0.0,0.0,0.0,0.0,0.0,0.0,0.0,0.0,0.0,0.0,0.0,0.0,0.0,0.0,0.0,0.0,0.0,0.0,0.0,0.0,0.0,0.0,0.0,0.0,0.0,0.0,0.0,0.0,0.0,0.0,0.0,0.0,0.0,0.0,0.0,0.0,0.0,0.0,0.0,0.0,0.0,0.0,0.0,0.0,0.0,0.0,0.0,0.0,0.0,0.0,0.0,0.0,0.0,0.0,0.0,0.0,0.0,0.0,0.0,0.0,0.0,0.0,0.0,0.0,0.0,0.0,0.0,0.0,0.0,0.0,0.0,0.0,0.0,0.0,0.0,0.0,0.0,0.0,0.0,0.0,0.0,0.0,0.0,0.0,0.0,0.0,0.0,0.0,0.0,0.0,0.0,0.0,0.0,0.0,0.0,0.0,0.0,0.0,0.0,0.0,0.0,0.0,0.0,0.0,0.0,0.0,0.0,0.0,0.0,0.0,0.0,0.0,0.0,0.0,0.0,0.0,0.0,0.0,0.0,0.0,0.0,0.0,0.0,0.0,0.0,0.0,0.0,0.0,0.0,0.0,0.0,0.0,0.0,0.0,0.0,0.0,0.0,0.0,0.0,0.0,0.0,0.0,0.0,0.0,0.0,0.0,0.0,0.0,0.0,0.0,0.0,0.0,0.0,0.0,0.0,0.0,0.0,0.0,0.0,0.0,0.0,0.0,0.0,0.0,0.0,0.0,0.0,0.0,0.0,0.0,0.0,0.0,0.0,0.0,0.0,0.0,0.0,0.0,0.0,0.0,0.0,0.0,0.0,0.0,0.0,0.0,0.0,0.0,0.0,0.0,0.0,0.0,0.0,0.0,0.0,0.0,0.0,0.0,0.0,0.0,0.0,0.0,0.0,0.0,0.0,0.0,0.0,0.0,0.0,0.0,0.0,0.0,0.0,0.0,0.0,0.0,0.0,0.0,0.0,0.0,0.0,0.0,0.0,0.0,0.0,0.0,0.0,0.0,0.0,0.0,0.0,0.0,0.0,0.0,0.0,0.0,0.0,0.0,0.0,0.0,0.0,0.0,0.0,0.0,0.0,0.0,0.0,0.0,0.0,0.0,0.0,0.0,0.0,0.0,0.0,0.0,0.0,0.0,0.0,0.0,0.0,0.0,0.0,0.0,0.0,0.0,0.0,0.0,0.0,0.0,0.0,0.0,0.0,0.0,0.0,0.0,0.0,0.0,0.0,0.0,0.0,0.0,0.0,0.0,0.0,0.0,0.0,0.0,0.0,0.0,0.0,0.0,0.0,0.0,0.0,0.0,0.0,0.0,0.0,0.0,0.0,0.0,0.0,0.0,0.0,0.0,0.0,0.0,0.0,0.0,0.0,0.0,0.0,0.0,0.0,0.0,0.0,0.0,0.0,0.0,0.0,0.0,0.0,0.0,0.0,0.0,0.0,0.0,0.0,0.0,0.0,0.0,0.0,0.0,0.0,0.0,0.0,0.0,0.0,0.0,0.0,0.0,0.0,0.0,0.0,0.0,0.0,0.0,0.0,0.0,0.0,0.0,0.0,0.0,0.0,0.0,0.0,0.0,0.0,0.0,0.0,0.0,0.0,0.0,0.0,0.0,0.0,0.0,0.0,0.0,0.0,0.0,0.0,0.0,0.0,0.0,0.0,0.0,0.0,0.0,0.0,0.0,0.0,0.0,0.0,0.0,0.0,0.0,0.0,0.0,0.0,0.0,0.0,0.0,0.0,0.0,0.0,0.0,0.0,0.0,0.0,0.0,0.0,0.0,0.0,0.0,0.0,0.0,0.0,0.0,0.0,0.0,0.0,0.0,0.0,0.0,0.0,0.0,0.0,0.0,0.0,0.0,0.0,0.0,0.0,0.0,0.0,0.0,0.0,0.0,0.0,0.0,0.0,0.0,0.0,0.0,0.0,0.0,0.0,0.0,0.0,0.0,0.0,0.0,0.0,0.0,0.0,0.0,0.0,0.0,0.0,0.0,0.0,0.0,0.0,0.0,0.0,0.0,0.0,0.0,0.0,0.0,0.0,0.0,0.0,0.0,0.0,0.0,0.0,0.0,0.0,0.0,0.0,0.0,0.0,0.0,0.0,0.0,0.0,0.0,0.0,0.0,0.0,0.0,0.0,0.0,0.0,0.0,0.0,0.0,0.0,0.0,0.0,0.0,0.0,0.0,0.0,0.0,0.0,0.0,0.0,0.0,0.0,0.0,0.0,0.0,0.0,0.0,0.0,0.0,0.0,0.0,0.0,0.0,0.0,0.0,0.0,0.0,0.0,0.0,0.0,0.0,0.0,0.0,0.0,0.0,0.0,0.0,0.0,0.0,0.0,0.0,0.0,0.0,0.0,0.0,0.0,0.0,0.0,0.0,0.0,0.0,0.0,0.0,0.0,0.0,0.0,0.0,0.0,0.0,0.0,0.0,0.0,0.0,0.0,0.0,0.0,0.0,0.0,0.0,0.0,0.0,0.0,0.0,0.0,0.0,0.0,0.0,0.0,0.0,0.0,0.0,0.0,0.0,0.0,0.0,0.0,0.0,0.0,0.0,0.0,0.0,0.0,0.0,0.0,0.0,0.0,0.0,0.0,0.0,0.0,0.0,0.0,0.0,0.0,0.0,0.0,0.0,0.0,0.0,0.0,0.0,0.0,0.0,0.0,0.0,0.0,0.0,0.0,0.0,0.0,0.0,0.0,0.0,0.0,0.0,0.0,0.0,0.0,0.0,0.0,0.0,0.0,0.0,0.0,0.0,0.0,0.0,0.0,0.0,0.0,0.0,0.0,0.0,0.0,0.0,0.0,0.0,0.0,0.0,0.0,0.0,0.0,0.0,0.0,0.0,0.0,0.0,0.0,0.0,0.0,0.0,0.0,0.0,0.0,0.0,0.0,0.0,0.0,0.0,0.0,0.0,0.0,0.0,0.0,0.0,0.0,0.0,0.0,0.0,0.0,0.0,0.0,0.0,0.0,0.0,0.0,0.0,0.0,0.0,0.0,0.0,0.0,0.0,0.0,0.0,0.0,0.0,0.0,0.0,0.0,0.0,0.0,0.0,0.0,0.0,0.0,0.0,0.0,0.0,0.0,0.0,0.0,0.0,0.0,0.0,0.0,0.0,0.0,0.0,0.0,0.0,0.0,0.0,0.0,0.0,0.0,0.0,0.0,0.0,0.0,0.0,0.0,0.0,0.0,0.0,0.0,0.0,0.0,0.0,0.0,0.0,0.0,0.0,0.0,0.0,0.0,0.0,0.0,0.0,0.0,0.0,0.0,0.0,0.0,0.0,0.0,0.0,0.0,0.0,0.0,0.0,0.0,0.0,0.0,0.0,0.0,0.0,0.0,0.0,0.0,0.0,0.0,0.0,0.0,0.0,0.0,0.0,0.0,0.0,0.0,0.0,0.0,0.0,0.0,0.0,0.0,0.0,0.0,0.0,0.0,0.0,0.0,0.0,0.0,0.0,0.0,0.0,0.0,0.0,0.0,0.0,0.0,0.0,0.0,0.0,0.0,0.0,0.0,0.0,0.0,0.0,0.0,0.0,0.0,0.0,0.0,0.0,0.0,0.0,0.0,0.0,0.0,0.0,0.0,0.0,0.0,0.0,0.0,0.0,0.0,0.0,0.0,0.0,0.0,0.0,0.0,0.0,0.0,0.0,0.0,0.0,0.0,0.0,0.0,0.0,0.0,0.0,0.0,0.0,0.0,0.0,0.0,0.0,0.0,0.0,0.0,0.0,0.0,0.0,0.0,0.0,0.0,0.0,0.0,0.0,0.0,0.0,0.0,0.0,0.0,0.0,0.0,0.0,0.0,0.0,0.0,0.0,0.0,0.0,0.0,0.0,0.0,0.0,0.0,0.0,0.0,0.0,0.0,0.0,0.0,0.0,0.0,0.0,0.0,0.0,0.0,0.0,0.0,0.0,0.0,0.0,0.0,0.0,0.0,0.0,0.0,0.0,0.0,0.0,0.0,0.0,0.0,0.0,0.0,0.0,0.0,0.0,0.0,0.0,0.0,4.7952,4.7567,0.0,0.0,0.0,0.0,0.0,0.0,0.0,0.0,0.0,0.0,0.0,0.0,0.0,0.0,0.0,0.0,0.0,0.0,0.0,0.0,0.0,0.0,0.0,0.0,0.0,0.0,0.0,0.0,0.0,0.0,0.0,0.0,0.0,0.0,5.0117,5.0491,5.061,5.0471,5.0933,5.1106,5.1026,5.0121,4.9679,4.9643,0.0,0.0,0.0,0.0,0.0,0.0,0.0,0.0,0.0,0.0,0.0,0.0,0.0,0.0,0.0,0.0,0.0,0.0,0.0,0.0,0.0,0.0,0.0,0.0,0.0,0.0,0.0,0.0,0.0,0.0,0.0,0.0,0.0,0.0,0.0,0.0,0.0,0.0,0.0,0.0,0.0,0.0,0.0,0.0,0.0,0.0,0.0,0.0,0.0,0.0,0.0,0.0,0.0,0.0,0.0,0.0,0.0,0.0,0.0,0.0,0.0,0.0,0.0,0.0,0.0,0.0,0.0,0.0,0.0,0.0,4.8721,4.8105,0.0,0.0,0.0,0.0,0.0,0.0,0.0,0.0,0.0,0.0,0.0,0.0,0.0,0.0,0.0,0.0,0.0,0.0,0.0,0.0,0.0,4.793,4.8808,4.9687,5.0527,5.1328,5.1406,5.1406,0.0,0.0,0.0,0.0,0.0,0.0,5.1406,5.1375,5.1315,5.1199,5.1199,5.1219,5.123,5.123,5.1199,5.1161,5.118,0.0,0.0,0.0,0.0,0.0,0.0,0.0,0.0,0.0,0.0,0.0,0.0,0.0,0.0,0.0,0.0,0.0,0.0,0.0,0.0,0.0,0.0,0.0,0.0,0.0,0.0,0.0,0.0,0.0,0.0,0.0,0.0,0.0,0.0,0.0,0.0,0.0,0.0,0.0,0.0,0.0,0.0,0.0,0.0,0.0,0.0,0.0,0.0,0.0,0.0,0.0,0.0,0.0,0.0,0.0,0.0,0.0,0.0,0.0,0.0,0.0,0.0,0.0,4.9647,4.9969,4.9886,5.0715,5.1101,5.1024,4.933,4.8584,4.8586,4.8567,0.0,0.0,0.0,0.0,0.0,0.0,0.0,0.0,0.0,0.0,0.0,0.0,0.0,0.0,0.0,0.0,0.0,0.0,0.0,4.793,4.8808,4.9687,5.0527,5.1328,5.1406,5.1406,5.1406,0.0,0.0,0.0,0.0,5.1406,5.1406,5.1283,5.1218,5.1199,5.1199,5.1263,5.1367,5.1367,5.1365,5.1355,5.1196,5.1137,5.1179,0.0,0.0,0.0,0.0,0.0,0.0,0.0,0.0,0.0,0.0,0.0,0.0,0.0,0.0,0.0,0.0,0.0,0.0,0.0,0.0,0.0,0.0,0.0,0.0,0.0,0.0,0.0,0.0,0.0,0.0,0.0,0.0,0.0,0.0,0.0,0.0,0.0,0.0,0.0,0.0,0.0,4.5586,4.5586,0.0,0.0,0.0,0.0,0.0,0.0,0.0,0.0,0.0,0.0,0.0,0.0,0.0,4.874,4.9615,4.9741,5.0109,5.0724,5.0916,5.0974,5.0906,5.1042,5.11,5.107,5.0701,0.0,5.0529,5.0394,0.0,0.0,0.0,0.0,0.0,0.0,0.0,0.0,0.0,0.0,0.0,0.0,0.0,0.0,0.0,0.0,0.0,0.0,0.0,0.0,0.0,4.8945,4.9805,5.0644,5.1133,5.1406,5.1406,5.1406,0.0,0.0,5.1406,5.1406,5.1406,5.1348,5.1308,5.1308,5.1308,5.1348,5.1406,5.1406,5.1406,5.1406,5.1308,5.1289,5.1308,5.1289,0.0,0.0,0.0,0.0,0.0,0.0,0.0,0.0,0.0,0.0,0.0,0.0,0.0,0.0,0.0,0.0,0.0,0.0,0.0,0.0,0.0,0.0,0.0,0.0,0.0,0.0,0.0,0.0,0.0,0.0,0.0,0.0,0.0,0.0,0.0,0.0,0.0,0.0,0.0,4.5586,4.5586,4.5586,4.5586,4.5586,0.0,0.0,0.0,0.0,0.0,0.0,0.0,0.0,0.0,4.9309,4.9354,4.9789,5.0692,5.0758,5.0908,5.1152,5.1264,5.1267,5.1165,5.123,5.1265,5.1259,5.112,5.1057,5.101,5.0779,5.0702,5.0644,0.0,0.0,0.0,0.0,4.9548,4.9548,0.0,0.0,0.0,0.0,0.0,0.0,0.0,0.0,0.0,0.0,0.0,0.0,4.7812,4.8516,4.9336,5.041,5.1055,5.1406,5.1406,5.1406,5.1406,5.1406,5.1406,5.1406,5.1406,5.1406,5.1406,5.1406,5.1406,5.1406,5.1406,5.1406,5.1406,5.1406,5.1406,5.1406,5.1406,5.1406,5.1406,0.0,0.0,0.0,0.0,0.0,0.0,0.0,0.0,0.0,0.0,0.0,0.0,0.0,0.0,0.0,0.0,0.0,0.0,0.0,0.0,0.0,0.0,0.0,0.0,0.0,0.0,0.0,0.0,0.0,0.0,0.0,0.0,0.0,0.0,0.0,0.0,0.0,0.0,4.5586,4.5682,4.5913,4.5932,4.6009,0.0,0.0,0.0,0.0,0.0,0.0,4.8868,4.8877,4.9345,5.0332,5.0352,5.0702,5.1387,5.1406,5.1348,5.125,5.1348,5.1352,5.1247,5.1347,5.1391,5.1394,5.1258,5.1153,5.1087,5.0856,5.0721,5.0702,5.0702,5.0702,5.0702,5.0702,5.0702,5.0702,0.0,0.0,0.0,0.0,0.0,0.0,0.0,0.0,0.0,0.0,0.0,4.6953,4.8652,4.8867,4.9551,5.1191,5.1387,5.1406,5.1406,5.1406,5.1406,5.1406,5.1406,5.1406,5.1406,5.1406,5.1406,5.1406,5.1406,5.1406,5.1406,5.1406,5.1406,5.1406,5.1406,5.1406,5.1406,5.1406,5.1406,5.1406,0.0,0.0,0.0,0.0,0.0,0.0,0.0,0.0,0.0,0.0,0.0,0.0,0.0,0.0,0.0,0.0,0.0,0.0,0.0,0.0,0.0,0.0,0.0,0.0,0.0,0.0,0.0,0.0,0.0,0.0,0.0,0.0,0.0,0.0,0.0,0.0,0.0,0.0,0.0,4.674,4.6836,0.0,0.0,0.0,0.0,4.8238,4.8412,4.8907,4.9867,4.9905,5.0363,5.1305,5.1326,5.1347,5.1406,5.1406,5.1406,5.1387,5.1406,5.1406,5.1385,5.1406,5.1406,5.1386,5.1268,5.1164,5.1087,5.0952,5.0818,5.0702,5.0702,5.0702,5.0702,5.0702,5.0702,5.0702,0.0,0.0,0.0,0.0,0.0,0.0,0.0,0.0,4.6308,4.6308,4.6797,4.7363,4.8008,4.9062,4.998,5.0586,5.1094,5.1406,5.1406,5.1406,5.1406,5.1406,5.1406,5.1406,5.1406,5.1406,5.1406,5.1406,5.1406,5.1406,5.1406,5.1406,5.1406,5.1406,5.1406,5.1406,5.1406,5.1406,5.1406,5.1406,5.1406,5.1406,0.0,0.0,0.0,0.0,0.0,0.0,0.0,0.0,0.0,0.0,0.0,0.0,0.0,0.0,0.0,0.0,0.0,0.0,0.0,0.0,0.0,0.0,0.0,0.0,0.0,0.0,0.0,0.0,0.0,0.0,0.0,0.0,0.0,0.0,0.0,0.0,0.0,4.7644,4.7758,0.0,4.8201,4.8854,4.9296,4.939,4.9934,5.0442,5.0888,5.0894,5.1054,5.1386,5.1406,5.1406,5.1406,5.1406,5.1406,5.1406,5.1406,5.1406,5.1406,5.1406,5.1406,5.1406,5.1348,5.1235,5.1094,5.1045,5.0914,5.0702,5.0702,5.0702,5.0702,5.0702,5.0702,5.0702,0.0,0.0,0.0,0.0,0.0,0.0,0.0,0.0,4.6406,4.6699,4.7246,4.7812,4.8418,4.9512,5.0312,5.0586,5.1094,5.1406,5.1406,5.1406,5.1406,5.1406,5.1406,5.1406,5.1406,5.1406,5.1406,5.1406,5.1406,5.1406,5.1406,5.1406,5.1406,5.1406,5.1406,5.1406,5.1406,5.1406,5.1406,5.1406,5.1406,5.1406,5.1406,0.0,0.0,0.0,0.0,0.0,0.0,0.0,0.0,0.0,0.0,0.0,0.0,0.0,0.0,0.0,0.0,0.0,0.0,0.0,0.0,0.0,0.0,0.0,0.0,0.0,0.0,0.0,0.0,0.0,0.0,0.0,0.0,0.0,0.0,0.0,4.8297,4.8567,4.872,4.8926,4.9212,4.9869,5.0317,5.0392,5.0932,5.1317,5.1406,5.1406,5.1406,5.1406,5.1699,5.1836,5.1836,5.2129,5.2285,5.2285,5.2285,5.2285,5.2285,5.2285,5.2285,5.2285,5.2285,5.2148,5.1931,5.1939,5.1799,5.1491,5.0933,5.0702,5.0702,5.0702,5.0702,5.0702,0.0,0.0,0.0,0.0,0.0,0.0,0.0,4.6308,4.6601,4.748,4.7617,4.8281,5.0019,5.0215,5.0547,5.1328,5.1406,5.1406,5.1406,5.1406,5.1406,5.1406,5.1406,5.1406,5.1406,5.1406,5.1406,5.1406,5.1406,5.1406,5.1406,5.1406,5.1406,5.1406,5.1406,5.1406,5.1406,5.1406,5.1406,5.1406,5.1406,5.1406,5.1406,0.0,0.0,0.0,0.0,0.0,0.0,0.0,0.0,0.0,0.0,0.0,0.0,0.0,0.0,0.0,0.0,0.0,0.0,0.0,0.0,0.0,0.0,0.0,0.0,0.0,0.0,0.0,0.0,0.0,0.0,0.0,0.0,0.0,4.8279,4.8278,4.87,4.9547,4.9759,5.0185,5.1014,5.1173,5.1221,5.1221,5.1323,5.1406,5.1445,5.1445,5.1445,5.1484,5.2305,5.2734,5.2734,5.3574,5.4004,5.4004,5.4004,5.4004,5.4004,5.4004,5.4004,5.4004,5.4004,5.3848,5.3592,5.3596,5.3437,5.3051,5.1395,5.0779,5.076,5.0741,5.0721,5.0702,0.0,0.0,0.0,0.0,0.0,0.0,4.6308,4.6308,4.6601,4.748,4.8144,4.8965,5.0078,5.0723,5.1152,5.1387,5.1406,5.1406,5.1406,5.1406,5.1406,5.1406,5.1406,5.1406,5.1406,5.1406,5.1406,5.1406,5.1406,5.1406,5.1406,5.1406,5.1406,5.1406,5.1406,5.1406,5.1406,5.1406,5.1406,5.1406,5.1406,5.1406,5.1406,0.0,0.0,0.0,0.0,0.0,0.0,0.0,0.0,0.0,0.0,0.0,0.0,0.0,0.0,0.0,0.0,0.0,0.0,0.0,0.0,0.0,0.0,0.0,0.0,0.0,0.0,0.0,0.0,0.0,0.0,0.0,5.0317,5.0183,4.9317,4.9759,5.031,5.0655,5.0761,5.0913,5.1153,5.1288,5.1347,5.1347,5.1379,5.168,5.2305,5.2344,5.2637,5.3262,5.3516,5.3633,5.3633,5.3887,5.4004,5.4004,5.4004,5.4004,5.4004,5.4004,5.4004,5.4004,5.4004,5.3848,5.3592,5.3596,5.3451,5.3144,5.2685,5.2512,5.2435,5.1799,5.1203,5.0702,0.0,0.0,0.0,0.0,0.0,0.0,4.6308,4.6308,4.6738,4.7988,4.8594,4.9355,5.0566,5.1113,5.1406,5.1406,5.1406,5.1406,5.1406,5.1406,5.1406,5.1406,5.1406,5.1406,5.1406,5.1406,5.1406,5.1406,5.1406,5.1406,5.1406,5.1406,5.1406,5.1406,5.1406,5.1406,5.1406,5.1406,5.1406,5.1406,5.1406,5.1406,5.1406,5.1406,5.1406,5.1406,5.1406,5.1406,5.1406,5.1406,0.0,0.0,0.0,0.0,0.0,0.0,0.0,0.0,0.0,0.0,0.0,0.0,0.0,0.0,0.0,0.0,0.0,0.0,0.0,0.0,0.0,0.0,0.0,0.0,5.0982,5.0819,5.0336,5.0702,5.1046,5.1131,5.1236,5.1284,5.1284,5.1347,5.1543,5.1914,5.1933,5.2324,5.3203,5.3242,5.3476,5.3984,5.4355,5.4531,5.4531,5.4902,5.5098,5.5098,5.5098,5.5098,5.5098,5.5098,5.5098,5.5098,5.5039,5.49,5.4685,5.459,5.443,0.0,0.0,0.0,0.0,0.0,5.2165,5.1761,0.0,0.0,0.0,0.0,0.0,0.0,4.6308,4.6387,4.7031,4.8672,4.8984,4.9648,5.123,5.1406,5.1406,5.1406,5.1406,5.1406,5.1406,5.1406,5.1406,5.1406,5.1406,5.1406,5.1406,5.1406,5.1406,5.1406,5.1406,5.1406,5.1406,5.1406,5.1406,5.1406,5.1406,5.1406,5.1406,5.1406,5.1406,5.1406,5.1406,5.1406,5.1406,5.1406,5.1406,5.1406,5.1406,5.1406,5.1406,5.1406,0.0,0.0,0.0,0.0,0.0,0.0,0.0,0.0,0.0,0.0,0.0,0.0,0.0,0.0,0.0,0.0,0.0,0.0,0.0,0.0,0.0,0.0,0.0,0.0,5.1121,5.1152,5.1221,5.1222,5.1222,5.1215,5.1323,5.1445,5.1543,5.1543,5.1914,5.2773,5.2851,5.3223,5.4101,0.0,0.0,0.0,0.0,5.5449,5.5449,5.6211,5.664,5.6758,5.6758,5.6797,5.6894,5.6894,5.6894,5.6894,5.6733,5.6563,5.634,5.6148,5.5895,5.5549,5.4064,5.3428,5.3351,5.3351,5.3278,5.3205,0.0,0.0,0.0,0.0,0.0,0.0,4.6308,4.6894,4.7715,4.8769,4.9512,5.0312,5.1289,5.1406,5.1406,5.1406,5.1406,5.1406,5.1406,5.1406,5.1406,5.1406,5.1406,5.1406,5.1406,5.1406,5.1406,5.1406,5.1406,5.1406,5.1406,5.1406,5.1406,5.1406,5.1406,5.1406,5.1406,5.1406,5.1406,5.1406,5.1406,5.1406,5.1406,5.1406,5.1406,5.1406,5.1406,5.1406,5.1406,5.1406,5.1406,5.1406,5.1406,0.0,0.0,0.0,0.0,0.0,0.0,0.0,0.0,0.0,0.0,0.0,0.0,0.0,0.0,0.0,0.0,0.0,0.0,0.0,0.0,5.1183,5.1186,5.1229,5.1336,5.1356,5.1366,5.1357,5.1382,5.168,5.2383,5.2441,5.2812,5.3672,5.375,5.4121,5.5,5.5058,5.5371,5.6074,5.6269,5.6348,5.6348,5.6523,5.6953,5.7656,0.0,0.0,5.8691,5.8691,5.8691,5.8691,5.8499,5.8027,5.7382,5.7074,5.6456,5.5665,5.5338,5.4816,5.4257,5.4257,5.3795,5.32,0.0,0.0,0.0,0.0,0.0,0.0,4.6875,4.7324,4.8066,4.9375,4.9922,5.0508,5.1308,5.1406,5.1406,5.1406,5.1406,5.1406,5.1406,5.1406,5.1406,5.1406,5.1406,5.1406,5.1406,5.1406,5.1406,5.1406,5.1406,5.1406,5.1406,5.1406,5.1406,5.1406,5.1406,5.1406,5.1406,5.1406,5.1406,5.1406,5.1406,5.1406,5.1406,5.1406,5.1406,5.1406,5.1406,5.1406,5.1406,5.1406,5.1406,5.1406,5.1406,5.1406,5.1406,0.0,0.0,0.0,0.0,0.0,0.0,0.0,0.0,0.0,0.0,0.0,0.0,0.0,0.0,5.1387,5.1308,0.0,5.1308,5.1308,5.1294,5.131,5.1385,5.1785,5.2044,5.205,5.2051,5.2383,5.3262,5.3359,5.3711,5.459,5.4648,5.5039,5.5898,5.5957,5.6152,5.6582,5.7012,5.7246,5.7246,5.7676,5.8125,5.8555,5.8555,5.8789,5.9199,5.9199,5.9199,5.9198,5.899,5.863,5.8184,5.7863,5.7189,5.634,5.634,5.5838,5.5085,5.5085,5.4816,5.4449,0.0,0.0,0.0,0.0,0.0,0.0,0.0,4.7891,4.8613,5.0019,5.0332,5.0683,5.1328,5.1406,5.1406,5.1406,5.1406,5.1406,5.1406,5.1406,5.1406,5.1406,5.1406,5.1406,5.1406,5.1406,5.1406,5.1406,5.1406,5.1406,5.1406,5.1406,5.1406,5.1406,5.1406,5.1406,5.1406,5.1406,5.1406,5.1406,5.1406,5.1406,5.1406,5.1406,5.1406,5.1406,5.1406,5.1406,5.1406,5.1406,5.1406,5.1406,5.1406,5.1406,5.1406,5.1406,5.1406,0.0,0.0,0.0,0.0,0.0,0.0,0.0,0.0,0.0,5.1406,5.1406,5.1406,5.1406,5.1406,5.1406,5.1406,5.1406,5.1406,5.1465,5.1621,5.2266,5.2832,5.3164,5.3066,5.3281,5.418,5.4258,5.4609,5.5488,5.5547,5.5859,5.6562,5.6758,5.6855,5.6855,5.7695,5.8144,5.8144,5.8848,5.9277,5.9433,5.9433,5.9512,5.9687,5.9687,5.9687,5.9667,5.9316,5.9068,5.8889,5.8495,5.7921,5.7244,5.7244,5.6725,5.5915,5.5761,5.5703,5.5703,0.0,0.0,0.0,0.0,0.0,0.0,0.0,0.0,4.998,5.0176,5.082,5.1308,5.1387,5.1406,5.1406,5.1406,5.1406,5.1406,5.1406,5.1406,5.1406,5.1406,5.1406,5.1406,5.1406,5.1406,5.1406,5.1406,5.1406,5.1406,5.1406,5.1406,5.1406,5.1406,5.1406,5.1406,5.1406,5.1406,5.1406,5.1406,5.1406,5.1406,5.1406,5.1406,5.1406,5.1406,5.1406,5.1406,5.1406,5.1406,5.1406,5.1406,5.1406,5.1406,5.1406,5.1406,5.1406,5.1406,5.1406,5.1406,5.1406,5.1406,5.1406,5.1406,0.0,0.0,5.1406,5.1406,5.1406,5.1406,5.1406,5.1406,5.1406,5.1406,5.1406,5.168,5.2441,5.2637,5.3262,5.4824,5.4336,5.4199,5.5078,5.5156,5.5527,5.6387,5.6445,5.6504,5.6582,5.7324,5.7754,5.7754,5.8594,5.9043,5.9043,5.914,5.9551,6.0273,6.0273,6.0664,6.1426,6.1426,6.1426,6.1367,6.0444,5.9902,5.9623,5.8812,5.835,5.8135,5.8135,5.7623,5.6766,5.5994,5.5703,5.5703,0.0,0.0,0.0,0.0,0.0,0.0,0.0,0.0,0.0,5.084,5.1191,5.1406,5.1406,5.1406,5.1406,5.1406,5.1406,5.1406,5.1406,5.1406,5.1406,5.1406,5.1406,5.1406,5.1406,5.1406,5.1406,5.1406,5.1406,5.1406,5.1406,5.1406,5.1406,5.1406,5.1406,5.1406,5.1406,5.1406,5.1406,5.1406,5.1406,5.1406,5.1406,5.1406,5.1406,5.1406,5.1406,5.1406,0.0,5.1406,5.1406,5.1406,5.1406,5.1406,5.1406,5.1406,5.1406,5.1406,5.1406,5.1406,5.1406,5.1406,5.1406,5.1406,5.1406,5.1406,5.1406,5.1406,5.1406,5.1406,5.1406,5.1406,5.1406,0.0,5.1836,5.2285,5.2656,5.3574,5.4473,5.5215,5.543,5.5664,5.6015,5.6055,5.6211,5.6562,5.707,5.7363,5.7363,5.8183,5.8652,5.8652,5.9453,5.9902,5.9902,6.039,6.082,6.1152,6.1152,6.1348,6.1699,6.1699,6.1699,6.168,6.1094,6.0779,6.0627,6.0065,5.9504,5.9004,5.9004,5.8485,5.7643,5.678,5.6145,5.5703,0.0,0.0,0.0,0.0,0.0,0.0,0.0,0.0,0.0,0.0,5.1406,5.1406,5.1406,5.1406,5.1406,5.1406,5.1406,5.1406,5.1406,5.1406,5.1406,5.1406,5.1406,5.1406,5.1406,5.1406,5.1406,5.1406,5.1406,5.1406,5.1406,5.1406,5.1406,5.1406,5.1406,5.1406,5.1406,5.1406,5.1406,5.1406,5.1406,5.1406,5.1406,5.1406,5.1406,5.1406,5.1406,5.1406,5.1406,5.1406,5.1406,5.1406,5.1406,5.1406,5.1406,5.1406,5.1406,5.1406,5.1406,5.1406,5.1406,5.1406,5.1406,5.1406,5.1406,5.1406,5.1406,5.1406,5.1406,5.1406,5.1406,5.1406,5.1406,5.1406,5.2129,5.2773,5.3027,5.4355,5.539,5.5625,5.6211,5.6601,5.6601,5.6601,5.6699,5.6933,5.7539,5.8008,5.8242,5.9062,5.9531,5.9531,6.0332,6.0762,6.0762,6.1387,6.1699,6.1699,6.1699,6.1699,6.1699,6.1699,6.1699,6.1699,6.1426,6.1294,6.1285,6.0935,6.0435,5.9854,5.9854,5.935,5.8543,5.7912,5.7011,5.6011,0.0,0.0,0.0,0.0,0.0,0.0,0.0,0.0,0.0,0.0,0.0,0.0,0.0,5.1406,5.1406,5.1406,5.1406,5.1406,5.1406,5.1406,5.1406,5.1406,5.1406,5.1406,5.1406,5.1406,5.1406,5.1406,5.1406,5.1406,5.1406,5.1406,5.1406,5.1406,5.1406,5.1406,5.1406,5.1406,5.1406,5.1406,5.1406,5.1406,5.1406,5.1406,5.1406,5.1406,5.1406,5.1406,5.1406,5.1406,5.1406,5.1406,5.1406,5.1406,0.0,5.1406,5.1406,5.1406,5.1406,5.1406,5.1406,5.1406,5.1406,5.1406,5.1406,5.1406,5.1406,5.1406,5.1406,5.1406,5.1406,5.1406,5.1406,5.1406,5.2129,5.3008,5.3848,5.4726,5.5605,5.6465,5.6582,5.6601,0.0,5.6601,5.6953,5.7793,5.789,5.8262,5.9121,5.9922,6.0351,6.0351,6.1211,6.166,6.166,6.1699,6.1699,6.1699,6.1699,6.1699,6.1699,6.1699,6.1699,6.1699,6.1426,6.1294,6.1285,6.0935,6.0781,6.0762,6.0762,6.0223,5.9454,5.9435,5.8377,5.6838,0.0,0.0,0.0,0.0,0.0,0.0,0.0,0.0,0.0,0.0,0.0,0.0,0.0,0.0,0.0,0.0,5.1406,5.1406,5.1406,5.1406,5.1406,5.1406,5.1406,5.1406,5.1406,5.1406,5.1406,5.1406,5.1406,5.1406,5.1406,5.1406,5.1406,5.1406,5.1406,5.1406,5.1406,5.1406,5.1406,5.1406,5.1406,5.1406,5.1406,5.1406,5.1406,5.1406,0.0,5.1406,5.1406,5.1406,0.0,0.0,5.1406,5.1406,5.1406,5.1406,5.1406,5.1406,5.1406,5.1406,5.1406,5.1406,5.1406,5.1406,5.1406,5.1406,5.1406,5.1406,5.1406,5.1406,5.1406,5.1406,5.1582,5.2168,5.2988,5.3867,5.4746,5.5605,5.6269,5.6562,5.6601,0.0,0.0,0.0,0.0,5.7832,5.8437,5.9121,5.9941,6.0801,6.1269,6.1269,6.1543,6.1699,6.1699,6.1699,6.1699,6.1699,6.1699,6.1699,6.1699,6.1699,6.164,6.1562,6.1387,6.1216,6.1093,6.0877,6.08,6.08,6.08,6.0608,6.0281,5.9704,5.9146,5.845,0.0,0.0,0.0,0.0,0.0,0.0,0.0,0.0,0.0,0.0,0.0,0.0,0.0,0.0,0.0,0.0,0.0,5.1406,5.1406,5.1406,5.1406,5.1406,5.1699,5.1855,5.1855,5.2168,5.2324,5.2324,5.2012,5.1855,5.1855,5.1543,5.1406,5.1406,5.1406,5.1406,5.1406,5.1406,5.1582,5.1836,5.1523,5.1582,5.1836,5.1523,5.1406,0.0,5.1406,5.1406,5.1406,5.1406,0.0,0.0,5.1406,5.1406,5.1406,5.1406,5.1406,5.1406,5.1406,5.1406,5.1406,5.1406,5.1406,5.1406,5.1406,5.1406,5.1406,5.1406,5.1641,5.1855,5.1855,5.1855,5.2148,5.3027,5.3633,5.4297,5.5176,5.6055,5.6601,5.6601,5.6601,5.6601,0.0,0.0,0.0,5.8281,5.8887,5.9687,6.0801,6.1406,6.1699,6.1699,6.1699,6.1699,6.1699,6.1699,6.1699,6.1699,6.1699,6.168,6.1621,6.1621,6.1562,6.1425,6.127,6.1128,6.0973,6.0858,6.08,6.08,6.08,6.08,6.0723,6.0165,5.9758,5.9315,0.0,0.0,0.0,0.0,0.0,0.0,0.0,0.0,0.0,0.0,0.0,0.0,0.0,0.0,0.0,0.0,0.0,0.0,5.1406,5.1406,5.1406,5.1406,5.2226,5.2695,5.2695,5.3555,5.4004,5.4004,5.3164,5.2773,5.2754,5.1914,5.1523,5.1523,5.1523,5.1523,5.1523,5.1523,5.1973,5.2637,5.1797,5.1933,5.2539,5.1719,5.1406,5.1406,5.1406,5.1406,5.1406,0.0,0.0,0.0,0.0,5.1406,5.1406,5.1406,5.1406,5.1406,5.1406,5.1406,5.1406,5.1406,5.1406,5.1406,5.1406,5.1406,5.1406,5.1465,5.2129,5.2715,0.0,0.0,5.2988,5.3867,5.4004,5.4297,5.5176,5.6055,5.6601,0.0,0.0,0.0,0.0,0.0,0.0,5.9004,0.0,5.9922,6.1601,6.1699,6.1699,6.1699,6.1699,6.1699,6.1699,6.1699,6.1699,6.1699,6.1699,6.1621,6.1504,6.1502,6.1423,6.1262,6.107,6.0993,6.0973,6.0839,6.08,6.08,6.08,6.08,6.08,6.08,6.0277,5.9469,0.0,0.0,0.0,0.0,0.0,0.0,0.0,0.0,0.0,0.0,0.0,0.0,0.0,0.0,0.0,0.0,0.0,0.0,5.1406,5.1406,5.1406,5.1406,5.2226,5.2695,5.2695,5.3555,5.4004,5.4004,5.3789,5.3672,5.3652,5.3437,5.334,5.334,5.334,5.334,5.334,5.334,5.3086,5.2676,5.2461,5.2109,5.1719,5.1484,5.1406,5.1406,5.1406,5.1406,0.0,0.0,0.0,0.0,0.0,5.1406,5.1406,5.1406,5.1406,5.1406,5.1406,5.1406,5.1406,5.1406,5.1406,5.1406,5.1406,5.1406,5.1582,5.2226,5.2558,5.2891,0.0,0.0,0.0,5.3867,5.4004,0.0,5.5176,5.6055,0.0,5.6601,0.0,5.6601,5.6601,5.6601,0.0,0.0,5.8828,5.9922,6.1601,6.1699,6.1699,6.1699,6.1699,6.1699,6.1699,6.1699,6.1699,6.1699,6.1699,6.1621,6.1504,6.1511,6.1363,6.1074,6.1012,6.0935,6.0839,6.08,6.08,6.08,6.08,6.08,6.08,6.08,6.0666,6.0454,0.0,0.0,0.0,0.0,0.0,0.0,0.0,0.0,0.0,0.0,0.0,0.0,0.0,0.0,0.0,0.0,0.0,0.0,0.0,5.1406,5.1562,5.1953,5.2812,5.3457,5.3828,5.4707,5.5137,5.5137,5.4765,5.457,5.4551,5.418,5.4004,5.4004,5.4004,5.4004,5.4004,5.4004,5.3711,0.0,0.0,5.2402,5.1933,5.1543,5.1406,5.1406,5.1406,0.0,0.0,0.0,0.0,5.1406,5.1406,5.1406,5.1406,5.1406,0.0,5.1406,5.1406,5.1406,5.1406,5.1406,5.1406,5.1504,5.1875,5.1973,5.2226,5.3086,5.3574,5.3984,5.4473,5.3867,5.3555,0.0,0.0,0.0,5.5176,5.6055,5.6601,0.0,5.6601,0.0,5.6601,5.6601,5.6953,0.0,5.8359,5.9355,6.1035,6.1133,6.1308,6.1699,6.1699,6.1699,6.1699,6.1699,6.1699,6.1699,6.164,6.1543,6.1406,6.1333,6.1151,6.0896,6.0896,6.0858,6.08,6.08,6.08,6.08,6.08,6.08,6.08,6.08,6.08,6.08,0.0,0.0,0.0,0.0,0.0,0.0,0.0,0.0,0.0,0.0,0.0,0.0,0.0,0.0,0.0,0.0,0.0,0.0,0.0,0.0,0.0,5.2656,5.3535,5.4414,5.5273,5.6152,5.6601,5.6601,5.584,5.5469,5.5469,5.4707,5.4355,5.4355,5.4355,5.4355,5.4336,5.4219,5.4101,5.3926,5.3047,5.2637,5.2441,0.0,0.0,0.0,0.0,0.0,0.0,0.0,5.1406,5.1406,5.1406,5.1406,5.1406,5.1406,5.1406,5.1406,5.1406,5.1406,5.1406,5.1406,5.1406,5.1621,5.25,5.2695,5.2988,5.3965,5.4765,5.5332,5.5449,5.4765,5.4375,5.5019,0.0,5.4258,5.5019,5.5879,5.6465,5.6582,5.6601,5.6601,5.6601,5.6601,5.6914,5.7676,5.7734,5.8457,6.0156,6.0234,6.0586,6.1348,6.1367,6.1367,6.1367,6.1367,6.1367,6.1367,6.125,6.1111,6.0956,6.0879,6.0781,6.0627,6.0742,6.08,6.08,6.08,6.08,6.08,6.08,6.08,6.08,6.08,6.08,6.08,0.0,0.0,0.0,0.0,0.0,0.0,0.0,0.0,0.0,0.0,5.1406,5.1406,0.0,0.0,0.0,0.0,0.0,0.0,0.0,0.0,0.0,5.2656,5.3535,5.4414,5.5273,5.6152,5.6601,5.6601,5.6445,5.6367,5.6367,5.6211,5.6152,5.6152,5.6152,5.6152,5.6094,5.5371,5.4668,5.3926,5.3047,5.2266,5.1601,5.1465,0.0,0.0,0.0,0.0,0.0,0.0,5.1406,5.1406,5.1406,5.1406,5.1406,5.1406,5.1406,5.1406,5.1406,5.1406,5.1406,5.1406,5.1406,5.1621,5.25,5.2695,0.0,0.0,5.5195,5.5527,5.623,5.5664,5.4883,5.4316,5.4101,5.4043,5.4199,5.498,5.5781,0.0,5.6601,5.6601,5.6601,5.6601,0.0,0.0,5.6836,5.7578,5.9316,5.9414,5.9473,5.9629,5.9629,5.9629,5.9629,5.9629,5.9629,5.9629,5.9609,5.943,5.9167,5.9848,6.0008,5.9777,6.0492,0.0,6.08,6.08,6.08,6.08,6.08,6.08,6.08,6.08,6.08,6.08,0.0,0.0,0.0,0.0,0.0,0.0,0.0,5.1406,5.1406,5.1406,5.1406,5.1406,5.1406,5.1406,5.1406,0.0,0.0,0.0,0.0,0.0,0.0,0.0,0.0,0.0,0.0,5.6387,0.0,0.0,0.0,5.6601,5.6601,5.6601,5.6601,5.6601,5.6601,5.6348,5.5898,5.5488,5.4531,5.3281,5.2871,5.2187,0.0,0.0,0.0,0.0,0.0,0.0,0.0,0.0,5.1406,5.1406,5.1406,5.1406,5.1406,5.1406,5.1406,5.1406,5.1406,5.1406,5.1406,5.1406,5.1406,5.1758,5.3066,0.0,0.0,0.0,5.5976,5.6094,5.6523,5.5898,0.0,5.4141,5.4004,5.3848,5.3398,5.4453,0.0,5.5879,5.6328,5.6601,0.0,5.6601,5.6601,5.6601,5.6601,5.7168,5.8457,5.8945,5.9199,5.9199,5.9199,5.9199,5.9199,5.9199,5.9199,5.9199,5.9082,5.8918,5.871,5.9051,5.9088,5.8927,5.9758,6.0123,6.0161,6.0608,6.08,6.08,6.08,6.08,6.08,6.08,6.08,6.08,0.0,0.0,0.0,0.0,0.0,0.0,0.0,5.1406,5.1406,5.1406,5.1406,5.1406,5.1406,5.1406,5.1406,0.0,0.0,0.0,0.0,0.0,0.0,0.0,0.0,0.0,0.0,0.0,0.0,0.0,0.0,0.0,0.0,0.0,0.0,0.0,5.6406,5.5937,5.5273,5.4902,5.3945,0.0,0.0,5.2012,0.0,0.0,0.0,0.0,0.0,0.0,0.0,0.0,5.1406,5.1406,5.1406,5.1406,5.1406,5.1406,5.1406,5.1406,5.1406,5.1406,5.1406,5.1406,5.1406,5.1816,5.3379,5.3711,0.0,5.5957,5.6328,5.6328,5.6328,5.5762,5.4941,0.0,5.3711,5.3476,5.2793,5.4043,5.5098,0.0,5.6074,0.0,5.6601,5.6601,0.0,5.6601,5.6601,5.6894,5.7578,5.8262,5.8633,5.8633,5.8633,5.8633,5.8633,5.8633,5.8633,5.8633,5.8476,5.832,5.8163,5.8241,5.819,5.8062,5.8892,5.9335,5.9565,6.0238,6.0627,6.08,6.08,6.08,6.08,6.08,6.08,6.08,0.0,0.0,0.0,0.0,0.0,0.0,0.0,5.1406,5.1406,5.1406,5.1406,5.1406,5.1406,5.1406,5.1406,0.0,0.0,0.0,0.0,0.0,0.0,0.0,0.0,0.0,0.0,0.0,0.0,0.0,0.0,0.0,0.0,0.0,0.0,0.0,0.0,0.0,5.5195,5.3613,0.0,0.0,0.0,0.0,0.0,0.0,0.0,0.0,0.0,0.0,0.0,0.0,0.0,5.1406,5.1406,5.1406,5.1406,5.1406,0.0,0.0,5.1406,5.1406,5.1406,5.1406,5.1406,5.1641,5.2598,0.0,5.3301,5.5058,5.543,5.543,5.543,5.5351,5.4765,5.3086,5.2812,5.2793,5.2715,5.3516,5.4414,5.5215,0.0,0.0,5.6601,5.6601,5.6601,5.6601,5.6601,5.6621,5.6719,5.6797,5.6836,5.6836,5.6836,5.6836,5.6836,5.6836,5.6836,5.6836,5.6816,5.668,5.6445,5.7179,5.7362,5.7189,5.8038,5.8803,0.0,5.9604,6.0084,6.08,6.08,6.08,6.08,6.08,6.08,6.08,0.0,0.0,0.0,0.0,0.0,0.0,5.1406,5.1406,5.1406,5.1406,5.1406,5.1406,5.1406,5.1406,5.1406,5.1406,0.0,0.0,0.0,0.0,0.0,0.0,0.0,0.0,0.0,0.0,0.0,5.6601,5.6601,0.0,0.0,0.0,0.0,0.0,0.0,0.0,0.0,0.0,0.0,0.0,0.0,0.0,0.0,0.0,0.0,0.0,0.0,0.0,5.1406,0.0,0.0,0.0,5.1406,5.1406,0.0,0.0,5.1406,5.1406,5.1406,5.1406,5.1406,5.1406,5.1406,5.1621,5.25,5.2695,5.3047,5.4277,5.4512,5.4512,5.4512,5.4512,5.4121,5.2891,5.2695,5.2519,5.1992,5.2676,5.3535,5.4414,5.5293,0.0,0.0,0.0,5.6601,5.6601,5.6601,5.6601,5.6601,5.6601,5.6601,5.6601,5.6601,5.6601,5.6601,5.6601,5.6601,5.6601,5.6601,5.6504,5.6327,5.6563,5.6552,5.6379,5.717,5.7998,0.0,5.9296,6.0008,6.08,6.08,6.08,6.08,6.08,6.08,6.08,0.0,0.0,0.0,0.0,0.0,5.1406,5.1406,5.1406,5.1406,5.1406,5.1406,5.1406,5.1406,5.1406,5.1406,5.1406,5.1406,0.0,0.0,0.0,0.0,0.0,0.0,0.0,0.0,0.0,5.6601,5.6601,5.6601,5.6601,0.0,0.0,0.0,0.0,0.0,0.0,0.0,0.0,0.0,0.0,0.0,0.0,0.0,0.0,0.0,0.0,0.0,0.0,0.0,0.0,0.0,0.0,0.0,0.0,0.0,0.0,5.1406,5.1406,5.1406,5.1406,5.1406,5.1406,5.1406,5.1562,5.2187,5.2324,5.2558,5.3437,5.3613,5.3613,5.3613,5.3613,5.332,5.2461,5.2324,5.2109,5.1484,5.2148,5.3027,0.0,0.0,5.5644,0.0,5.6601,5.6601,5.6601,5.6601,5.6601,5.6601,5.6601,5.6601,5.6601,5.6601,5.6601,5.6601,5.6601,5.6601,5.6601,5.6601,5.6523,5.6406,5.626,5.6091,5.5915,5.6398,5.7112,0.0,5.8796,5.9661,6.0454,6.0704,6.08,6.08,6.08,6.08,6.08,0.0,0.0,0.0,0.0,0.0,0.0,5.1406,5.1406,5.1406,5.1406,5.1406,5.1406,5.1406,5.1406,5.1406,5.1406,5.1406,0.0,0.0,0.0,0.0,0.0,0.0,0.0,0.0,0.0,5.6601,5.6601,5.6601,5.6601,5.6582,5.5723,5.5312,0.0,0.0,0.0,0.0,0.0,0.0,0.0,0.0,0.0,5.1406,0.0,0.0,0.0,0.0,0.0,0.0,0.0,0.0,0.0,0.0,5.1406,5.1406,0.0,5.1406,5.1406,5.1406,5.1406,5.1406,5.1406,5.1406,5.1406,5.1406,5.1406,5.166,5.2539,5.2715,5.2715,5.2715,5.2715,5.2422,5.1562,5.1406,5.1406,5.1406,5.2148,5.3027,0.0,0.0,5.5644,5.6523,5.6601,5.6601,5.6601,5.6601,0.0,5.6601,5.6601,5.6601,5.6601,5.6601,5.6601,5.6601,5.6601,5.6601,5.6601,5.6601,5.6523,5.6406,5.6269,5.609,5.5876,5.5761,5.6205,0.0,5.7947,5.8769,5.9604,6.0473,6.08,6.08,6.08,6.08,6.08,0.0,0.0,0.0,0.0,0.0,0.0,0.0,5.1406,5.1406,5.1406,5.1406,5.1406,5.1406,5.1406,5.1406,5.1406,5.1406,0.0,0.0,0.0,0.0,0.0,0.0,0.0,0.0,0.0,5.6601,5.6601,5.5996,5.5703,5.5683,5.4824,5.4082,5.3496,5.2949,0.0,0.0,0.0,0.0,0.0,0.0,5.1406,5.1406,0.0,0.0,0.0,0.0,0.0,0.0,0.0,0.0,0.0,0.0,0.0,0.0,5.1289,5.1328,5.1406,5.1406,5.1406,5.1406,5.1406,5.1406,5.1406,5.1406,5.1406,5.1484,5.1758,5.1816,5.1816,5.1816,5.1816,5.1719,5.1445,5.1406,5.1406,0.0,0.0,0.0,5.3008,5.4414,5.5644,0.0,0.0,5.6601,5.6601,5.6601,5.6601,5.6601,5.6601,5.6601,5.6601,5.6601,5.6601,5.6601,5.6601,5.6601,5.6601,5.6601,5.6582,5.6523,5.6406,5.6254,5.6109,5.5895,5.6282,5.7016,5.7302,5.8242,5.9523,5.9796,6.0277,6.08,6.08,6.08,6.08,0.0,0.0,0.0,0.0,0.0,0.0,0.0,5.1406,5.1406,5.1406,5.1406,5.1406,5.1406,5.1406,5.1406,5.1406,5.1406,0.0,0.0,0.0,0.0,0.0,0.0,0.0,0.0,5.6113,5.6113,5.6113,5.5234,5.4805,5.4785,5.3926,5.3223,5.2695,5.2363,0.0,0.0,0.0,0.0,0.0,5.1406,5.1406,5.1406,0.0,0.0,0.0,0.0,0.0,0.0,0.0,0.0,0.0,0.0,0.0,0.0,0.0,5.1265,5.1323,5.1286,5.1308,5.1328,5.1328,5.1328,5.1348,5.1387,5.1367,5.1348,5.1387,5.1406,5.1406,5.1406,5.1406,5.1406,5.1406,5.1406,5.1406,0.0,0.0,0.0,5.2598,0.0,0.0,0.0,5.6406,5.6601,5.6601,5.6601,5.6601,5.6601,5.6601,5.6601,5.6601,5.6601,5.6601,5.6601,5.6601,5.6601,5.6601,5.6601,5.6601,5.6601,5.6465,5.6343,5.6251,5.6001,5.6167,0.0,5.69,5.7802,5.9069,5.9373,6.0027,6.08,6.08,6.08,6.08,0.0,0.0,0.0,0.0,0.0,0.0,0.0,5.1406,5.1406,5.1406,5.1406,5.1406,5.1406,5.1406,5.1406,5.1406,0.0,0.0,0.0,0.0,0.0,0.0,0.0,0.0,5.5215,5.5215,5.5215,5.5215,5.4336,5.3906,5.3887,5.3027,5.2617,5.2578,5.1758,5.1406,0.0,0.0,0.0,0.0,5.1406,5.1406,0.0,0.0,0.0,0.0,0.0,0.0,0.0,0.0,0.0,0.0,0.0,0.0,0.0,0.0,0.0,0.0,0.0,5.1128,5.1188,5.1191,5.1191,5.123,5.1344,5.1285,0.0,5.1367,5.1387,5.1387,5.1387,5.1387,5.1406,5.1387,5.1387,5.1406,0.0,5.1406,0.0,0.0,5.4121,0.0,5.5293,5.6035,5.6523,5.6601,5.6601,5.6601,5.6601,5.6601,5.6601,5.6601,5.6601,5.6601,5.6601,5.6601,5.6601,5.6601,5.6601,5.6601,5.6601,5.6465,5.6406,0.0,5.6049,5.5902,5.5955,5.6629,5.7422,5.8289,5.9108,5.9931,6.0723,6.0781,6.08,6.08,0.0,0.0,0.0,0.0,0.0,0.0,0.0,0.0,0.0,0.0,5.1406,5.1406,5.1406,5.1406,5.1406,0.0,0.0,0.0,0.0,0.0,0.0,0.0,0.0,0.0,5.4297,5.4316,5.4316,5.4316,5.3437,5.3008,5.2988,5.2109,5.1719,5.1699,5.1484,5.1406,0.0,0.0,0.0,0.0,5.1406,5.1406,0.0,0.0,0.0,0.0,5.1406,5.1308,0.0,0.0,0.0,0.0,0.0,0.0,0.0,0.0,5.0977,5.0933,5.0828,0.0,5.1127,5.1121,5.1113,5.1137,0.0,5.1145,5.1152,5.1223,5.125,5.125,5.125,5.1328,5.1367,5.1269,5.1328,5.1406,5.1406,0.0,0.0,5.2598,5.3066,5.3828,5.5176,5.5488,5.5879,5.6543,5.6601,5.6601,5.6601,5.6601,5.6601,5.6601,5.6601,5.6601,5.6601,5.6601,5.6601,5.6601,5.6601,5.6601,5.6601,5.6562,5.6504,5.6386,5.6208,5.6033,5.5895,5.5994,5.6513,5.7382,5.8258,5.9081,5.9892,6.055,6.08,6.08,0.0,0.0,0.0,0.0,0.0,0.0,0.0,0.0,0.0,0.0,0.0,5.1406,5.1406,5.1406,0.0,0.0,0.0,0.0,0.0,0.0,0.0,0.0,0.0,5.293,5.3398,5.3398,5.3398,5.3398,5.2539,5.2109,5.209,5.1621,5.1406,5.1406,5.1406,5.1406,0.0,0.0,0.0,5.1406,5.1406,0.0,0.0,0.0,0.0,0.0,5.1328,5.123,0.0,5.1165,5.1102,5.1025,0.0,0.0,0.0,0.0,5.0893,5.0875,5.0741,5.0856,5.1024,5.1014,5.1005,5.1014,5.1083,5.1049,5.1042,0.0,0.0,5.1152,5.1148,5.1209,5.1248,5.1161,5.1238,0.0,0.0,0.0,5.1582,5.2051,5.2461,5.3066,0.0,5.4824,5.5508,5.5976,5.6367,5.6601,5.6601,5.6601,5.6601,5.6601,5.6601,5.6601,5.6601,5.6601,5.6601,5.6601,5.6601,5.6601,5.6601,5.6601,5.6562,5.6484,5.6348,5.6207,5.6032,5.5857,5.6263,5.7054,5.753,5.845,5.9565,6.0027,6.0473,6.08,0.0,0.0,0.0,0.0,0.0,0.0,0.0,0.0,0.0,0.0,0.0,0.0,0.0,0.0,0.0,0.0,0.0,0.0,0.0,0.0,0.0,0.0,5.2109,5.25,5.25,5.25,5.25,5.25,5.1758,5.1406,5.1406,5.1406,5.1406,5.1406,5.1406,5.1406,0.0,0.0,0.0,5.1406,5.1406,0.0,0.0,0.0,0.0,0.0,0.0,0.0,0.0,5.1041,5.0991,5.0895,5.101,0.0,0.0,0.0,0.0,0.0,5.0721,5.0779,5.0875,5.0875,5.0875,5.0914,5.101,0.0,0.0,0.0,0.0,0.0,5.1066,5.1087,0.0,0.0,0.0,0.0,5.1347,5.1367,5.1387,5.1406,5.2051,0.0,5.2695,5.4043,5.5019,5.5273,5.5976,5.6465,5.6582,5.6601,5.6601,5.6601,5.6601,5.6601,5.6601,5.6601,5.6601,5.6601,5.6601,5.6601,5.6601,5.6601,5.6601,5.6582,5.6465,0.0,5.6212,5.5999,5.6263,5.6843,5.6958,5.7956,5.9335,5.945,6.0046,6.08,0.0,0.0,0.0,0.0,0.0,0.0,0.0,0.0,0.0,0.0,0.0,0.0,0.0,0.0,0.0,0.0,0.0,0.0,0.0,0.0,0.0,5.1406,5.1523,5.1601,5.1601,5.1601,5.1601,5.1601,5.1465,5.1406,5.1406,5.1406,5.1406,5.1406,5.1406,5.1406,5.1406,0.0,0.0,5.1406,5.1406,0.0,0.0,0.0,0.0,0.0,0.0,0.0,0.0,5.0721,5.0856,5.0721,5.0741,0.0,0.0,0.0,0.0,0.0,5.0702,5.0721,5.0721,5.0721,5.0721,5.0741,5.076,0.0,0.0,0.0,0.0,0.0,0.0,5.1029,5.1068,0.0,0.0,5.1148,0.0,0.0,5.1269,5.1387,0.0,5.1894,5.2637,5.2949,5.3711,5.5195,5.543,5.582,5.6562,5.6601,5.6601,5.6601,5.6601,5.6601,5.6601,5.6601,5.6601,5.6601,5.6601,5.6601,5.6601,5.6601,5.6601,5.6582,0.0,5.6383,5.6333,5.6024,5.5974,5.6128,5.6766,5.7593,5.8556,5.9261,6.0046,6.08,0.0,0.0,0.0,0.0,0.0,0.0,0.0,0.0,0.0,0.0,0.0,0.0,0.0,0.0,0.0,0.0,0.0,0.0,0.0,0.0,5.1406,5.1406,5.1406,5.1406,5.1406,5.1406,5.1406,5.1406,5.1406,5.1406,5.1406,5.1406,5.1406,5.1406,5.1406,5.1406,5.1406,5.1406,5.1406,5.1367,0.0,0.0,0.0,0.0,0.0,0.0,0.0,0.0,0.0,0.0,5.0048,5.0067,5.0548,0.0,0.0,0.0,0.0,0.0,5.0702,5.0702,5.0702,5.0702,5.0702,5.0702,5.0702,5.0702,0.0,0.0,0.0,0.0,0.0,0.0,5.0895,5.0914,0.0,5.1029,5.112,5.1152,5.118,0.0,0.0,5.1484,5.1953,5.2422,5.3027,5.3828,5.4765,5.5469,5.5879,5.6348,5.6601,5.6601,5.6601,5.6601,5.6601,5.6601,5.6601,5.6601,5.6601,5.6601,5.6601,5.6601,5.6601,5.6601,0.0,5.6465,5.6386,5.6152,5.5996,5.5915,5.6186,5.6843,5.7747,5.9027,6.0046,6.08,0.0,0.0,0.0,0.0,0.0,0.0,0.0,0.0,0.0,0.0,0.0,0.0,0.0,0.0,0.0,0.0,0.0,0.0,0.0,0.0,5.1406,5.1406,5.1406,5.1406,5.1406,5.1406,5.1406,5.1406,5.1406,5.1406,5.1406,5.1406,5.1406,5.1406,5.1406,5.1406,5.1406,5.1406,5.1289,5.1074,0.0,0.0,0.0,0.0,0.0,0.0,0.0,0.0,0.0,0.0,0.0,0.0,0.0,0.0,0.0,5.0702,5.0702,5.0702,5.0702,5.0702,5.0702,5.0702,5.0702,5.0702,5.0702,5.0702,0.0,0.0,0.0,0.0,0.0,5.0702,0.0,5.0856,5.0856,5.0914,5.1029,5.1053,5.1074,5.1177,5.1183,5.123,5.1348,5.1992,5.248,5.2676,5.3945,5.4863,5.5273,5.5937,5.6387,5.6582,5.6601,5.6601,5.6601,5.6601,5.6601,5.6601,5.6601,5.6601,5.6601,5.6601,5.6601,5.6601,5.6601,5.6543,5.6445,5.6302,5.6139,5.5974,5.5799,5.6379,5.7478,5.895,6.0046,6.08,0.0,0.0,0.0,0.0,0.0,0.0,0.0,0.0,0.0,0.0,0.0,0.0,0.0,0.0,0.0,0.0,0.0,0.0,0.0,0.0,5.1406,5.1406,5.1406,5.1406,5.1406,5.1406,5.1406,5.1406,5.1406,5.1406,5.1406,5.1406,5.1406,5.1406,5.1406,5.1406,5.1406,5.1406,5.0976,5.0273,5.0215,0.0,0.0,0.0,0.0,0.0,0.0,0.0,0.0,0.0,0.0,0.0,0.0,0.0,5.0702,5.0702,5.0702,5.0702,5.0702,5.0702,5.0702,5.0702,5.0702,0.0,5.0702,5.0702,0.0,5.0702,0.0,0.0,0.0,5.0702,5.0702,5.0702,5.0702,5.076,5.0914,0.0,5.0952,5.1085,5.116,5.1191,5.1211,5.1387,5.1836,5.2637,5.2812,5.3594,5.5215,5.5351,5.5762,5.6562,5.6601,5.6601,5.6601,5.6601,5.6601,5.6601,5.6601,5.6601,5.6601,5.6601,5.6601,5.6601,5.6601,5.6582,5.658,5.6437,5.6287,5.6167,5.5974,5.6843,5.8308,5.9184,6.0046,6.08,0.0,0.0,0.0,0.0,0.0,0.0,0.0,0.0,0.0,0.0,0.0,0.0,0.0,0.0,0.0,0.0,0.0,0.0,0.0,5.1406,5.1406,5.1406,5.1406,5.1406,5.1406,5.1406,5.1406,5.1406,5.1406,5.1406,5.1406,5.1406,5.1406,5.1406,5.1406,5.1406,5.1367,5.0879,5.0488,5.0117,4.9023,4.8398,0.0,0.0,0.0,0.0,0.0,0.0,0.0,0.0,4.8587,4.8837,5.024,5.0702,5.0702,5.0702,5.0702,5.0702,5.0702,5.0702,5.0702,5.0702,5.0702,0.0,0.0,5.0702,5.0702,5.0702,5.0702,0.0,0.0,0.0,5.0702,5.0702,5.0702,5.0721,5.076,5.0779,5.0837,5.0972,5.0995,5.1044,5.1122,5.1218,5.14,5.1687,5.2252,5.2862,5.3515,5.459,5.5351,5.5781,5.6328,5.6601,5.6601,5.6601,5.6601,5.6601,5.6601,5.6601,5.6601,5.6601,5.6601,5.6601,5.6601,5.6601,5.6581,5.6458,5.6323,5.6167,5.5876,5.6475,5.7593,5.845,5.9273,6.0065,0.0,0.0,0.0,0.0,0.0,0.0,0.0,0.0,0.0,0.0,0.0,0.0,0.0,0.0,0.0,0.0,0.0,0.0,5.1406,5.1406,5.1406,5.1406,5.1406,5.1406,5.1406,5.1406,5.1406,5.1406,5.1406,5.1406,5.1406,5.1406,5.1406,5.1406,5.1406,5.1269,5.0996,5.043,4.9883,4.9277,4.8086,4.7441,0.0,0.0,0.0,0.0,0.0,0.0,0.0,0.0,4.8087,4.8394,5.0144,5.0702,5.0702,5.0702,5.0702,5.0702,5.0702,5.0702,5.0702,5.0702,0.0,0.0,5.0702,5.0702,5.0702,5.0702,5.0702,0.0,5.0702,0.0,0.0,0.0,5.0702,5.0702,5.0702,5.0702,5.0721,5.0837,5.0875,5.0947,5.103,5.1111,5.1147,5.1094,5.1699,5.2195,5.2474,5.3622,5.459,5.5273,5.5879,5.6328,5.6601,5.6601,5.6601,5.6601,5.6601,5.6601,5.6601,5.6601,5.6601,5.6601,5.6601,5.6601,5.6582,5.6504,5.6355,5.6167,5.5876,5.6263,5.7112,5.7992,5.8816,5.9623,0.0,0.0,0.0,0.0,0.0,0.0,0.0,0.0,0.0,0.0,0.0,0.0,0.0,0.0,0.0,0.0,0.0,0.0,5.1406,5.1406,5.1406,5.1406,5.1406,5.1406,5.1406,5.1406,5.1406,5.1406,5.1406,5.1406,5.1406,5.1406,5.1406,5.1406,5.1406,5.0957,5.0195,5.0195,4.9199,4.7598,4.7598,4.707,4.6285,0.0,0.0,0.0,0.0,0.0,0.0,0.0,4.8105,4.8413,5.0144,5.0702,5.0702,5.0702,5.0702,5.0702,5.0702,5.0702,5.0702,0.0,0.0,0.0,5.0702,5.0702,5.0702,5.0702,5.0702,5.0702,5.0702,5.0702,0.0,5.0702,5.0702,5.0702,5.0702,5.0702,5.0702,5.0702,5.0837,5.0914,5.0914,5.1029,5.1112,5.1102,5.1103,5.1511,5.2435,5.2492,5.3359,5.5215,5.5293,5.5703,5.6582,5.6601,5.6601,5.6601,5.6601,5.6601,5.6601,5.6601,5.6601,5.6601,5.6601,5.6601,5.6601,5.6601,5.6433,5.6188,5.5994,5.634,5.7093,5.7981,5.8784,5.9623,0.0,0.0,0.0,0.0,0.0,0.0,0.0,0.0,0.0,0.0,0.0,0.0,0.0,0.0,0.0,0.0,0.0,0.0,5.1406,5.1406,5.1406,5.1406,5.1406,5.1406,5.1406,5.1406,5.1406,5.1406,5.1406,5.1406,5.1406,5.1406,5.1406,5.1406,5.1406,5.0957,5.0156,4.9551,4.8633,4.7558,4.6933,4.647,4.615,0.0,0.0,0.0,0.0,0.0,0.0,0.0,0.0,0.0,5.0337,5.0702,5.0702,5.0702,5.0702,5.0702,5.0702,5.0702,0.0,5.0702,0.0,0.0,0.0,5.0702,0.0,0.0,5.0702,5.0702,5.0702,5.0702,0.0,5.0702,5.0702,5.0702,5.0702,5.0702,5.0702,5.0702,5.0741,5.076,5.076,5.0895,5.0913,5.0825,5.0912,5.1087,5.1356,5.2003,5.2669,5.3301,5.4609,5.543,5.5683,5.6289,5.6601,5.6601,5.6601,5.6601,5.6601,5.6601,5.6601,5.6601,5.6601,5.6601,5.6582,5.6504,5.6415,5.6308,5.6014,5.6032,5.6379,5.7788,5.8457,5.8869,0.0,0.0,0.0,0.0,0.0,0.0,0.0,0.0,0.0,0.0,0.0,0.0,0.0,0.0,0.0,0.0,0.0,0.0,0.0,5.1406,5.1406,5.1406,5.1406,5.1406,5.1406,5.1406,5.1406,5.1406,5.1406,5.1406,5.1406,5.1406,5.1406,5.1406,5.1406,5.0762,4.9648,4.9121,4.8203,4.7031,4.6445,4.6158,4.608,0.0,0.0,0.0,0.0,0.0,0.0,0.0,0.0,0.0,5.0433,5.0702,5.0702,5.0702,5.0702,5.0702,5.0702,5.0702,0.0,5.0702,5.0702,5.0702,5.0702,0.0,0.0,0.0,5.0702,5.0702,5.0702,5.0702,0.0,5.0702,5.0702,5.0702,5.0702,5.0702,5.0702,5.0702,5.0702,5.0702,5.0702,5.076,5.0779,5.0702,5.076,5.0856,5.0914,5.1447,5.1989,5.248,5.3594,5.4551,5.5293,5.582,5.6269,5.6601,5.6601,5.6601,5.6601,5.6601,5.6601,5.6601,5.6601,5.6601,5.6582,5.6504,5.6445,5.6385,5.6174,5.6024,5.6109,5.7769,5.836,5.8539,0.0,0.0,0.0,0.0,0.0,0.0,0.0,0.0,0.0,0.0,0.0,0.0,0.0,0.0,0.0,0.0,0.0,0.0,0.0,0.0,5.1406,5.1406,5.1406,5.1406,5.1406,5.1406,5.1406,5.1406,5.1406,5.1406,5.1406,5.1406,5.1406,5.1406,5.1328,5.0391,4.8887,4.8828,4.7811,4.6276,4.6145,4.6084,4.6046,4.5873,0.0,0.0,0.0,0.0,0.0,0.0,0.0,0.0,5.0452,5.0702,5.0702,5.0702,5.0702,5.0702,5.0702,5.0702,5.0702,5.0702,5.0702,0.0,5.0702,5.0702,5.0702,5.0702,0.0,5.0702,5.0702,5.0702,5.0702,5.0702,5.0702,5.0702,5.0702,5.0702,5.0702,5.0702,5.0702,5.0702,5.0702,5.0702,5.0702,5.0702,5.0702,5.0741,5.0895,5.0895,5.1358,5.2334,5.246,5.332,5.5058,5.5215,5.5703,5.6484,5.6562,5.6601,5.6601,5.6601,5.6601,5.6601,5.6601,5.6601,5.6601,5.6601,5.6523,5.6426,5.6406,5.6207,5.6136,5.7792,5.836,5.8539,0.0,0.0,0.0,0.0,0.0,0.0,0.0,0.0,0.0,0.0,0.0,0.0,0.0,0.0,0.0,0.0,0.0,0.0,0.0,0.0,5.1406,5.1406,5.1406,5.1406,5.1406,5.1406,5.1406,5.1406,5.1406,5.1406,5.1406,5.1406,5.1406,5.1367,5.0742,4.9883,4.8867,4.8164,4.7201,4.6143,4.6111,4.6007,4.5853,4.5815,4.6144,0.0,0.0,0.0,0.0,0.0,0.0,0.0,5.0625,5.0702,5.0702,5.0702,5.0702,5.0702,5.0702,5.0702,0.0,5.0702,5.0702,5.0702,5.0702,5.0702,5.0702,5.0702,5.0702,5.0702,5.0702,5.0702,5.0702,5.0702,5.0702,5.0702,5.0702,5.0702,5.0702,5.0702,5.0702,5.0702,5.0702,5.0702,5.0702,5.0702,5.0702,5.0702,5.0741,5.0856,5.1046,5.1401,5.2113,5.2734,5.3242,5.4629,5.539,5.5586,5.6269,5.6601,5.6601,5.6601,5.6601,5.6601,5.6601,5.6601,5.6601,5.6601,5.6582,5.6543,5.6445,5.636,5.64,5.719,5.7877,5.8577,0.0,0.0,0.0,0.0,0.0,0.0,0.0,0.0,0.0,0.0,0.0,0.0,0.0,0.0,0.0,0.0,0.0,0.0,0.0,0.0,5.1406,5.1406,5.1406,5.1406,5.1406,5.1406,5.1406,5.1406,5.1406,5.1406,5.1406,5.1406,5.1406,5.1367,5.0566,4.9726,4.8847,4.7891,4.695,4.6084,4.6007,4.5892,4.5853,4.6182,4.6567,4.7009,4.7817,0.0,0.0,0.0,0.0,0.0,0.0,0.0,5.0702,5.0702,5.0702,5.0702,5.0702,0.0,0.0,5.0702,0.0,5.0702,5.0702,5.0702,5.0702,5.0702,5.0702,5.0702,5.0702,5.0702,5.0702,5.0702,5.0702,5.0702,5.0702,5.0702,5.0702,5.0702,5.0702,5.0702,5.0702,5.0702,5.0702,5.0702,5.0702,5.0702,5.0702,5.076,5.0875,5.101,5.1541,5.2088,5.2598,5.3574,5.4473,5.5312,5.5762,5.6191,5.6601,5.6601,5.6601,5.6601,5.6601,5.6601,5.6601,5.6601,5.6601,5.6582,5.6523,5.6465,5.6483,5.7154,5.7854,5.8607,0.0,0.0,0.0,0.0,0.0,0.0,0.0,0.0,0.0,0.0,0.0,0.0,0.0,0.0,0.0,0.0,0.0,0.0,0.0,0.0,0.0,5.1406,5.1406,5.1406,5.1406,5.1406,5.1406,5.1406,5.1406,5.1406,5.1406,5.1406,5.1406,5.1367,5.0381,4.9531,4.8782,4.7636,4.6709,4.6046,4.6026,4.6007,4.6067,4.6817,4.7201,4.7509,4.8894,4.949,4.9721,5.0452,0.0,0.0,0.0,0.0,5.0702,5.0702,5.0702,5.0702,5.0702,0.0,5.0702,5.0702,5.0702,0.0,5.0702,5.0702,5.0702,5.0702,5.0702,5.0702,5.0702,5.0702,5.0702,5.0702,5.0702,5.0702,5.0702,5.0702,5.0702,5.0702,5.0702,5.0702,5.0702,5.0702,5.0702,5.0702,5.0702,5.0702,5.0702,5.0702,5.076,5.0914,5.1015,5.1456,5.2266,5.2539,5.3398,5.4844,5.5156,5.5762,5.6601,5.6601,5.6601,5.6601,5.6601,5.6601,5.6601,5.6601,5.6601,5.6601,5.6601,5.6523,5.6504,5.7168,5.781,5.845,0.0,0.0,0.0,0.0,0.0,0.0,0.0,0.0,0.0,0.0,0.0,0.0,0.0,0.0,0.0,0.0,0.0,0.0,0.0,0.0,0.0,5.1406,5.1406,5.1406,5.1406,5.1406,5.1406,5.1406,5.1406,0.0,0.0,0.0,0.0,5.1328,4.9642,4.8841,4.8604,4.6857,4.5996,4.5911,4.6567,4.6797,4.6836,4.7644,4.8413,4.9106,4.9317,4.9894,5.0529,5.0644,5.0702,0.0,0.0,0.0,5.0702,5.0702,5.0702,5.0702,5.0702,0.0,5.0702,0.0,5.0702,5.0702,0.0,0.0,5.0702,0.0,5.0702,5.0702,5.0702,5.0702,5.0702,5.0702,5.0702,5.0702,5.0702,5.0702,5.0702,5.0702,5.0702,5.0702,5.0702,5.0702,5.0702,5.0702,5.0702,5.0702,5.0702,5.0702,5.076,5.0914,5.0913,5.1081,5.1367,5.2148,5.2695,5.3066,5.457,5.5762,5.6601,5.6601,5.6601,5.6601,5.6601,5.6601,5.6601,5.6601,5.6601,5.6601,5.6601,5.6582,5.6562,5.6562,5.7048,5.7807,0.0,0.0,0.0,0.0,0.0,0.0,0.0,0.0,0.0,0.0,0.0,0.0,0.0,0.0,0.0,0.0,0.0,0.0,0.0,0.0,0.0,5.1406,5.1406,5.1406,5.1406,5.1406,5.1406,5.1406,0.0,0.0,0.0,5.1308,5.1286,0.0,0.0,4.9392,4.9218,4.7824,4.7237,4.724,4.7509,4.7605,4.7663,4.8509,4.9067,4.9452,4.9952,5.0356,5.0702,5.0702,5.0702,5.0702,5.0702,0.0,0.0,0.0,5.0702,5.0702,5.0702,5.0702,5.0702,0.0,5.0702,5.0702,5.0702,5.0702,5.0702,5.0702,5.0702,5.0702,5.0702,5.0702,5.0702,5.0702,5.0702,5.0702,5.0702,5.0702,5.0702,5.0702,5.0702,5.0702,5.0702,5.0702,5.0702,5.0702,5.0702,5.0702,5.0702,5.0702,5.0721,5.0779,5.0875,5.0977,5.1139,5.1554,5.207,5.2715,5.4473,5.5508,5.5898,5.6387,5.6601,5.6601,5.6601,5.6601,5.6601,5.6601,5.6601,5.6601,5.6601,5.6601,5.6582,5.6523,5.6973,5.7713,0.0,0.0,0.0,0.0,0.0,0.0,0.0,0.0,0.0,0.0,0.0,0.0,0.0,0.0,0.0,0.0,0.0,0.0,0.0,0.0,0.0,5.1406,5.1406,5.1406,5.1406,5.1406,5.1406,5.1406,0.0,0.0,5.1352,5.1242,5.1164,0.0,5.026,4.9856,0.0,0.0,0.0,4.826,4.8394,4.8432,4.8509,4.9278,4.9584,4.9661,5.0314,5.0544,0.0,0.0,5.0702,5.0702,5.0702,5.0702,0.0,0.0,0.0,5.0702,0.0,0.0,5.0702,5.0702,5.0702,5.0702,0.0,0.0,5.0702,0.0,5.0702,5.0702,5.0702,5.0702,5.0702,5.0702,5.0702,5.0702,5.0702,5.0702,5.0702,5.0702,5.0702,5.0702,5.0702,5.0702,5.0702,5.0702,5.0702,5.0702,5.0702,5.0702,5.0702,5.0702,5.0818,5.0914,5.1049,5.1141,5.1699,5.2715,5.4023,5.4863,5.5312,5.5976,5.6387,5.6601,5.6601,5.6601,5.6601,5.6601,5.6601,5.6601,5.6601,5.6601,5.6601,5.6601,5.6914,5.7461,0.0,0.0,0.0,0.0,0.0,0.0,0.0,0.0,0.0,0.0,0.0,0.0,0.0,5.1105,5.1133,5.1209,5.1211,5.1269,5.1387,5.1406,5.1406,5.1406,5.1406,0.0,5.1406,5.1406,5.1406,0.0,0.0,0.0,5.1201,5.1183,5.1106,5.0895,5.001,4.9605,4.9528,0.0,0.0,0.0,0.0,4.9336,0.0,0.0,0.0,5.0078,0.0,0.0,0.0,0.0,0.0,0.0,0.0,5.0702,5.0702,0.0,0.0,0.0,0.0,5.0702,0.0,5.0702,5.0702,5.0702,0.0,0.0,5.0702,5.0702,5.0702,5.0702,5.0702,5.0702,5.0702,5.0702,5.0702,5.0702,5.0702,5.0702,5.0702,5.0702,5.0702,5.0702,5.0702,5.0702,5.0702,5.0702,5.0702,5.0702,5.0702,5.0702,5.0702,5.0702,5.0702,5.076,5.0914,5.1103,5.1699,5.2695,5.2793,5.3691,5.5293,5.5351,5.582,5.6601,5.6601,5.6601,5.6601,5.6601,5.6601,5.6601,5.6601,5.6601,5.6601,5.6601,5.6621,5.6758,0.0,0.0,0.0,0.0,0.0,0.0,0.0,0.0,0.0,0.0,0.0,0.0,0.0,5.1049,5.1063,5.1005,5.1092,5.1167,5.1206,5.1206,5.1206,5.1206,5.126,5.1269,5.1269,5.1367,5.1351,0.0,0.0,5.1231,5.1133,5.1061,5.0972,5.0895,5.0568,5.0394,5.0279,4.9913,0.0,0.0,0.0,0.0,0.0,0.0,0.0,0.0,0.0,0.0,0.0,0.0,0.0,0.0,0.0,0.0,0.0,0.0,0.0,0.0,0.0,0.0,0.0,5.0702,5.0702,5.0702,5.0702,5.0702,5.0702,5.0702,5.0702,5.0702,5.0702,5.0702,5.0702,5.0702,5.0702,5.0702,5.0702,5.0702,5.0702,5.0702,5.0702,5.0702,5.0702,5.0702,5.0702,5.0702,5.0702,5.0702,5.0702,5.0702,5.0702,5.0702,5.0702,5.0818,5.1029,5.1141,5.1426,5.1875,5.2422,5.3027,5.3672,5.4785,5.5469,5.5801,5.6367,5.6601,5.6601,5.6601,5.6601,5.6601,5.6601,5.6601,5.6601,5.6601,5.6601,5.6719,0.0,0.0,0.0,0.0,0.0,0.0,0.0,0.0,0.0,0.0,0.0,0.0,0.0,0.0,5.0952,5.0914,5.1018,5.1102,5.1102,5.1102,5.1102,5.1102,5.115,5.1166,5.1167,5.1519,5.1542,0.0,0.0,0.0,0.0,5.0945,5.0895,5.0837,5.0837,5.0779,0.0,0.0,0.0,5.0663,0.0,0.0,5.0043,0.0,0.0,0.0,0.0,0.0,0.0,0.0,0.0,0.0,0.0,0.0,0.0,0.0,0.0,0.0,5.0313,0.0,0.0,0.0,5.0604,5.0702,5.0702,5.0702,5.0702,5.0702,5.0702,5.0702,5.0702,5.0702,5.0702,5.0702,5.0702,5.0702,5.0702,5.0702,5.0702,5.0702,5.0702,5.0702,5.0702,5.0702,5.0702,5.0702,5.0702,5.0702,5.0702,5.0702,5.0702,5.0702,5.0702,5.0837,5.1106,5.1131,5.126,5.1406,5.1992,5.2422,5.2734,5.3906,5.4746,5.5332,5.5918,5.6328,5.6601,5.6601,5.6601,5.6601,5.6601,5.6601,5.6601,5.6601,5.6601,5.668,0.0,0.0,0.0,0.0,0.0,0.0,0.0,0.0,0.0,5.0702,0.0,0.0,0.0,0.0,0.0,5.0895,5.101,5.1087,5.1087,5.1087,5.1087,5.1087,5.1087,5.109,5.1093,5.1861,5.188,5.1103,5.1879,5.1799,0.0,0.0,5.0837,5.0702,5.0702,5.0702,5.0702,0.0,5.0702,5.0663,0.0,5.0068,4.9999,0.0,0.0,0.0,4.8897,4.8897,0.0,4.9326,0.0,0.0,0.0,0.0,0.0,0.0,0.0,0.0,0.0,0.0,0.0,0.0,0.0,0.0,5.0702,0.0,5.0702,5.0702,5.0702,5.0702,5.0702,5.0702,5.0702,5.0702,5.0702,5.0702,5.0702,5.0702,5.0702,5.0702,5.0702,5.0702,5.0702,5.0702,5.0702,5.0702,5.0702,5.0702,5.0702,5.0702,5.0702,5.0702,5.0702,5.0837,5.1087,5.1089,5.12,5.1387,5.1387,5.1836,5.2656,5.2695,5.3613,5.5234,5.5273,5.5781,5.6562,5.6582,5.6601,5.6601,5.6601,5.6601,5.6601,5.6601,5.6601,5.6601,0.0,0.0,0.0,0.0,0.0,0.0,5.0702,5.0702,5.0702,0.0,0.0,0.0,5.0702,5.0702,5.0702,5.0741,5.0779,5.0818,5.0818,5.0818,5.0818,5.0818,5.0914,5.0952,5.096,5.1269,5.1269,5.096,5.1182,5.1106,5.076,5.076,5.0741,0.0,5.0702,5.0702,5.0702,5.0702,0.0,5.0624,4.9949,4.9664,0.0,0.0,0.0,0.0,0.0,4.8458,4.8477,0.0,4.864,4.864,0.0,0.0,0.0,0.0,0.0,0.0,4.9853,0.0,0.0,0.0,0.0,0.0,0.0,0.0,5.0702,5.0702,5.0702,5.0702,5.0702,5.0702,5.0702,5.0702,5.0702,5.0702,5.0702,5.0702,5.0702,5.0702,5.0702,5.0702,5.0702,5.0702,5.0702,0.0,5.0702,5.0702,5.0702,5.0702,5.0702,5.0702,5.0702,5.0779,5.0952,5.0966,5.1059,5.1269,5.1269,5.1426,5.1777,5.2402,5.2969,5.3496,5.4746,5.5449,5.5703,5.6348,5.6601,5.6601,5.6601,5.6601,5.6601,5.6601,5.6601,5.6601,0.0,0.0,0.0,0.0,0.0,5.0702,5.0702,5.0702,5.0702,0.0,0.0,0.0,5.0702,5.0702,5.0702,5.0702,5.0702,5.0702,5.0702,5.0702,5.0702,5.0702,5.076,5.0837,5.0837,5.1202,5.1221,5.0837,5.1144,5.1106,5.0702,5.0702,5.0702,5.0702,0.0,0.0,0.0,0.0,0.0,0.0,4.9561,0.0,0.0,4.855,4.8306,0.0,0.0,0.0,4.8306,4.8306,4.8306,0.0,0.0,0.0,0.0,0.0,0.0,0.0,0.0,0.0,0.0,0.0,0.0,0.0,5.0702,5.0702,5.0702,5.0702,5.0702,5.0702,5.0702,5.0702,5.0702,5.0702,5.0702,5.0702,5.0702,5.0702,5.0702,5.0702,5.0702,5.0702,5.0702,5.0702,5.0702,5.0702,5.0702,5.0702,5.0702,5.0702,5.0702,5.0702,5.0702,5.076,5.0914,5.0902,5.0992,5.1195,5.1196,5.1269,5.1426,5.1933,5.2363,5.2754,5.3769,5.4629,5.5332,5.5859,5.6269,5.6601,5.6601,5.6601,5.6601,5.6601,5.6601,5.6601,0.0,0.0,5.0702,5.0702,5.0702,5.0702,5.0702,5.0702,5.0702,0.0,5.0702,5.0702,5.0702,5.0702,5.0702,5.0702,5.0702,5.0702,5.0702,5.0702,5.0702,5.0702,5.0702,5.0702,5.0702,5.1395,5.1414,5.0702,5.1414,5.1395,5.0702,5.0702,5.0683,5.0624,0.0,0.0,0.0,0.0,0.0,4.9924,4.9234,4.893,0.0,0.0,4.8306,4.8306,4.8306,4.8306,4.8306,4.8306,4.8306,0.0,0.0,0.0,0.0,0.0,4.8306,0.0,0.0,0.0,0.0,0.0,0.0,0.0,5.0683,5.0702,5.0702,5.0702,5.0702,5.0702,5.0702,5.0702,5.0702,5.0702,5.0702,5.0702,5.0702,5.0702,5.0702,5.0702,5.0702,5.0702,5.0702,5.0702,5.0702,5.0702,5.0702,5.0702,5.0702,5.0702,5.0702,5.0702,5.0702,5.076,5.0895,5.0895,5.0991,5.1183,5.1186,5.1268,5.1387,5.1387,5.1816,5.2558,5.2656,5.3574,5.5039,5.5215,5.5801,5.6601,5.6601,5.6601,5.6601,5.6601,5.6601,5.6601,0.0,0.0,5.0702,5.0702,5.0702,5.0702,5.0702,5.0702,5.0702,5.0702,5.0702,5.0702,5.0702,5.0702,5.0702,5.0702,5.0702,5.0702,5.0702,5.0702,5.0702,5.0702,5.0702,5.0702,5.0702,5.0837,5.0856,5.0702,5.0856,5.0837,5.0702,5.0702,5.0544,5.0225,0.0,0.0,0.0,0.0,0.0,4.9139,4.9326,0.0,4.8863,4.8458,4.8306,4.8306,4.8306,4.8306,4.8306,4.8306,4.8306,4.8306,0.0,0.0,0.0,4.8306,0.0,0.0,0.0,0.0,0.0,0.0,0.0,0.0,5.0624,5.0702,5.0702,5.0702,5.0702,5.0702,5.0702,5.0702,5.0702,5.0702,5.0702,5.0702,5.0702,5.0702,5.0702,5.0702,5.0702,5.0702,5.0702,5.0702,5.0702,5.0702,5.0702,5.0702,5.0702,5.0702,5.0702,5.0702,5.0702,5.0702,5.0741,5.0741,5.0818,5.0952,5.1066,5.1157,5.123,5.1348,5.1484,5.1699,5.2402,5.2891,5.332,5.4726,5.5801,5.6601,5.6601,5.6601,5.6601,5.6601,5.6601,5.6601,0.0,0.0,5.0702,5.0702,5.0702,5.0702,5.0702,5.0702,5.0702,5.0702,5.0702,5.0702,5.0702,5.0702,5.0702,5.0702,5.1068,5.1298,5.1298,5.1702,5.1952,5.1952,5.1952,5.1952,5.1952,5.1952,5.1952,5.1952,5.1952,5.1952,5.1933,5.1289,5.0887,5.0664,0.0,0.0,0.0,0.0,4.8963,4.864,4.8813,0.0,4.8568,4.8364,4.8306,4.8306,4.8306,4.8306,4.8306,4.8306,4.8306,0.0,0.0,4.8306,4.8306,0.0,4.8306,4.8402,0.0,0.0,0.0,4.9645,0.0,0.0,0.0,5.0399,5.0462,5.0663,5.0702,5.0702,5.0702,5.0702,5.0702,5.0702,5.0702,5.0702,5.0702,5.0702,5.0702,5.0702,5.0702,5.0702,5.0702,5.0702,5.0702,5.0702,5.0702,5.0702,5.0702,5.0702,5.0702,5.0702,5.0702,5.0702,5.0702,5.0702,5.076,5.0895,5.0971,5.1064,5.1191,5.1269,5.1348,5.1426,5.1855,5.2305,5.2773,5.3633,5.4765,5.5996,5.6426,5.6601,5.6601,5.6601,5.6601,5.6601,0.0,0.0,5.0702,5.0702,5.0702,5.0702,5.0702,5.0702,5.076,5.0914,5.1068,5.1183,5.1183,5.1124,0.0,0.0,5.1576,5.1941,5.2022,5.2696,5.3121,5.3203,5.3203,5.3203,5.3203,5.3203,5.3203,5.3203,5.3203,5.3142,5.3061,5.2026,5.1447,5.1258,0.0,0.0,0.0,0.0,0.0,4.8545,0.0,4.8453,4.8306,4.8306,4.8306,4.8306,4.8306,4.8306,4.8306,4.8306,4.8306,4.8306,4.8306,4.8306,0.0,0.0,0.0,0.0,0.0,0.0,0.0,0.0,0.0,4.9475,0.0,0.0,0.0,5.0504,0.0,0.0,0.0,0.0,0.0,5.0702,0.0,0.0,0.0,5.0702,0.0,5.0702,5.0702,5.0702,5.0702,5.0702,5.0702,5.0702,5.0702,5.0702,5.0702,5.0702,5.0702,5.0702,5.0702,5.0702,5.0702,5.0702,5.0741,5.0875,5.0895,5.1009,5.1183,5.1188,5.1269,5.1406,5.1406,5.1797,5.2461,5.2637,5.3535,5.4902,5.5937,5.6445,5.6601,5.6601,5.6601,5.6601,5.0991,5.0702,0.0,5.0702,5.0702,5.0702,5.0702,5.0702,5.0952,5.1683,5.2452,5.2914,0.0,0.0,0.0,0.0,0.0,0.0,5.2476,0.0,5.2839,5.3182,5.3203,5.3203,5.3203,5.3203,5.3203,5.3203,5.3203,5.3015,5.2654,5.2533,5.202,0.0,5.1164,0.0,0.0,0.0,5.0204,0.0,4.9426,4.8985,0.0,4.8306,4.8306,4.8306,4.8306,4.8306,4.8306,0.0,4.8306,4.8306,0.0,4.8306,4.8306,4.8306,0.0,0.0,0.0,0.0,0.0,0.0,4.8963,0.0,0.0,0.0,4.9692,5.0092,0.0,0.0,0.0,0.0,0.0,0.0,0.0,0.0,5.0702,5.0702,5.0702,5.0702,5.0702,5.0702,5.0702,5.0702,5.0702,5.0702,5.0702,5.0702,5.0702,5.0702,5.0702,5.0702,5.0702,5.0702,5.0702,5.0702,5.0702,5.0721,5.0856,5.0971,5.1095,5.1171,5.1269,5.1406,5.1406,5.1465,5.1601,5.2383,5.2812,5.3164,5.4805,5.5918,5.6601,5.6601,5.6601,5.6601,5.2299,5.2145,0.0,0.0,5.2145,5.2145,5.2145,5.2145,5.2279,5.2606,5.2972,5.3203,0.0,0.0,0.0,0.0,0.0,5.3006,0.0,0.0,0.0,5.4298,5.454,5.4645,5.4645,5.4411,5.4298,5.4298,5.4058,5.385,5.3707,5.2956,5.2405,0.0,5.1343,0.0,5.0802,0.0,5.0618,0.0,0.0,0.0,0.0,4.8673,4.8306,4.8306,4.8306,4.8306,4.8306,0.0,4.8306,0.0,0.0,0.0,0.0,0.0,0.0,0.0,0.0,0.0,0.0,0.0,0.0,0.0,4.9043,0.0,4.9265,0.0,0.0,0.0,0.0,0.0,0.0,0.0,5.0702,0.0,0.0,0.0,5.0702,5.0702,0.0,0.0,5.0702,5.0702,5.0702,5.0702,5.0702,5.0702,5.0702,5.0702,5.0702,5.0702,5.0702,5.0702,5.0702,5.0702,5.0702,5.0702,5.076,5.0856,5.0991,5.1102,5.1191,5.1289,5.1367,5.1406,5.1426,5.1797,5.2246,5.2773,5.3516,5.4629,5.5918,5.6406,5.6601,5.6601,5.3895,0.0,0.0,0.0,5.3203,5.3203,5.3203,5.3395,5.3568,5.3568,0.0,0.0,5.3895,5.3686,0.0,0.0,5.3451,5.356,0.0,0.0,5.48,0.0,0.0,0.0,5.5375,5.5088,5.4952,5.4952,5.464,5.442,5.4288,5.3361,5.2847,5.2716,0.0,5.1463,5.1463,0.0,5.1334,5.1114,5.0913,5.0581,5.0089,4.9069,4.8508,4.8306,4.8306,4.8306,4.8306,4.8306,4.8306,0.0,4.8306,0.0,0.0,0.0,0.0,0.0,4.8306,0.0,0.0,0.0,0.0,0.0,0.0,0.0,0.0,0.0,0.0,0.0,0.0,0.0,0.0,0.0,0.0,5.0702,0.0,5.0702,0.0,0.0,0.0,0.0,0.0,5.0202,5.0337,5.0337,5.0548,5.0702,5.0702,5.0702,5.0702,5.0702,5.0702,5.0702,5.0702,5.0702,5.0702,5.0702,5.0702,5.076,5.0895,5.0996,5.1109,5.1211,5.1308,5.1367,5.1406,5.1406,5.1777,5.2363,5.2617,5.3476,5.4726,5.582,5.6387,5.6601,5.5607,5.4318,0.0,0.0,0.0,5.3203,5.3203,0.0,0.0,0.0,0.0,0.0,0.0,0.0,0.0,0.0,0.0,5.3385,5.374,0.0,5.4048,0.0,0.0,5.4535,0.0,5.4535,5.4535,5.4535,5.4503,5.4255,5.3814,5.3777,5.3549,5.317,5.3151,5.3133,5.3133,5.3133,5.2674,5.1899,5.1193,5.0026,4.8844,0.0,4.9022,4.8306,4.8306,0.0,0.0,4.8306,4.8306,0.0,0.0,0.0,0.0,0.0,0.0,0.0,0.0,0.0,0.0,4.8306,0.0,0.0,0.0,0.0,4.9011,0.0,0.0,0.0,0.0,0.0,0.0,0.0,0.0,0.0,0.0,0.0,0.0,0.0,0.0,0.0,0.0,4.8952,4.9433,4.9433,5.0221,5.0702,5.0702,5.0702,5.0702,5.0702,5.0702,5.0702,5.0702,5.0702,5.0702,5.0702,5.0702,5.076,5.0914,5.0895,5.1016,5.1191,5.1191,5.1289,5.1406,5.1406,5.1426,5.1523,5.2363,5.2734,5.2988,5.4707,5.5879,5.6601,0.0,0.0,0.0,0.0,0.0,0.0,0.0,5.5107,0.0,0.0,5.5134,0.0,0.0,5.464,5.4355,0.0,0.0,5.3545,5.3422,5.3663,0.0,0.0,0.0,5.4503,0.0,0.0,0.0,5.4048,5.3777,5.3563,5.3381,5.3381,5.3336,5.3206,0.0,5.3206,0.0,0.0,0.0,0.0,0.0,5.0439,4.9475,0.0,4.8808,4.8486,4.803,4.8073,0.0,4.7897,4.7977,4.8306,4.8306,4.8306,4.8306,4.8306,4.8306,4.8306,0.0,0.0,4.8306,4.8306,0.0,0.0,0.0,0.0,0.0,0.0,0.0,0.0,0.0,0.0,0.0,0.0,0.0,0.0,0.0,0.0,0.0,0.0,0.0,0.0,0.0,0.0,4.9394,4.9394,5.0202,5.0702,5.0702,5.0702,5.0702,5.0702,5.0702,5.0702,5.0702,5.0702,5.0702,5.0702,5.0702,5.0721,5.076,5.0875,5.0943,5.1011,5.1144,5.123,5.1269,5.1367,5.1406,5.1426,5.1719,5.2187,5.2832,5.4004,5.498,5.582,5.5703,0.0,0.0,0.0,0.0,0.0,0.0,0.0,0.0,0.0,5.4979,0.0,5.4535,0.0,5.4118,0.0,5.3663,5.3484,5.3206,5.3444,0.0,5.3604,5.3888,0.0,0.0,0.0,0.0,0.0,0.0,5.3206,5.3206,5.3206,5.3206,5.3206,0.0,5.3042,5.2769,5.2271,5.1952,0.0,0.0,5.0274,0.0,0.0,4.875,4.8664,0.0,4.8235,4.844,4.7698,4.7861,4.832,4.8068,4.8132,4.8306,4.8306,4.8306,4.8306,4.8306,4.8306,0.0,4.8306,4.8306,0.0,4.8306,0.0,4.8513,0.0,0.0,0.0,0.0,0.0,0.0,0.0,0.0,0.0,0.0,4.9952,0.0,0.0,0.0,0.0,0.0,4.8182,4.8759,4.9356,4.9913,5.0356,5.0664,5.0702,5.0702,5.0702,5.0702,5.0702,5.0702,5.0702,5.0702,5.0702,5.0702,5.0702,5.0702,5.0779,5.0856,5.0914,5.1044,5.1113,5.1172,5.1289,5.1328,5.1328,5.1387,5.1738,5.2344,5.3223,5.4297,5.5371,0.0,0.0,0.0,0.0,5.5662,0.0,0.0,0.0,5.5061,0.0,5.4701,5.4471,5.4439,5.4013,5.3777,5.3777,5.3422,5.3206,5.3206,5.3206,0.0,0.0,5.3206,5.3206,5.3206,0.0,0.0,0.0,0.0,0.0,5.3206,5.3206,5.3206,0.0,5.3206,0.0,5.2112,5.2047,5.1643,5.0929,5.0241,4.9563,4.9001,4.9001,4.8902,4.8741,4.8688,4.8688,4.8664,4.7855,4.8021,4.8442,4.7692,4.7852,4.8323,4.8324,4.8306,4.8306,4.8306,4.8306,4.8306,4.8306,4.8306,0.0,0.0,0.0,4.8863,0.0,0.0,0.0,0.0,0.0,0.0,0.0,0.0,0.0,0.0,0.0,4.9086,0.0,0.0,0.0,0.0,4.6913,4.7625,4.9221,4.9375,4.9779,0.0,5.0644,5.0644,5.0702,5.0702,5.0702,5.0702,5.0702,5.0702,5.0702,5.0702,5.0702,5.0702,5.0702,5.076,5.0895,5.0914,5.0972,5.1092,5.117,5.1191,5.1211,5.1348,5.1387,5.1504,5.2383,5.375,5.5176,5.5703,5.5466,5.5237,0.0,5.5237,5.5237,0.0,0.0,0.0,0.0,5.403,5.387,5.3563,5.344,5.3359,5.3359,5.3272,0.0,0.0,0.0,0.0,5.3206,5.3206,5.3206,5.3206,5.3206,0.0,5.3206,0.0,0.0,5.3206,5.3206,5.3206,0.0,0.0,5.2769,5.2065,5.1544,5.0662,4.9521,4.9316,4.9152,4.9001,0.0,4.8974,4.8829,4.8282,4.874,4.9376,4.8085,4.8466,4.9253,4.8478,4.8312,4.8436,4.8336,4.8306,4.8306,4.8306,4.8306,4.8306,4.8306,4.8306,4.8306,0.0,0.0,0.0,0.0,0.0,0.0,0.0,0.0,0.0,0.0,0.0,0.0,0.0,0.0,0.0,4.8202,0.0,0.0,4.6047,4.7067,4.7971,4.8394,4.9029,4.9779,5.0644,5.0087,5.0029,5.0664,5.0702,5.0702,5.0702,5.0702,5.0702,5.0702,5.0702,5.0702,5.0702,5.0702,5.0721,5.076,5.0875,5.0908,5.0961,5.1078,5.115,5.1191,5.123,5.1308,5.1504,5.2383,5.2988,5.3555,5.5703,0.0,0.0,5.4895,0.0,0.0,5.4838,5.4484,0.0,5.3832,5.3663,0.0,5.3248,5.3206,5.3206,5.3206,5.3206,0.0,5.3206,0.0,0.0,5.3206,5.3206,5.3206,5.3206,5.3206,0.0,5.3206,0.0,0.0,5.3206,5.3206,0.0,0.0,0.0,5.2617,5.1593,5.0626,4.9739,4.9001,4.9001,4.9001,0.0,4.9001,4.9001,4.8951,4.8545,4.8863,4.9361,4.8186,4.8679,4.9645,4.8858,4.901,4.944,4.8998,4.8857,4.8783,4.8398,4.8306,4.8306,4.8306,4.8306,4.8306,4.8306,4.8306,4.8306,0.0,4.8477,4.8621,0.0,0.0,0.0,0.0,0.0,0.0,0.0,0.0,0.0,0.0,4.8336,0.0,4.6297,4.7336,4.8105,4.8105,4.8548,4.9202,0.0,4.9663,4.9798,5.0664,5.0702,5.0702,5.0702,5.0702,5.0702,5.0702,5.0702,5.0702,5.0702,5.0702,5.0702,5.0702,5.0779,5.0818,5.0837,5.0972,5.1033,5.1078,5.1162,5.125,5.1387,5.1933,5.2363,5.2832,5.564,0.0,0.0,0.0,0.0,0.0,0.0,5.3996,0.0,5.372,0.0,5.3206,5.3206,5.3206,5.3206,5.3206,0.0,5.3206,5.3206,5.3206,5.3206,5.3206,5.3206,5.3206,5.3206,5.3206,5.3206,0.0,0.0,0.0,5.3206,5.3206,0.0,0.0,0.0,0.0,0.0,4.958,4.9001,4.9001,4.9001,4.9001,4.9001,4.9001,4.9001,4.9001,4.9001,4.9063,4.9006,4.8274,4.8872,4.9799,4.9023,4.9683,5.0542,4.9819,4.968,4.9554,4.871,4.8471,4.8434,4.8343,4.8306,4.8306,4.8306,4.8306,4.8306,4.8306,4.8306,4.8306,0.0,0.0,0.0,0.0,0.0,0.0,0.0,0.0,0.0,0.0,0.0,0.0,4.7144,4.7586,4.7952,4.7952,4.7952,0.0,0.0,0.0,4.9683,5.0664,5.0702,5.0702,5.0702,5.0702,5.0702,5.0702,5.0702,5.0702,5.0702,5.0702,5.0702,5.0702,5.0702,5.0702,5.0702,5.0837,5.0895,5.0912,5.1108,5.1187,5.1191,5.1328,5.1855,5.2519,0.0,0.0,0.0,0.0,0.0,5.344,5.344,5.3378,5.3295,5.3295,5.323,5.3206,5.3206,5.3206,5.3206,5.3206,5.3206,0.0,0.0,0.0,0.0,5.3206,5.3206,5.3206,5.3206,5.3206,5.3206,0.0,0.0,0.0,5.3206,5.3206,0.0,0.0,0.0,0.0,5.0981,4.958,0.0,4.9001,4.9001,4.9001,4.9001,4.9001,4.9001,4.9001,4.9001,4.9359,4.9705,4.9059,4.9316,4.9855,4.9035,4.9363,4.9995,4.974,5.0119,5.0398,4.9572,4.9352,4.9187,4.8489,4.8306,4.8306,4.8306,4.8306,4.8306,4.8306,4.8306,4.8306,4.8306,0.0,0.0,0.0,0.0,0.0,0.0,0.0,0.0,0.0,0.0,4.9264,0.0,0.0,0.0,4.7105,4.7105,4.7778,4.9317,0.0,4.9067,0.0,5.0702,5.0702,0.0,0.0,5.0702,5.0702,5.0702,5.0702,5.0702,5.0702,5.0702,5.0702,5.0702,5.0702,5.0702,5.0721,5.0818,5.0914,5.1057,5.1123,5.1113,5.1133,5.1289,5.1582,0.0,0.0,0.0,0.0,0.0,0.0,0.0,5.3206,5.3206,5.3206,5.3206,5.3206,5.3206,5.3206,5.3206,5.3206,5.3206,5.3206,5.3206,5.3206,5.3206,5.3206,5.3206,5.3206,5.3206,5.3206,5.3206,5.3206,0.0,5.3206,5.3206,5.3206,0.0,5.2599,0.0,5.1138,0.0,0.0,0.0,4.9001,4.9001,4.9001,4.9001,4.9001,4.9001,4.9001,4.9001,4.9212,4.9402,4.9107,4.9479,4.9907,4.9526,4.9957,5.0498,5.0347,5.056,5.0757,5.0336,5.0215,5.0013,4.9169,4.8967,4.8857,4.8398,4.8306,4.8306,4.8306,4.8306,4.8306,4.8306,4.8458,0.0,0.0,0.0,0.0,0.0,0.0,0.0,0.0,0.0,0.0,0.0,0.0,0.0,0.0,0.0,4.8067,4.9336,4.899,4.9375,0.0,0.0,0.0,5.0702,0.0,5.0702,5.0702,5.0702,5.0702,5.0702,5.0702,5.0702,5.0702,5.0702,5.0702,5.0702,5.0702,5.0741,5.0818,5.0952,5.1003,5.1006,5.1064,5.1123,5.1219,0.0,5.4032,0.0,0.0,5.3444,5.3584,5.323,5.3353,5.339,5.3225,5.3206,5.3206,5.3206,5.3206,5.3206,5.3206,5.3206,5.3206,5.3206,5.3206,5.3206,5.3206,5.3042,5.2999,5.2999,5.2831,5.2743,0.0,0.0,0.0,0.0,5.3121,0.0,0.0,0.0,0.0,0.0,0.0,4.9001,4.9001,4.9001,4.9001,4.9001,4.9001,4.9001,4.9001,4.9001,4.9001,4.9001,4.9001,4.9359,4.978,4.978,5.0297,5.0858,5.0762,5.0922,5.1103,5.0897,5.0941,5.0857,5.005,4.9719,4.9407,4.8728,4.8434,4.8306,4.8306,4.8306,4.8306,4.8306,4.8306,0.0,0.0,0.0,0.0,0.0,0.0,0.0,0.0,0.0,0.0,4.8916,0.0,0.0,0.0,4.826,4.849,4.9356,4.9394,4.9798,5.0664,0.0,5.0702,5.0702,0.0,5.0702,5.0702,5.0702,5.0702,5.0702,5.0702,5.0702,5.0702,5.0702,5.0702,5.0702,5.0702,5.0702,5.0702,5.0837,5.0875,5.0875,5.0991,5.1029,5.1083,0.0,0.0,0.0,0.0,0.0,5.323,5.3206,5.383,5.4032,5.3316,5.3206,5.3206,5.3206,5.3206,5.3206,5.3206,5.3206,5.3206,5.3206,5.3206,5.3206,5.3206,5.2554,5.2206,5.2206,5.1611,5.131,0.0,0.0,5.2206,0.0,5.2893,0.0,0.0,0.0,0.0,0.0,4.9256,4.9001,4.9001,4.9001,4.9001,4.9001,4.9001,4.9001,4.9001,4.9001,4.9001,4.9001,4.9001,4.9063,4.9107,4.9107,4.958,5.0111,5.0098,5.1014,5.1824,5.1076,5.1395,5.1683,5.0894,5.0123,4.9554,4.9481,4.8857,4.8306,4.8306,4.8306,4.8306,4.8306,4.8306,4.8306,0.0,0.0,0.0,0.0,0.0,4.855,4.893,0.0,0.0,4.939,4.8979,0.0,0.0,4.8795,4.849,4.9356,4.9394,4.9798,5.0664,5.0702,5.0702,5.0702,5.0702,5.0702,5.0702,5.0702,5.0702,5.0702,5.0702,5.0702,5.0702,5.0702,5.0702,5.0702,5.0702,5.0702,5.0702,5.0702,5.0721,5.0721,5.0721,5.0818,5.0914,0.0,0.0,0.0,0.0,0.0,0.0,0.0,5.4913,5.4987,5.4675,5.4638,5.4638,5.4638,5.4638,5.4454,5.3959,5.3922,5.372,5.3243,5.2787,5.2554,5.2554,5.1856,5.1494,5.1494,5.1241,5.1086,0.0,0.0,0.0,0.0,0.0,0.0,0.0,0.0,4.9419,4.9359,4.9107,4.9001,4.9001,4.9001,4.9001,4.9001,4.9001,4.9001,4.9001,4.9001,4.9001,4.9001,4.9001,4.9001,4.9001,4.9001,4.9152,4.9462,4.9879,5.039,5.0945,5.1461,5.1846,5.197,5.1619,5.1279,5.0894,5.0417,4.9664,4.9077,4.9077,4.8655,4.8306,4.8306,4.8306,4.8306,4.8306,0.0,0.0,0.0,0.0,0.0,4.8513,0.0,4.8692,0.0,4.9202,0.0,0.0,4.933,4.926,5.0125,5.0183,5.0337,5.0683,0.0,5.0702,5.0702,5.0702,5.0702,5.0702,5.0702,5.0702,5.0702,5.0702,5.0702,5.0702,5.0702,5.0702,5.0702,5.0702,5.0702,5.0702,5.0702,5.0702,5.0702,5.0702,5.0721,5.0779,5.5618,0.0,5.5592,0.0,5.5592,5.5592,5.5592,5.5794,5.5941,5.5941,5.6161,5.6124,5.5647,5.5592,5.5354,5.4803,5.4748,5.4509,5.394,5.3217,5.2708,5.2455,5.1578,0.0,5.077,5.0554,5.0462,5.0462,5.0662,0.0,0.0,0.0,0.0,0.0,4.9316,4.9001,4.9001,4.9001,4.9001,4.9001,4.9001,4.9001,4.9001,4.9001,4.9001,4.9001,4.9001,4.9001,4.9001,4.9001,4.9001,4.9001,4.9001,4.9001,4.9107,4.9821,5.0129,5.0608,5.1808,5.2271,5.2409,5.237,5.216,5.1848,5.1279,5.0527,4.9884,4.9627,4.8912,4.8306,4.8306,4.8306,4.8306,4.8306,0.0,0.0,0.0,4.8306,0.0,4.8306,4.8306,4.8421,4.8692,4.9094,0.0,0.0,0.0,4.9931,5.0664,5.0702,5.0702,0.0,0.0,0.0,5.0702,5.0702,5.0702,5.0702,5.0702,5.0702,5.0702,5.0702,5.0702,5.0702,5.0702,5.0702,5.0702,5.0702,5.0702,5.0702,5.0702,5.0702,5.0702,5.0702,5.0702,5.0702,5.5687,5.5592,5.5592,5.5592,5.5592,5.5592,5.5592,5.6271,5.6804,5.6804,5.7483,5.7354,5.5757,5.5592,5.5592,5.5574,5.5574,5.5574,5.5556,5.4887,5.4133,0.0,0.0,5.083,5.005,4.9359,4.9001,4.9001,0.0,0.0,5.0033,0.0,5.0033,4.9976,4.9316,4.9001,4.9001,4.9001,4.9001,4.9001,4.9001,4.9001,4.9001,4.9001,4.9001,4.9001,4.9001,4.9001,4.9001,4.9001,4.9001,4.9001,4.9001,4.9001,4.9107,4.9821,5.05,5.1241,5.1904,5.2617,5.3206,5.3206,5.2582,5.1995,5.1977,5.1353,5.0563,4.9738,4.8912,4.8306,4.8306,4.8306,4.8306,4.8306,0.0,0.0,0.0,4.8306,0.0,4.8306,4.8306,4.8306,4.8306,4.8657,0.0,0.0,0.0,5.0272,5.0683,0.0,0.0,5.0702,5.0702,0.0,5.0702,5.0702,5.0702,5.0702,5.0702,5.0702,5.0702,5.0702,5.0702,5.0702,5.0702,5.0702,5.0702,5.0702,5.0702,5.0702,5.0702,5.0702,5.0702,5.0702,5.0702,5.0702,5.7271,5.7226,5.7226,5.7226,5.7226,5.7226,5.7226,5.7446,5.7611,5.7611,5.7831,5.7795,5.7281,5.6799,5.6255,0.0,5.5155,5.4629,0.0,5.3368,5.2874,5.2611,5.1692,5.0833,5.0066,4.9853,4.9492,4.9001,0.0,0.0,0.0,4.9316,4.9316,4.9316,4.9107,4.9001,4.9001,4.9001,4.9001,4.9001,4.9001,4.9001,4.9001,4.9001,4.9001,4.9001,4.9001,4.9001,4.9001,4.9001,4.9001,4.9001,4.9001,4.9299,4.9722,4.9919,5.05,5.1241,5.1904,5.2271,5.2554,5.3042,5.3023,5.2821,5.2821,5.2197,5.1389,5.0582,4.9756,4.9187,4.9187,4.8691,4.8306,4.8306,4.8306,0.0,4.8306,0.0,4.8306,4.8306,4.8306,4.8306,4.8306,4.8657,0.0,0.0,0.0,0.0,0.0,0.0,0.0,0.0,5.0702,0.0,5.0702,5.0702,5.0702,5.0702,5.0702,5.0702,5.0702,5.0702,5.0702,5.0702,5.0702,5.0702,5.0702,5.0702,5.0702,5.0702,5.0702,5.0702,5.0702,5.0702,5.0702,5.0702,5.7997,5.7997,5.7997,5.7997,5.7997,5.7997,5.7997,5.7997,5.7997,5.7997,5.7997,5.7997,5.7997,5.7047,0.0,5.6158,5.5419,5.473,5.4234,5.3568,5.3047,5.277,5.2021,5.1285,5.0524,5.0236,0.0,4.9407,4.9137,4.9001,4.9001,4.9001,4.9001,4.9001,4.9001,4.9001,4.9001,4.9001,4.9001,4.9001,4.9001,4.9001,4.9001,4.9001,4.9001,4.9001,4.9001,4.9001,4.9001,4.9001,4.9001,4.9001,4.9001,4.9462,4.9976,4.9976,5.05,5.1241,5.1904,5.2271,5.2599,5.3103,5.3206,5.3206,5.3206,5.2582,5.1848,5.1353,5.06,4.9958,4.9646,4.915,4.8673,4.8361,4.8306,4.8306,4.8306,0.0,4.8306,0.0,0.0,4.8306,0.0,4.8513,4.8657,0.0,0.0,0.0,0.0,0.0,5.0702,5.0702,5.0702,5.0702,5.0702,5.0702,5.0702,5.0702,5.0702,5.0702,5.0702,5.0702,5.0702,5.0702,5.0702,5.0702,5.0702,5.0702,5.0702,5.0702,5.0702,5.0702,5.0702,5.0702,5.0702,5.0702,5.7997,5.7997,5.7997,0.0,5.7997,5.7997,5.7997,5.7997,5.7997,5.7932,5.7932,5.7886,5.7839,5.6509,5.5948,5.6668,0.0,0.0,5.5552,5.4922,5.4233,5.3541,5.2806,5.2046,5.1302,5.0591,5.0185,5.0084,4.9357,4.9001,4.9001,4.9001,4.9001,4.9001,4.9001,4.9001,4.9001,4.9001,4.9001,4.9001,4.9001,4.9001,4.9001,4.9001,4.9001,4.9001,4.9001,4.9001,4.9001,4.9001,4.9001,4.9001,4.9001,4.9419,4.9976,5.0033,5.0608,5.1292,5.2,5.2662,5.3206,5.3206,5.3206,5.3206,5.3206,5.2619,5.2068,5.2068,5.1444,5.0655,4.9884,4.9701,4.9389,4.8526,4.8398,4.8379,4.8324,4.8306,4.8306,0.0,0.0,0.0,4.8306,4.8306,4.8306,0.0,0.0,0.0,0.0,0.0,5.0624,5.0663,5.0683,5.0702,5.0702,5.0702,5.0702,5.0702,5.0702,5.0702,5.0702,5.0702,5.0702,5.0702,5.0702,5.0702,5.0702,5.0702,5.0702,5.0702,5.0702,5.0702,5.0702,5.076,5.0779,5.0779,0.0,0.0,5.7997,5.7997,5.7997,5.7997,5.7997,5.7997,5.7792,5.7234,5.7184,5.6946,5.6277,5.5437,5.4939,5.5119,5.4454,5.3994,5.3994,5.3832,5.3698,5.3528,5.3347,5.2858,5.2063,5.1877,5.1234,5.0084,4.9357,4.9001,4.9001,4.9001,4.9001,4.9001,4.9001,4.9001,4.9001,4.9001,4.9001,4.9001,4.9001,4.9001,4.9001,4.9001,4.9001,4.9001,4.9001,4.9001,4.9001,4.9001,4.9001,4.9001,4.9001,4.9107,4.9479,5.05,5.1343,5.2018,5.2725,5.306,5.3206,5.3206,5.3206,5.3206,5.3206,5.3059,5.2931,5.2931,5.2289,5.1646,5.1463,5.093,5.0251,4.9426,4.9279,4.9058,4.8398,4.8306,4.8306,0.0,4.8306,4.8306,4.8306,4.8306,4.8306,0.0,0.0,4.8897,4.8897,4.9475,4.9924,5.0249,5.0544,5.0702,5.0702,5.0702,5.0702,5.0702,5.0702,5.0702,5.0702,5.0702,5.0702,5.0702,5.0702,5.0702,5.0702,5.0702,5.0702,5.0702,5.0702,5.0702,5.076,5.1376,5.1626,5.1703,5.8492,5.8547,5.8657,5.9024,5.8805,5.8523,5.8523,5.7927,5.7366,5.6922,5.66,5.6186,5.5762,5.5042,5.4589,5.4589,5.3946,5.3501,5.3501,5.3501,5.3501,5.3501,5.3501,5.3298,5.2858,5.2486,5.1742,5.0608,4.9864,4.9492,4.9492,4.9171,4.9001,4.9001,4.9001,4.9001,4.9001,4.9001,4.9001,4.9001,4.9001,4.9001,4.9001,4.9001,4.9001,4.9001,4.9001,4.9001,4.9001,4.9001,4.9001,4.9001,4.9001,4.9212,4.9664,5.0787,5.1343,5.1808,5.2509,5.2937,5.3206,5.3206,5.3206,5.3206,5.3206,5.3206,5.3206,5.3206,5.2858,5.2435,5.2068,5.1628,5.1077,5.027,5.0141,4.9848,4.9003,4.8875,4.871,4.8343,4.8306,4.8306,4.8306,4.8306,4.8306,4.8306,4.8513,0.0,4.864,4.9029,4.9504,5.0068,5.0313,5.0504,5.0702,5.0702,5.0702,5.0702,5.0702,5.0702,5.0702,5.1087,5.1241,5.126,5.1664,5.1838,5.1838,5.1838,5.1838,5.1838,5.1838,5.1838,5.1896,5.2339,5.2492,5.2568,5.9263,5.9391,5.9612,6.0291,5.9747,5.9168,5.9168,5.7989,5.7046,5.6929,5.6311,5.5794,5.5572,5.4992,5.4557,5.4437,5.3898,5.3501,5.3501,5.3501,5.3501,5.3501,5.3501,5.3501,5.3501,5.2706,5.1995,5.1386,5.0625,5.0202,5.0084,4.9458,4.912,4.9001,4.9001,4.9001,4.9001,4.9001,4.9001,4.9001,4.9001,4.9001,4.9001,4.9001,4.9001,4.9001,4.9001,4.9001,4.9001,4.9001,4.9001,4.9001,4.9001,4.9462,5.0129,5.0876,5.1189,5.1393,5.2065,5.2707,5.3206,5.3206,5.3206,5.3206,5.3206,5.3206,5.3206,5.3206,5.3206,5.3004,5.2307,5.2179,5.1922,5.1114,5.0986,5.0692,4.9884,0.0,4.9444,4.8765,4.8581,4.8508,4.8508,4.8379,4.8306,4.8306,4.8306,4.8306,4.8306,4.8692,4.9234,4.9993,5.0068,5.0294,5.0702,5.0818,5.0875,5.0875,5.101,5.1068,5.1087,5.1779,5.2106,5.2145,5.2877,5.3186,5.3186,5.3205,5.3205,5.3205,5.3205,5.3205,5.3224,5.334,5.3395,5.3409,6.0199,6.0217,6.0254,6.0382,5.9747,5.9168,5.9168,5.8435,5.7621,5.6923,5.6692,5.6141,5.4887,5.4652,5.4347,5.3719,5.3568,5.3501,5.3501,5.3501,5.3501,5.3501,5.3501,5.3501,5.3501,5.2706,5.2249,5.2131,5.1403,5.071,5.0084,4.9965,4.9593,4.9001,4.9001,4.9001,4.9001,4.9001,4.9001,4.9001,4.9001,4.9001,4.9001,4.9001,4.9001,4.9001,4.9001,4.9001,4.9001,4.9001,4.9001,4.9001,4.9001,4.9462,5.0129,5.0876,5.1494,5.2112,5.2831,5.3103,5.3206,5.3206,5.3206,5.3206,5.3206,5.3206,5.3206,5.3206,5.3206,5.317,5.3041,5.3023,5.2747,5.194,5.1811,5.1518,5.0729,0.0,5.0545,5.0435,4.9811,4.9389,4.9389,4.8728,4.8306,4.8306,4.8306,4.8306,4.8306,4.8692,4.9108,4.9561,4.9924,5.0294,5.0702,5.1375,5.1722,5.1722,5.2472,5.2818,5.2818,5.2953,5.301,5.301,5.3145,5.3203,5.3203,5.32,5.32,5.32,5.32,5.32,5.3296,5.4028,5.4297,5.4391,6.097,6.1043,6.1074,6.1035,6.0393,5.9674,5.9239,5.8113,5.7204,5.6816,5.6474,5.5911,5.5295,5.4837,5.4448,5.411,5.3737,5.3501,5.3501,5.3501,5.3501,5.3501,5.3501,5.3501,5.3501,5.3145,5.2959,5.2959,5.2181,5.1623,5.1268,5.0456,4.9915,4.9576,4.9187,4.9001,4.9001,4.9001,4.9001,4.9001,4.9001,4.9001,4.9001,4.9001,4.9001,4.9001,4.9001,4.9001,4.9001,4.9001,4.9001,4.9001,4.9001,4.9462,5.0129,5.0876,5.1874,5.2769,5.3103,5.3206,5.3206,5.3206,5.3206,5.3206,5.3206,5.3206,5.3206,5.3206,5.3206,5.3206,5.3206,5.3206,5.3096,5.2711,5.2656,5.2362,5.1555,5.1444,5.1279,5.0857,5.0472,5.0251,5.0251,4.9884,4.9646,4.9646,4.9646,4.9646,4.9646,4.9841,5.0099,5.0469,5.0869,5.1387,5.2049,5.2414,5.2606,5.2606,5.301,5.3203,5.3222,5.3683,5.3895,5.3914,5.4357,5.4549,5.4549,5.4547,5.4566,5.4566,5.4566,5.4566,5.4605,5.4989,5.5143,5.5182,6.1455,6.1463,6.1296,6.131,6.0622,5.9896,5.9178,5.7962,5.7053,5.7053,5.6562,5.6156,5.5987,5.5446,5.4955,5.4617,5.4076,5.3687,5.3518,5.3501,5.3501,5.3501,5.3501,5.3501,5.3501,5.3501,5.3501,5.3501,5.2892,5.2486,5.2266,5.0963,5.0253,5.005,4.9323,4.9001,4.9001,4.9001,4.9001,4.9001,4.9001,4.9001,4.9001,4.9001,4.9001,4.9001,4.9001,4.9001,4.9001,4.9001,4.9001,4.9001,4.9001,4.9462,5.0129,5.0876,5.2101,5.3206,5.3206,5.3206,5.3206,5.3206,5.3206,5.3206,5.3206,5.3206,5.3206,5.3206,5.3206,5.3206,5.3206,5.3206,5.3206,5.3206,0.0,5.2986,5.2362,5.227,5.205,5.1426,5.1187,5.1077,5.1077,5.0912,5.0802,5.0802,5.0802,5.0802,5.0802,5.0885,5.1156,5.1703,5.1961,5.2427,5.3203,5.3395,5.351,5.351,5.3683,5.378,5.3799,5.4472,5.478,5.4799,5.5434,5.5703,5.5703,5.5703,5.5703,5.5703,5.5703,5.5703,5.5703,5.5703,5.5703,5.5703,6.1624,6.0984,6.0466,6.0458,5.9768,5.9178,5.9111,5.839,5.7814,5.7814,5.7763,5.7476,5.6799,5.6664,5.6089,5.4718,5.4532,5.4228,5.3551,5.3501,5.3501,5.3501,5.3501,5.3501,5.3501,5.3501,5.3501,5.3501,5.345,5.3044,5.2283,5.1505,5.076,5.005,4.9323,4.9001,4.9001,4.9001,4.9001,4.9001,4.9001,4.9001,4.9001,4.9001,4.9001,4.9001,4.9001,4.9001,4.9001,4.9001,4.9001,4.9001,4.9001,4.9462,5.0129,5.0876,5.2101,5.3206,5.3206,5.3206,5.3206,5.3206,5.3206,5.3206,5.3206,5.3206,5.3206,5.3206,5.3206,5.3206,5.3206,5.3206,5.3206,5.3206,0.0,0.0,5.3133,5.3115,5.3096,5.3041,5.2362,5.1903,5.1903,5.1242,5.0802,5.0802,5.0802,5.0802,5.0802,5.1083,5.1831,5.3013,5.2721,5.2762,5.3203,5.3991,5.4395,5.4414,5.5164,5.5511,5.5511,5.5568,5.5607,5.5607,5.5665,5.5703,5.5703,5.5703,5.5703,5.5703,5.5703,5.5703,5.5703,5.5703,5.5703,5.5703,6.0879,6.0598,6.0211,5.9704,5.9311,5.8925,5.8441,5.8065,5.7881,5.7881,5.7881,5.778,5.7509,5.707,5.6579,5.6004,5.5124,5.4482,5.4194,5.3754,5.3501,5.3501,5.3501,5.3501,5.3501,5.3501,5.3501,5.3501,5.3501,5.3348,5.3027,5.2249,5.1488,5.076,5.0016,4.9424,4.9001,4.9001,4.9001,4.9001,4.9001,4.9001,4.9001,4.9001,4.9001,4.9001,4.9001,4.9001,4.9001,4.9001,4.9001,4.9046,4.9521,4.9763,5.0241,5.1393,5.2399,5.3206,5.3206,5.3206,5.3206,5.3206,5.3206,5.3206,5.3206,5.3206,5.3206,5.3206,5.3206,5.3206,5.3206,5.3206,5.3206,5.3206,0.0,5.3206,5.3206,5.3206,5.3206,5.3206,5.2931,5.2747,5.2747,5.2472,5.2307,5.2307,5.2307,5.2307,5.2307,5.2397,5.2807,5.3527,5.3433,5.3675,5.4369,5.4943,5.5241,5.5241,5.5549,5.5703,5.5703,5.5703,5.5703,5.5703,5.5703,5.5703,5.5703,5.5703,5.5703,5.5703,5.5703,5.5703,5.5703,5.5703,5.5703,5.5703,5.996,5.9786,5.9394,5.8823,5.8755,5.8564,5.801,5.7881,5.7881,5.7881,5.7881,5.7881,5.7881,5.7442,5.7053,5.6816,5.5869,5.5091,5.4617,5.3907,5.3501,5.3501,5.3501,5.3501,5.3501,5.3501,5.3501,5.3501,5.3501,5.3501,5.3484,5.2689,5.2029,5.1505,5.0524,4.9813,4.9323,4.9103,4.9001,4.9001,4.9001,4.9001,4.9001,4.9001,4.9001,4.9001,4.9001,4.9001,4.9001,4.9001,4.9152,4.9419,4.9879,5.0279,5.0858,5.1808,5.2599,5.3206,5.3206,5.3206,5.3206,5.3206,5.3206,5.3206,5.3206,5.3206,5.3206,5.3206,5.3206,5.3206,5.3206,5.3206,5.3206,5.3206,5.3206,5.3206,5.3206,5.3206,5.3206,5.3206,5.3206,5.3206,5.3206,5.3206,5.3206,5.3206,5.3206,5.3206,5.3206,5.3206,5.3336,5.3604,5.374,5.4099,5.4682,5.5237,5.5577,5.5703,5.5703,5.5703,5.5703,5.5703,5.5703,5.5703,5.5703,5.5703,5.5703,5.5703,5.5703,5.5703,5.5703,5.5703,5.5703,5.5703,5.5703,5.5703,5.9111,5.8441,5.7881,5.7881,5.7881,5.7881,5.7881,5.7881,5.7881,5.7881,5.7881,5.7881,5.7881,5.7881,5.7594,5.6867,5.6799,5.6173,5.4685,5.3907,5.3501,5.3501,5.3501,5.3501,5.3501,5.3501,5.3501,5.3501,5.3501,5.3501,5.3484,5.2689,5.2317,5.2232,5.076,5.0101,5.0033,4.9306,4.9001,4.9001,4.9001,4.9001,4.9001,4.9001,4.9001,4.9001,4.9001,4.9001,4.9001,4.9001,4.9479,4.9976,5.0033,5.0964,5.2112,5.2112,5.2617,5.3206,5.3206,5.3206,5.3206,5.3206,5.3206,5.3206,5.3206,5.3206,5.3206,5.3206,5.3206,5.3206,5.3206,5.3206,5.3206,5.3206,5.3206,5.3206,5.3206,5.3206,5.3206,5.3206,5.3206,5.3206,5.3206,5.3206,5.3206,5.3206,5.3206,5.3206,5.3206,5.3206,5.3206,5.3206,5.3604,5.3814,5.3814,5.4682,5.5306,5.5703,5.5703,5.5703,5.5703,5.5703,5.5703,5.5703,5.5703,5.5703,5.5703,5.5703,5.5703,5.5703,5.5703,5.5703,5.5703,5.5703,5.5703,5.5703,5.8263,5.8065,5.7881,5.7881,5.7881,5.7881,5.7881,5.7881,5.7881,5.7881,5.7881,5.7881,5.7881,5.7881,5.7797,5.7577,5.7103,5.6173,5.4685,5.3907,5.3501,5.3501,5.3501,5.3501,5.3501,5.3501,5.3501,5.3501,5.3501,5.3501,5.3501,5.3264,5.2841,5.2266,5.1302,5.0591,5.0033,4.9306,4.9001,4.9001,4.9001,4.9001,4.9001,4.9001,4.9001,4.9001,4.9001,4.9001,4.9001,4.9001,4.9479,5.0185,5.1172,5.2131,5.2875,5.2875,5.3042,5.3206,5.3206,5.3206,5.3206,5.3206,5.3206,5.3206,5.3206,5.3206,5.3206,5.3206,5.3206,5.3206,5.3206,5.3206,5.3206,5.3206,5.3206,5.3206,5.3206,5.3206,5.3206,5.3206,5.3206,5.3206,5.3206,5.3206,5.3206,5.3206,5.3206,5.3206,5.3206,5.3206,5.3206,5.3206,5.3604,5.3941,5.4288,5.4819,5.516,5.5282,5.5577,5.5703,5.5703,5.5703,5.5703,5.5703,5.5703,5.5703,5.5703,5.5703,5.5703,5.5703,5.5703,5.5703,5.5703,5.5703,5.5703,5.5703,5.7881,5.7881,5.7881,5.7881,5.7881,5.7881,5.7881,5.7881,5.7881,5.7881,5.7881,5.7881,5.7881,5.7881,5.7881,5.7881,5.7222,5.6308,5.5108,5.4346,5.3805,5.3518,5.3501,5.3501,5.3501,5.3501,5.3501,5.3501,5.3501,5.3501,5.3501,5.3501,5.3247,5.2739,5.1674,5.0963,5.0473,4.9441,4.9001,4.9001,4.9001,4.9001,4.9001,4.9001,4.9001,4.9001,4.9001,4.9001,4.9001,4.9001,4.9622,5.0662,5.2083,5.2831,5.3206,5.3206,5.3206,5.3206,5.3206,5.3206,5.3206,5.3206,5.3206,5.3206,5.3206,5.3206,5.3206,5.3206,5.3206,5.3206,5.3206,5.3206,5.3206,5.3206,5.3206,5.3206,5.3206,5.3206,5.3206,5.3206,5.3206,5.3206,5.3206,5.3206,5.3206,5.3206,5.3206,5.3206,5.3206,5.3206,5.3206,5.3206,5.3604,5.3941,5.4221,5.4819,5.5186,5.5331,5.5577,5.5703,5.5703,5.5703,5.5703,5.5703,5.5703,5.5703,5.5703,5.5703,5.5703,5.5703,5.5703,5.5703,5.5703,5.5703,5.5703,5.5703,5.7881,5.7881,5.7881,5.7881,5.7881,5.7881,5.7881,5.7881,5.7881,5.7881,5.7881,5.7881,5.7881,5.7881,5.7881,5.7881,5.7222,5.6494,5.5767,5.5006,5.4262,5.3534,5.3501,5.3501,5.3501,5.3501,5.3501,5.3501,5.3501,5.3501,5.3501,5.3501,5.3501,5.345,5.1978,5.1268,5.1133,4.9712,4.9069,4.9001,4.9001,4.9001,4.9001,4.9001,4.9001,4.9001,4.9001,4.9001,4.9001,4.9046,4.9993,5.1343,5.268,5.3164,5.3206,5.3206,5.3206,5.3206,5.3206,5.3206,5.3206,5.3206,5.3206,5.3206,5.3206,5.3206,5.3206,5.3206,5.3206,5.3206,5.3206,5.3206,5.3206,5.3206,5.3206,5.3206,5.3206,5.3206,5.3206,5.3206,5.3206,5.3206,5.3206,5.3206,5.3206,5.3206,5.3206,5.3206,5.3206,5.3206,5.3206,5.3206,5.3604,5.3814,5.3851,5.4682,5.5282,5.564,5.5684,5.5703,5.5703,5.5703,5.5703,5.5703,5.5703,5.5703,5.5703,5.5703,5.5703,5.5703,5.5703,5.5703,5.5703,5.5703,5.5703,5.5703,5.7881,5.7881,5.7881,5.7881,5.7881,5.7881,5.7881,5.7881,5.7881,5.7881,5.7881,5.7881,5.7881,5.7881,5.7881,5.7881,5.7222,5.6494,5.5767,5.5006,5.4262,5.3534,5.3501,5.3501,5.3501,5.3501,5.3501,5.3501,5.3501,5.3501,5.3501,5.3501,5.3501,5.3467,5.2503,5.1742,5.115,5.0236,4.9526,4.9001,4.9001,4.9001,4.9001,4.9001,4.9001,4.9001,4.9001,4.9001,4.9107,4.9622,5.0352,5.1241,5.2083,5.2707,5.3206,5.3206,5.3206,5.3206,5.3206,5.3206,5.3206,5.3206,5.3206,5.3206,5.3206,5.3206,5.3206,5.3206,5.3206,5.3206,5.3206,5.3206,5.3206,5.3206,5.3206,5.3206,5.3206,5.3206,5.3206,5.3206,5.3206,5.3206,5.3206,5.3206,5.3206,5.3206,5.3206,5.3206,5.3206,5.3206,5.3206,5.3206,5.3604,5.3977,5.4355,5.4848,5.5141,5.5237,5.5554,5.5703,5.5703,5.5703,5.5703,5.5703,5.5703,5.5703,5.5703,5.5703,5.5703,5.5703,5.5703,5.5703,5.5703,5.5703,5.5703,5.5703,5.7881,5.7881,5.7881,5.7881,5.7881,5.7881,5.7881,5.7881,5.7881,5.7881,5.7881,5.7881,5.7881,5.7881,5.7881,5.7881,5.7543,5.7019,5.6275,5.553,5.4803,5.4059,5.3687,5.3501,5.3501,5.3501,5.3501,5.3501,5.3501,5.3501,5.3501,5.3501,5.3501,5.3467,5.2655,5.1894,5.1166,5.0405,4.9661,4.9001,4.9001,4.9001,4.9001,4.9001,4.9001,4.9001,4.9001,4.9001,4.9107,4.9763,5.05,5.1241,5.1904,5.2617,5.3206,5.3206,5.3206,5.3206,5.3206,5.3206,5.3206,5.3206,5.3206,5.3206,5.3206,5.3206,5.3206,5.3206,5.3206,5.3206,5.3206,5.3206,5.3335,5.372,5.3775,5.3922,5.4289,5.4344,5.4344,5.4344,5.4344,5.4344,5.4344,5.4344,5.4344,5.4344,5.4344,5.4344,5.4344,5.4344,5.4344,5.4344,5.4714,5.5081,5.5334,5.575,5.6073,5.6289,5.5873,5.5703,5.5703,5.5703,5.5703,5.5703,5.5703,5.5703,5.5703,5.5703,5.5703,5.5703,5.5703,5.5703,5.5703,5.5703,5.5703,5.5703,5.7881,5.7881,5.7881,5.7881,5.7881,5.7881,5.7881,5.7881,5.7881,5.7881,5.7881,5.7881,5.7881,5.7881,5.7881,5.7881,5.7881,5.7577,5.685,5.6122,5.5378,5.4617,5.389,5.3501,5.3501,5.3501,5.3501,5.3501,5.3501,5.3501,5.3501,5.3501,5.3501,5.3467,5.2807,5.2097,5.1352,5.0591,4.9864,4.9187,4.9052,4.9001,4.9001,4.9001,4.9001,4.9001,4.9001,4.9001,4.9107,4.9763,5.05,5.1241,5.1904,5.2617,5.3206,5.3206,5.3206,5.3206,5.3206,5.3206,5.3206,5.3206,5.3206,5.3243,5.339,5.3316,5.3206,5.3206,5.3316,5.3427,5.3427,5.3537,5.383,5.4491,5.4601,5.484,5.55,5.5592,5.5592,5.5592,5.5592,5.5592,5.5592,5.5592,5.5592,5.5592,5.5592,5.5592,5.5592,5.5592,5.5592,5.5592,5.5909,5.6156,5.6215,5.6573,5.7022,5.7472,5.651,5.6006,5.5915,5.5915,5.5838,5.5703,5.5703,5.5703,5.5703,5.5703,5.5703,5.5703,5.5703,5.5703,5.5703,5.5703,5.5703,5.5703,5.7881,5.7881,5.7881,5.7881,5.7881,5.7881,5.7881,5.7881,5.7881,5.7881,5.7881,5.7881,5.7881,5.7881,5.7881,5.7881,5.7881,5.7577,5.685,5.6122,5.5378,5.4617,5.389,5.3501,5.3501,5.3501,5.3501,5.3501,5.3501,5.3501,5.3501,5.3501,5.3501,5.3501,5.3399,5.2909,5.2097,5.1369,5.0642,4.9898,4.9255,4.9001,4.9001,4.9001,4.9001,4.9001,4.9001,4.9001,4.9107,4.9763,5.05,5.1241,5.1904,5.2617,5.3206,5.3206,5.3206,5.3206,5.3206,5.3206,5.3206,5.3206,5.3206,5.339,5.4087,5.3702,5.3206,5.3206,5.3757,5.4234,5.4234,5.4803,5.5299,5.5409,5.5427,5.5464,5.5574,5.5592,5.5592,5.5592,5.5592,5.5592,5.5592,5.5592,5.5592,5.5592,5.5592,5.5592,5.5592,5.5592,5.5592,5.5592,5.5662,5.5863,5.6215,5.6236,5.6537,5.6989,5.7234,5.7149,5.6819,5.6819,5.6395,5.5703,5.5703,5.5703,5.5703,5.5703,5.5703,5.5703,5.5703,5.5703,5.5703,5.5703,5.5703,5.5703,5.7881,5.7881,5.7881,5.7881,5.7881,5.7881,5.7881,5.7881,5.7881,5.7881,5.7881,5.7881,5.7881,5.7881,5.7881,5.7881,5.7881,5.7746,5.7442,5.6731,5.6004,5.526,5.4515,5.3923,5.3518,5.3501,5.3501,5.3501,5.3501,5.3501,5.3501,5.3501,5.3501,5.3501,5.3501,5.3061,5.2283,5.1961,5.115,5.005,4.9746,4.9373,4.9001,4.9001,4.9001,4.9001,4.9001,4.9001,4.9107,4.9763,5.05,5.1241,5.1904,5.2617,5.3206,5.3206,5.3206,5.3206,5.3206,5.3206,5.3316,5.3775,5.3867,5.4087,5.4876,5.4803,5.4546,5.4546,5.4821,5.506,5.506,5.5354,5.5739,5.6198,5.6271,5.6418,5.6877,5.6932,5.6932,5.6932,5.6932,5.6932,5.6932,5.6932,5.6932,5.6932,5.6932,5.6932,5.6932,5.6932,5.6932,5.6932,5.6932,5.7048,5.7193,5.7211,5.745,5.7904,5.8381,5.8147,5.7347,5.7616,5.7511,5.7126,5.6626,5.6415,5.6376,5.5895,5.5703,5.5703,5.5703,5.5703,5.5703,5.5703,5.5703,5.5703]},{"header":{"parameterUnit":"m.s-1","parameterCategory":1,"la1":30.6,"la2":28.766,"lo1":-90.7593,"lo2":-88.6598,"dy":0.0162,"dx":0.0183,"nx":116,"ny":114,"refTime":"2023-04-11T06:00:00:Z","depth":0,"parameterNumber":3,"parameterNumberName":"V-component_of_WINDS"},"data":[0.0,0.0,0.0,0.0,0.0,0.0,0.0,0.0,0.0,0.0,0.0,0.0,0.0,0.0,0.0,0.0,0.0,0.0,0.0,0.0,0.0,0.0,0.0,0.0,0.0,0.0,0.0,0.0,0.0,0.0,0.0,0.0,0.0,0.0,0.0,0.0,0.0,0.0,0.0,0.0,0.0,0.0,0.0,0.0,0.0,0.0,0.0,0.0,0.0,0.0,0.0,0.0,0.0,0.0,0.0,0.0,0.0,0.0,0.0,0.0,0.0,0.0,0.0,0.0,0.0,0.0,0.0,0.0,0.0,0.0,0.0,0.0,0.0,0.0,0.0,0.0,0.0,0.0,0.0,0.0,0.0,0.0,0.0,0.0,0.0,0.0,0.0,0.0,0.0,0.0,0.0,0.0,0.0,0.0,0.0,0.0,0.0,0.0,0.0,0.0,0.0,0.0,0.0,0.0,0.0,0.0,0.0,0.0,0.0,0.0,0.0,0.0,0.0,0.0,0.0,0.0,0.0,0.0,0.0,0.0,0.0,0.0,0.0,0.0,0.0,0.0,0.0,0.0,0.0,0.0,0.0,0.0,0.0,0.0,0.0,0.0,0.0,0.0,0.0,0.0,0.0,0.0,0.0,0.0,0.0,0.0,0.0,0.0,0.0,0.0,0.0,0.0,0.0,0.0,0.0,0.0,0.0,0.0,0.0,0.0,0.0,0.0,0.0,0.0,0.0,0.0,0.0,0.0,0.0,0.0,0.0,0.0,0.0,0.0,0.0,0.0,0.0,0.0,0.0,0.0,0.0,0.0,0.0,0.0,0.0,0.0,0.0,0.0,0.0,0.0,0.0,0.0,0.0,0.0,0.0,0.0,0.0,0.0,0.0,0.0,0.0,0.0,0.0,0.0,0.0,0.0,0.0,0.0,0.0,0.0,0.0,0.0,0.0,0.0,0.0,0.0,0.0,0.0,0.0,0.0,0.0,0.0,0.0,0.0,0.0,0.0,0.0,0.0,0.0,0.0,0.0,0.0,0.0,0.0,0.0,0.0,0.0,0.0,0.0,0.0,0.0,0.0,0.0,0.0,0.0,0.0,0.0,0.0,0.0,0.0,0.0,0.0,0.0,0.0,0.0,0.0,0.0,0.0,0.0,0.0,0.0,0.0,0.0,0.0,0.0,0.0,0.0,0.0,0.0,0.0,0.0,0.0,0.0,0.0,0.0,0.0,0.0,0.0,0.0,0.0,0.0,0.0,0.0,0.0,0.0,0.0,0.0,0.0,0.0,0.0,0.0,0.0,0.0,0.0,0.0,0.0,0.0,0.0,0.0,0.0,0.0,0.0,0.0,0.0,0.0,0.0,0.0,0.0,0.0,0.0,0.0,0.0,0.0,0.0,0.0,0.0,0.0,0.0,0.0,0.0,0.0,0.0,0.0,0.0,0.0,0.0,0.0,0.0,0.0,0.0,0.0,0.0,0.0,0.0,0.0,0.0,0.0,0.0,0.0,0.0,0.0,0.0,0.0,0.0,0.0,0.0,0.0,0.0,0.0,0.0,0.0,0.0,0.0,0.0,0.0,0.0,0.0,0.0,0.0,0.0,0.0,0.0,0.0,0.0,0.0,0.0,0.0,0.0,0.0,0.0,0.0,0.0,0.0,0.0,0.0,0.0,0.0,0.0,0.0,0.0,0.0,0.0,0.0,0.0,0.0,0.0,0.0,0.0,0.0,0.0,0.0,0.0,0.0,0.0,0.0,0.0,0.0,0.0,0.0,0.0,0.0,0.0,0.0,0.0,0.0,0.0,0.0,0.0,0.0,0.0,0.0,0.0,0.0,0.0,0.0,0.0,0.0,0.0,0.0,0.0,0.0,0.0,0.0,0.0,0.0,0.0,0.0,0.0,0.0,0.0,0.0,0.0,0.0,0.0,0.0,0.0,0.0,0.0,0.0,0.0,0.0,0.0,0.0,0.0,0.0,0.0,0.0,0.0,0.0,0.0,0.0,0.0,0.0,0.0,0.0,0.0,0.0,0.0,0.0,0.0,0.0,0.0,0.0,0.0,0.0,0.0,0.0,0.0,0.0,0.0,0.0,0.0,0.0,0.0,0.0,0.0,0.0,0.0,0.0,0.0,0.0,0.0,0.0,0.0,0.0,0.0,0.0,0.0,0.0,0.0,0.0,0.0,0.0,0.0,0.0,0.0,0.0,0.0,0.0,0.0,0.0,0.0,0.0,0.0,0.0,0.0,0.0,0.0,0.0,0.0,0.0,0.0,0.0,0.0,0.0,0.0,0.0,0.0,0.0,0.0,0.0,0.0,0.0,0.0,0.0,0.0,0.0,0.0,0.0,0.0,0.0,0.0,0.0,0.0,0.0,0.0,0.0,0.0,0.0,0.0,0.0,0.0,0.0,0.0,0.0,0.0,0.0,0.0,0.0,0.0,0.0,0.0,0.0,0.0,0.0,0.0,0.0,0.0,0.0,0.0,0.0,0.0,0.0,0.0,0.0,0.0,0.0,0.0,0.0,0.0,0.0,0.0,0.0,0.0,0.0,0.0,0.0,0.0,0.0,0.0,0.0,0.0,0.0,0.0,0.0,0.0,0.0,0.0,0.0,0.0,0.0,0.0,0.0,0.0,0.0,0.0,0.0,0.0,0.0,0.0,0.0,0.0,0.0,0.0,0.0,0.0,0.0,0.0,0.0,0.0,0.0,0.0,0.0,0.0,0.0,0.0,0.0,0.0,0.0,0.0,0.0,0.0,0.0,0.0,0.0,0.0,0.0,0.0,0.0,0.0,0.0,0.0,0.0,0.0,0.0,0.0,0.0,0.0,0.0,0.0,0.0,0.0,0.0,0.0,0.0,0.0,0.0,0.0,0.0,0.0,0.0,0.0,0.0,0.0,0.0,0.0,0.0,0.0,0.0,0.0,0.0,0.0,0.0,0.0,0.0,0.0,0.0,0.0,0.0,0.0,0.0,0.0,0.0,0.0,0.0,0.0,0.0,0.0,0.0,0.0,0.0,0.0,0.0,0.0,0.0,0.0,0.0,0.0,0.0,0.0,0.0,0.0,0.0,0.0,0.0,0.0,0.0,0.0,0.0,0.0,0.0,0.0,0.0,0.0,0.0,0.0,0.0,0.0,0.0,0.0,0.0,0.0,0.0,0.0,0.0,0.0,0.0,0.0,0.0,0.0,0.0,0.0,0.0,0.0,0.0,0.0,0.0,0.0,0.0,0.0,0.0,0.0,0.0,0.0,0.0,0.0,0.0,0.0,0.0,0.0,0.0,0.0,0.0,0.0,0.0,0.0,0.0,0.0,0.0,0.0,0.0,0.0,0.0,0.0,0.0,0.0,0.0,0.0,0.0,0.0,0.0,0.0,0.0,0.0,0.0,0.0,0.0,0.0,0.0,0.0,0.0,0.0,0.0,0.0,0.0,0.0,0.0,0.0,0.0,0.0,0.0,0.0,0.0,0.0,0.0,0.0,0.0,0.0,0.0,0.0,0.0,0.0,0.0,0.0,0.0,0.0,0.0,0.0,0.0,0.0,0.0,0.0,0.0,0.0,0.0,0.0,0.0,0.0,0.0,0.0,0.0,0.0,0.0,0.0,0.0,0.0,0.0,0.0,0.0,0.0,0.0,0.0,0.0,0.0,0.0,0.0,0.0,0.0,0.0,0.0,0.0,0.0,0.0,0.0,0.0,0.0,0.0,0.0,0.0,0.0,0.0,0.0,0.0,0.0,0.0,0.0,0.0,0.0,0.0,0.0,0.0,0.0,0.0,0.0,0.0,0.0,0.0,0.0,0.0,0.0,0.0,0.0,0.0,0.0,0.0,0.0,0.0,0.0,0.0,0.0,0.0,0.0,0.0,0.0,0.0,0.0,0.0,0.0,0.0,0.0,0.0,0.0,0.0,0.0,0.0,0.0,0.0,0.0,0.0,0.0,0.0,0.0,0.0,0.0,0.0,0.0,0.0,0.0,0.0,0.0,0.0,0.0,0.0,0.0,0.0,0.0,0.0,0.0,0.0,0.0,0.0,0.0,0.0,0.0,0.0,0.0,0.0,0.0,0.0,0.0,0.0,0.0,0.0,0.0,0.0,0.0,0.0,0.0,0.0,0.0,0.0,0.0,0.0,0.0,0.0,0.0,0.0,0.0,0.0,0.0,0.0,0.0,0.0,0.0,0.0,0.0,0.0,0.0,0.0,0.0,0.0,0.0,0.0,0.0,0.0,0.0,0.0,0.0,0.0,0.0,0.0,0.0,0.0,0.0,0.0,0.0,0.0,0.0,0.0,0.0,0.0,0.0,0.0,0.0,0.0,0.0,0.0,0.0,0.0,0.0,0.0,0.0,0.0,0.0,0.0,0.0,0.0,0.0,0.0,0.0,0.0,0.0,0.0,0.0,0.0,0.0,0.0,0.0,0.0,0.0,0.0,0.0,0.0,0.0,0.0,0.0,0.0,0.0,0.0,0.0,0.0,0.0,0.0,0.0,0.0,0.0,0.0,0.0,0.0,0.0,0.0,0.0,0.0,0.0,0.0,0.0,0.0,0.0,0.0,0.0,0.0,0.0,0.0,0.0,0.0,0.0,0.0,0.0,0.0,0.0,0.0,0.0,0.0,0.0,0.0,0.0,0.0,0.0,0.0,0.0,0.0,0.0,0.0,0.0,0.0,0.0,0.0,0.0,0.0,0.0,0.0,0.0,0.0,0.0,0.0,0.0,0.0,0.0,0.0,0.0,0.0,0.0,0.0,0.0,0.0,0.0,0.0,0.0,0.0,0.0,0.0,0.0,0.0,0.0,0.0,0.0,0.0,0.0,0.0,0.0,0.0,0.0,0.0,0.0,0.0,0.0,0.0,0.0,0.0,0.0,0.0,0.0,0.0,0.0,0.0,0.0,0.0,0.0,0.0,0.0,0.0,0.0,0.0,0.0,0.0,0.0,0.0,0.0,0.0,0.0,0.0,0.0,0.0,0.0,0.0,0.0,0.0,0.0,0.0,0.0,0.0,0.0,0.0,0.0,0.0,0.0,0.0,0.0,0.0,0.0,0.0,0.0,0.0,0.0,0.0,0.0,0.0,0.0,0.0,0.0,0.0,0.0,0.0,0.0,0.0,0.0,0.0,0.0,0.0,0.0,0.0,0.0,0.0,0.0,0.0,0.0,0.0,0.0,0.0,0.0,0.0,0.0,0.0,0.0,0.0,0.0,0.0,0.0,0.0,0.0,0.0,0.0,0.0,0.0,0.0,0.0,0.0,0.0,0.0,0.0,0.0,0.0,0.0,0.0,0.0,0.0,0.0,0.0,0.0,0.0,0.0,0.0,0.0,0.0,0.0,0.0,0.0,0.0,0.0,0.0,0.0,0.0,0.0,0.0,0.0,0.0,0.0,0.0,0.0,0.0,0.0,0.0,0.0,0.0,0.0,0.0,0.0,0.0,0.0,0.0,0.0,0.0,0.0,0.0,0.0,0.0,0.0,0.0,0.0,0.0,0.0,0.0,0.0,0.0,0.0,0.0,0.0,0.0,0.0,0.0,0.0,0.0,0.0,0.0,0.0,0.0,0.0,0.0,0.0,0.0,0.0,0.0,0.0,0.0,0.0,0.0,0.0,0.0,0.0,0.0,0.0,0.0,0.0,0.0,0.0,0.0,0.0,0.0,0.0,0.0,0.0,0.0,0.0,0.0,0.0,0.0,0.0,0.0,0.0,0.0,0.0,0.0,0.0,0.0,0.0,0.0,0.0,0.0,0.0,0.0,0.0,0.0,0.0,0.0,0.0,0.0,0.0,0.0,0.0,0.0,0.0,0.0,0.0,0.0,0.0,0.0,0.0,0.0,0.0,0.0,0.0,0.0,0.0,0.0,0.0,0.0,0.0,0.0,0.0,0.0,0.0,0.0,0.0,0.0,0.0,0.0,0.0,0.0,0.0,0.0,0.0,0.0,0.0,0.0,0.0,0.0,0.0,0.0,0.0,0.0,0.0,0.0,0.0,0.0,0.0,0.0,0.0,0.0,0.0,0.0,0.0,0.0,0.0,0.0,0.0,0.0,0.0,0.0,0.0,0.0,0.0,0.0,0.0,0.0,0.0,0.0,0.0,0.0,0.0,0.0,-0.8455,-0.8387,0.0,0.0,0.0,0.0,0.0,0.0,0.0,0.0,0.0,0.0,0.0,0.0,0.0,0.0,0.0,0.0,0.0,0.0,0.0,0.0,0.0,0.0,0.0,0.0,0.0,0.0,0.0,0.0,0.0,0.0,0.0,0.0,0.0,0.0,0.0,-0.2757,-0.5766,-0.8899,-0.8866,-0.741,-0.4576,-0.4605,-0.599,-0.8419,0.0,0.0,0.0,0.0,0.0,0.0,0.0,0.0,0.0,0.0,0.0,0.0,0.0,0.0,0.0,0.0,0.0,0.0,0.0,0.0,0.0,0.0,0.0,0.0,0.0,0.0,0.0,0.0,0.0,0.0,0.0,0.0,0.0,0.0,0.0,0.0,0.0,0.0,0.0,0.0,0.0,0.0,0.0,0.0,0.0,0.0,0.0,0.0,0.0,0.0,0.0,0.0,0.0,0.0,0.0,0.0,0.0,0.0,0.0,0.0,0.0,0.0,0.0,0.0,0.0,0.0,0.0,0.0,0.0,0.0,-0.8591,-0.8482,0.0,0.0,0.0,0.0,0.0,0.0,0.0,0.0,0.0,0.0,0.0,0.0,0.0,0.0,0.0,0.0,0.0,0.0,0.0,0.0,0.0,0.0,0.0,0.0,0.0,0.0,0.0,0.0,0.0,0.0,0.0,0.0,0.0,0.0,0.0,-0.4834,-0.7326,-0.731,-0.731,-0.4819,0.0,0.0,-0.2683,-0.7304,-0.7307,0.0,0.0,0.0,0.0,0.0,0.0,0.0,0.0,0.0,0.0,0.0,0.0,0.0,0.0,0.0,0.0,0.0,0.0,0.0,0.0,0.0,0.0,0.0,0.0,0.0,0.0,0.0,0.0,0.0,0.0,0.0,0.0,0.0,0.0,0.0,0.0,0.0,0.0,0.0,0.0,0.0,0.0,0.0,0.0,0.0,0.0,0.0,0.0,0.0,0.0,0.0,0.0,0.0,0.0,0.0,0.0,0.0,0.0,0.0,0.0,0.0,0.0,0.0,-0.7531,-0.8362,-0.7901,-0.8033,-0.8094,-0.8081,-0.8034,-0.8239,-0.8567,-0.8564,0.0,0.0,0.0,0.0,0.0,0.0,0.0,0.0,0.0,0.0,0.0,0.0,0.0,0.0,0.0,0.0,0.0,0.0,0.0,0.0,0.0,0.0,0.0,0.0,0.0,0.0,0.0,0.0,0.0,0.0,0.0,0.0,0.0,-0.0783,-0.1118,-0.1117,-0.1117,-0.0783,0.0,0.0,-0.0448,-0.1121,-0.1229,-0.1227,-0.1117,0.0,0.0,0.0,0.0,0.0,0.0,0.0,0.0,0.0,0.0,0.0,0.0,0.0,0.0,0.0,0.0,0.0,0.0,0.0,0.0,0.0,0.0,0.0,0.0,0.0,0.0,0.0,0.0,0.0,0.0,0.0,0.0,0.0,0.0,0.0,0.0,0.0,0.0,0.0,0.0,0.0,-0.8038,-0.8038,0.0,0.0,0.0,0.0,0.0,0.0,0.0,0.0,0.0,0.0,0.0,0.0,0.0,-0.4479,-0.4559,-0.688,-0.6931,-0.4661,-0.7496,-0.7504,-0.5014,-0.5027,-0.5033,-0.5142,-0.6001,0.0,-0.8796,-0.8886,0.0,0.0,0.0,0.0,0.0,0.0,0.0,0.0,0.0,0.0,0.0,0.0,0.0,0.0,0.0,0.0,0.0,0.0,0.0,0.0,0.0,0.0,0.0,0.0,0.0,0.0,0.0,0.0,0.0,0.0,0.0,0.0,0.0,0.0,0.0,0.0,0.0,0.0,0.0,0.0,0.0,0.0,0.0,0.0,0.0,0.0,0.0,0.0,0.0,0.0,0.0,0.0,0.0,0.0,0.0,0.0,0.0,0.0,0.0,0.0,0.0,0.0,0.0,0.0,0.0,0.0,0.0,0.0,0.0,0.0,0.0,0.0,0.0,0.0,0.0,0.0,0.0,0.0,0.0,0.0,0.0,0.0,0.0,0.0,0.0,-0.8038,-0.8038,-0.8038,-0.8038,-0.8038,0.0,0.0,0.0,0.0,0.0,0.0,0.0,0.0,0.0,-0.792,-0.6827,-0.4794,-0.177,-0.2882,-0.3002,-0.201,-0.3248,-0.4936,-0.685,-0.347,-0.2911,-0.4597,-0.5599,-0.7062,-0.888,-0.8954,-0.894,-0.893,0.0,0.0,0.0,0.0,-0.8737,-0.8737,0.0,0.0,0.0,0.0,0.0,0.0,0.0,0.0,0.0,0.0,0.0,0.0,0.0,0.0,0.0,0.0,0.0,0.0,0.0,0.0,0.0,0.0,0.0,0.0,0.0,0.0,0.0,0.0,0.0,0.0,0.0,0.0,0.0,0.0,0.0,0.0,0.0,0.0,0.0,0.0,0.0,0.0,0.0,0.0,0.0,0.0,0.0,0.0,0.0,0.0,0.0,0.0,0.0,0.0,0.0,0.0,0.0,0.0,0.0,0.0,0.0,0.0,0.0,0.0,0.0,0.0,0.0,0.0,0.0,0.0,0.0,0.0,0.0,0.0,0.0,0.0,0.0,-0.8038,-0.8055,-0.8096,-0.8099,-0.8113,0.0,0.0,0.0,0.0,0.0,0.0,-0.7959,-0.611,-0.5295,-0.5957,-0.5959,-0.399,-0.0,0.0,0.0,0.0,0.0,-0.2354,-0.6519,-0.2017,-0.1234,-0.3369,-0.4147,-0.6168,-0.8893,-0.8853,-0.8944,-0.894,-0.894,-0.894,-0.894,-0.894,-0.894,-0.894,0.0,0.0,0.0,0.0,0.0,0.0,0.0,0.0,0.0,0.0,0.0,0.0,0.0,0.0,0.0,0.0,0.0,0.0,0.0,0.0,0.0,0.0,0.0,0.0,0.0,0.0,0.0,0.0,0.0,0.0,0.0,0.0,0.0,0.0,0.0,0.0,0.0,0.0,0.0,0.0,0.0,0.0,0.0,0.0,0.0,0.0,0.0,0.0,0.0,0.0,0.0,0.0,0.0,0.0,0.0,0.0,0.0,0.0,0.0,0.0,0.0,0.0,0.0,0.0,0.0,0.0,0.0,0.0,0.0,0.0,0.0,0.0,0.0,0.0,0.0,0.0,0.0,0.0,0.0,-0.8241,-0.8258,0.0,0.0,0.0,0.0,-0.8289,-0.573,-0.5356,-0.7898,-0.7904,-0.5516,-0.056,-0.0448,-0.0224,-0.0,0.0,0.0,0.0,0.0,-0.0112,-0.0448,-0.0112,-0.0112,-0.0224,-0.0336,-0.3578,-0.8893,-0.887,-0.8846,-0.894,-0.894,-0.894,-0.894,-0.894,-0.894,-0.894,0.0,0.0,0.0,0.0,0.0,0.0,0.0,0.0,0.0,0.0,0.0,0.0,0.0,0.0,0.0,0.0,0.0,0.0,0.0,0.0,0.0,0.0,0.0,0.0,0.0,0.0,0.0,0.0,0.0,0.0,0.0,0.0,0.0,0.0,0.0,0.0,0.0,0.0,0.0,0.0,0.0,0.0,0.0,0.0,0.0,0.0,0.0,0.0,0.0,0.0,0.0,0.0,0.0,0.0,0.0,0.0,0.0,0.0,0.0,0.0,0.0,0.0,0.0,0.0,0.0,0.0,0.0,0.0,0.0,0.0,0.0,0.0,0.0,0.0,0.0,0.0,0.0,0.0,0.0,-0.8401,-0.8314,0.0,-0.8391,-0.8395,-0.836,-0.8154,-0.7463,-0.5859,-0.3001,-0.289,-0.2006,-0.0112,0.0,0.0,0.0,0.0,0.0,0.0,0.0,0.0,0.0,0.0,0.0,0.0,0.0,-0.123,-0.3461,-0.7287,-0.8863,-0.894,-0.894,-0.894,-0.894,-0.894,-0.894,-0.894,0.0,0.0,0.0,0.0,0.0,0.0,0.0,0.0,0.0,0.0,0.0,0.0,0.0,0.0,0.0,0.0,0.0,0.0,0.0,0.0,0.0,0.0,0.0,0.0,0.0,0.0,0.0,0.0,0.0,0.0,0.0,0.0,0.0,0.0,0.0,0.0,0.0,0.0,0.0,0.0,0.0,0.0,0.0,0.0,0.0,0.0,0.0,0.0,0.0,0.0,0.0,0.0,0.0,0.0,0.0,0.0,0.0,0.0,0.0,0.0,0.0,0.0,0.0,0.0,0.0,0.0,0.0,0.0,0.0,0.0,0.0,0.0,0.0,0.0,0.0,0.0,0.0,0.0,-0.8407,-0.8564,-0.8481,-0.7968,-0.7135,-0.801,-0.8533,-0.832,-0.6818,-0.4151,-0.0224,0.0,0.0,0.0,0.0,0.0,0.0,0.0,0.0,0.0,0.0,0.0,0.0,0.0,0.0,0.0,0.0,0.0,-0.0453,-0.6492,-0.8901,-0.8848,-0.8866,-0.894,-0.894,-0.894,-0.894,-0.894,0.0,0.0,0.0,0.0,0.0,0.0,0.0,0.0,0.0,0.0,0.0,0.0,0.0,0.0,0.0,0.0,0.0,0.0,0.0,0.0,0.0,0.0,0.0,0.0,0.0,0.0,0.0,0.0,0.0,0.0,0.0,0.0,0.0,0.0,0.0,0.0,0.0,0.0,0.0,0.0,0.0,0.0,0.0,0.0,0.0,0.0,0.0,0.0,0.0,0.0,0.0,0.0,0.0,0.0,0.0,0.0,0.0,0.0,0.0,0.0,0.0,0.0,0.0,0.0,0.0,0.0,0.0,0.0,0.0,0.0,0.0,0.0,0.0,0.0,0.0,0.0,-0.8513,-0.8404,-0.8368,-0.8514,-0.855,-0.75,-0.4912,-0.7078,-0.8571,-0.8571,-0.3251,0.0,0.0,0.0,0.0,0.0,0.0,0.0,0.0,0.0,0.0,0.0,0.0,0.0,0.0,0.0,0.0,0.0,0.0,0.0,-0.0468,-0.6462,-0.8942,-0.8878,-0.8947,-0.8954,-0.895,-0.8947,-0.8944,-0.894,0.0,0.0,0.0,0.0,0.0,0.0,0.0,0.0,0.0,0.0,0.0,0.0,0.0,0.0,0.0,0.0,0.0,0.0,0.0,0.0,0.0,0.0,0.0,0.0,0.0,0.0,0.0,0.0,0.0,0.0,0.0,0.0,0.0,0.0,0.0,0.0,0.0,0.0,0.0,0.0,0.0,0.0,0.0,0.0,0.0,0.0,0.0,0.0,0.0,0.0,0.0,0.0,0.0,0.0,0.0,0.0,0.0,0.0,0.0,0.0,0.0,0.0,0.0,0.0,0.0,0.0,0.0,0.0,0.0,0.0,0.0,0.0,0.0,0.0,-0.8872,-0.8736,-0.8585,-0.8662,-0.7968,-0.5883,-0.7473,-0.852,-0.7759,-0.4487,-0.2466,-0.2466,-0.0897,0.0,0.0,0.0,0.0,0.0,0.0,0.0,0.0,0.0,0.0,0.0,0.0,0.0,0.0,0.0,0.0,0.0,0.0,0.0,-0.0468,-0.6937,-0.9545,-0.949,-0.9053,-0.8905,-0.8892,-0.8901,-0.8913,-0.894,0.0,0.0,0.0,0.0,0.0,0.0,0.0,0.0,0.0,0.0,0.0,0.0,0.0,0.0,0.0,0.0,0.0,0.0,0.0,0.0,0.0,0.0,0.0,0.0,0.0,0.0,0.0,0.0,0.0,0.0,0.0,0.0,0.0,0.0,0.0,0.0,0.0,0.0,0.0,0.0,0.0,0.0,0.0,0.0,0.0,0.0,0.0,0.0,0.0,0.0,0.0,0.0,0.0,0.0,0.0,0.0,0.0,0.0,0.0,0.0,0.0,0.0,0.0,0.0,0.0,0.0,0.0,0.0,0.0,0.0,0.0,0.0,0.0,0.0,-0.7847,-0.7482,-0.8536,-0.8826,-0.8313,-0.6505,-0.5611,-0.5164,-0.5164,-0.2017,0.0,0.0,0.0,0.0,0.0,0.0,0.0,0.0,0.0,0.0,0.0,0.0,0.0,0.0,0.0,0.0,0.0,0.0,0.0,0.0,0.0,-0.1557,-0.4424,-0.828,-0.9842,0.0,0.0,0.0,0.0,0.0,-0.9081,-0.8894,0.0,0.0,0.0,0.0,0.0,0.0,0.0,0.0,0.0,0.0,0.0,0.0,0.0,0.0,0.0,0.0,0.0,0.0,0.0,0.0,0.0,0.0,0.0,0.0,0.0,0.0,0.0,0.0,0.0,0.0,0.0,0.0,0.0,0.0,0.0,0.0,0.0,0.0,0.0,0.0,0.0,0.0,0.0,0.0,0.0,0.0,0.0,0.0,0.0,0.0,0.0,0.0,0.0,0.0,0.0,0.0,0.0,0.0,0.0,0.0,0.0,0.0,0.0,0.0,0.0,0.0,0.0,0.0,0.0,0.0,0.0,0.0,0.0,0.0,-0.5938,-0.5489,-0.8457,-0.8917,-0.8686,-0.7997,-0.3251,0.0,0.0,0.0,0.0,0.0,0.0,0.0,0.0,0.0,0.0,0.0,0.0,0.0,0.0,0.0,0.0,0.0,0.0,0.0,0.0,0.0,0.0,-0.0,-0.0743,-0.4452,-0.9808,-0.9774,-0.9856,-0.9795,-0.9776,-0.9782,-0.9768,-0.9768,-0.9514,-0.9023,0.0,0.0,0.0,0.0,0.0,0.0,0.0,0.0,0.0,0.0,0.0,0.0,0.0,0.0,0.0,0.0,0.0,0.0,0.0,0.0,0.0,0.0,0.0,0.0,0.0,0.0,0.0,0.0,0.0,0.0,0.0,0.0,0.0,0.0,0.0,0.0,0.0,0.0,0.0,0.0,0.0,0.0,0.0,0.0,0.0,0.0,0.0,0.0,0.0,0.0,0.0,0.0,0.0,0.0,0.0,0.0,0.0,0.0,0.0,0.0,0.0,0.0,0.0,0.0,0.0,0.0,0.0,0.0,0.0,0.0,0.0,0.0,0.0,-0.1676,-0.3243,-0.5497,-0.8476,-0.894,-0.7105,-0.2242,-0.0673,0.0,0.0,0.0,0.0,0.0,0.0,0.0,0.0,0.0,0.0,0.0,0.0,0.0,0.0,0.0,0.0,0.0,0.0,0.0,0.0,0.0,0.0,-0.0256,-0.5633,-0.8672,-0.986,-0.9807,-0.9828,-0.9815,-0.9758,-0.9789,-0.9811,-0.9811,-0.9728,-0.962,0.0,0.0,0.0,0.0,0.0,0.0,0.0,0.0,0.0,0.0,0.0,0.0,0.0,0.0,0.0,0.0,0.0,0.0,0.0,0.0,0.0,0.0,0.0,0.0,0.0,0.0,0.0,0.0,0.0,0.0,0.0,0.0,0.0,0.0,0.0,0.0,0.0,0.0,0.0,0.0,0.0,0.0,0.0,0.0,0.0,0.0,0.0,0.0,0.0,0.0,0.0,0.0,0.0,0.0,0.0,0.0,0.0,0.0,0.0,0.0,0.0,0.0,0.0,0.0,0.0,0.0,0.0,0.0,0.0,0.0,0.0,0.0,0.0,0.0,-0.1231,-0.2801,-0.427,-0.4417,-0.3297,-0.0341,0.0,0.0,0.0,0.0,0.0,0.0,0.0,0.0,0.0,0.0,0.0,0.0,0.0,0.0,0.0,0.0,0.0,0.0,0.0,0.0,0.0,0.0,0.0,-0.0387,-0.7243,-1.0206,-1.0259,-0.9943,-0.9827,-0.9808,-0.9808,-0.9846,-0.9837,-0.9837,-0.9789,-0.9846,0.0,0.0,0.0,0.0,0.0,0.0,0.0,0.0,0.0,0.0,0.0,0.0,0.0,0.0,0.0,0.0,0.0,0.0,0.0,0.0,0.0,0.0,0.0,0.0,0.0,0.0,0.0,0.0,0.0,0.0,0.0,0.0,0.0,0.0,0.0,0.0,0.0,0.0,0.0,0.0,0.0,0.0,0.0,0.0,0.0,0.0,0.0,0.0,0.0,0.0,0.0,0.0,0.0,0.0,0.0,0.0,0.0,0.0,0.0,0.0,0.0,0.0,0.0,0.0,0.0,0.0,0.0,0.0,0.0,0.0,0.0,0.0,0.0,0.0,0.0,0.0,0.0,0.0,0.0,0.0,0.0,0.0,0.0,0.0,0.0,0.0,0.0,0.0,0.0,0.0,0.0,0.0,0.0,0.0,0.0,0.0,0.0,0.0,0.0,0.0,0.0,0.0,0.0,-0.026,-0.6104,-0.9355,-1.0649,-1.0183,-0.9953,-0.9965,-0.9965,-0.9875,-0.9859,-0.9832,-0.9822,-0.9822,0.0,0.0,0.0,0.0,0.0,0.0,0.0,0.0,0.0,0.0,0.0,0.0,0.0,0.0,0.0,0.0,0.0,0.0,0.0,0.0,0.0,0.0,0.0,0.0,0.0,0.0,0.0,0.0,0.0,0.0,0.0,0.0,0.0,0.0,0.0,0.0,0.0,0.0,0.0,0.0,0.0,0.0,0.0,0.0,0.0,0.0,0.0,0.0,0.0,0.0,0.0,0.0,0.0,0.0,0.0,0.0,0.0,0.0,0.0,0.0,0.0,0.0,0.0,0.0,0.0,0.0,0.0,0.0,0.0,0.0,0.0,0.0,0.0,0.0,0.0,0.0,0.0,0.0,0.0,0.0,0.0,0.0,0.0,0.0,0.0,0.0,0.0,0.0,0.0,0.0,0.0,0.0,0.0,0.0,0.0,0.0,0.0,0.0,0.0,0.0,0.0,0.0,0.0,-0.0,-0.0791,-0.4846,-1.0647,-1.0635,-1.0551,-1.0644,-1.0644,-1.029,-0.9754,-0.9747,-0.9822,-0.9822,0.0,0.0,0.0,0.0,0.0,0.0,0.0,0.0,0.0,0.0,0.0,0.0,0.0,0.0,0.0,0.0,0.0,0.0,0.0,0.0,0.0,0.0,0.0,0.0,0.0,0.0,0.0,0.0,0.0,0.0,0.0,0.0,0.0,0.0,0.0,0.0,0.0,0.0,0.0,0.0,0.0,0.0,0.0,0.0,0.0,0.0,0.0,0.0,0.0,0.0,0.0,0.0,0.0,0.0,0.0,0.0,0.0,0.0,0.0,0.0,0.0,0.0,0.0,0.0,0.0,0.0,0.0,0.0,0.0,0.0,0.0,0.0,0.0,0.0,0.0,0.0,0.0,0.0,0.0,0.0,0.0,0.0,0.0,0.0,0.0,0.0,0.0,0.0,0.0,0.0,0.0,0.0,0.0,0.0,0.0,0.0,0.0,0.0,0.0,0.0,0.0,0.0,0.0,0.0,0.0,-0.4117,-1.069,-1.0726,-1.076,-1.067,-1.067,-1.0576,-1.0294,-1.0012,-0.99,-0.9822,0.0,0.0,0.0,0.0,0.0,0.0,0.0,0.0,0.0,0.0,0.0,0.0,0.0,0.0,0.0,0.0,0.0,0.0,0.0,0.0,0.0,0.0,0.0,0.0,0.0,0.0,0.0,0.0,0.0,0.0,0.0,0.0,0.0,0.0,0.0,0.0,0.0,0.0,0.0,0.0,0.0,0.0,0.0,0.0,0.0,0.0,0.0,0.0,0.0,0.0,0.0,0.0,0.0,0.0,0.0,0.0,0.0,0.0,0.0,0.0,0.0,0.0,0.0,0.0,0.0,0.0,0.0,0.0,0.0,0.0,0.0,0.0,0.0,0.0,0.0,0.0,0.0,0.0,0.0,0.0,0.0,0.0,0.0,0.0,0.0,0.0,0.0,0.0,0.0,0.0,0.0,0.0,0.0,0.0,0.0,0.0,0.0,0.0,0.0,0.0,0.0,0.0,0.0,0.0,0.0,-0.4017,-1.0668,-1.0744,-1.0656,-1.0689,-1.0689,-1.0732,-1.0586,-1.0342,-1.0053,-0.9876,0.0,0.0,0.0,0.0,0.0,0.0,0.0,0.0,0.0,0.0,0.0,0.0,0.0,0.0,0.0,0.0,0.0,0.0,0.0,0.0,0.0,0.0,0.0,0.0,0.0,0.0,0.0,0.0,0.0,0.0,0.0,0.0,0.0,0.0,0.0,0.0,0.0,0.0,0.0,0.0,0.0,0.0,0.0,0.0,0.0,0.0,0.0,0.0,0.0,0.0,0.0,0.0,0.0,0.0,0.0,0.0,0.0,0.0,0.0,0.0,0.0,0.0,0.0,0.0,0.0,0.0,0.0,0.0,0.0,0.0,0.0,0.0,0.0,0.0,0.0,0.0,0.0,0.0,0.0,0.0,0.0,0.0,0.0,0.0,0.0,0.0,0.0,0.0,0.0,0.0,0.0,0.0,0.0,0.0,0.0,0.0,0.0,0.0,0.0,0.0,0.0,0.0,0.0,0.0,0.0,-0.4017,-1.0668,-1.0744,-1.0717,-1.0714,-1.0714,-1.0619,-1.0483,-1.048,-1.0293,-1.0022,0.0,0.0,0.0,0.0,0.0,0.0,0.0,0.0,0.0,0.0,0.0,0.0,0.0,0.0,0.0,0.0,0.0,0.0,0.0,0.0,0.0,0.0,0.0,0.0,0.0,0.0,0.0,0.0,0.0,0.0,0.0,0.0,0.0,0.0,0.0,0.0,0.0,0.0,0.0,0.0,0.0,0.0,0.0,0.0,0.0,0.0,0.0,0.0,0.0,0.0,0.0,0.0,0.0,0.0,0.0,0.0,0.0,0.0,0.0,0.0,0.0,0.0,0.0,0.0,0.0,0.0,0.0,0.0,0.0,0.0,0.0,0.0,0.0,0.0,0.0,0.0,0.0,0.0,0.0,0.0,0.0,0.0,0.0,0.0,0.0,0.0,0.0,0.0,0.0,0.0,0.0,0.0,0.0,0.0,0.0,0.0,0.0,0.0,0.0,0.0,0.0,0.0,0.0,0.0,0.0,-0.4012,-1.0635,-1.0734,-1.0721,-1.0721,-1.0721,-1.0687,-1.0629,-1.0527,-1.0429,-1.0438,0.0,0.0,0.0,0.0,0.0,0.0,0.0,0.0,0.0,0.0,0.0,0.0,0.0,0.0,0.0,0.0,0.0,0.0,0.0,0.0,0.0,0.0,0.0,0.0,0.0,0.0,0.0,0.0,0.0,0.0,0.0,0.0,0.0,0.0,0.0,0.0,0.0,0.0,0.0,0.0,0.0,0.0,0.0,0.0,0.0,0.0,0.0,0.0,0.0,0.0,0.0,0.0,0.0,0.0,0.0,0.0,0.0,0.0,0.0,0.0,0.0,0.0,0.0,0.0,0.0,0.0,0.0,0.0,0.0,0.0,0.0,0.0,0.0,0.0,0.0,0.0,0.0,0.0,0.0,0.0,0.0,0.0,0.0,0.0,0.0,0.0,0.0,0.0,0.0,0.0,0.0,0.0,0.0,0.0,0.0,0.0,0.0,0.0,0.0,0.0,0.0,0.0,0.0,-0.0134,-0.2675,-0.6425,-1.0751,-1.0731,-1.0721,-1.0721,-1.0721,-1.0721,-1.0707,-1.0609,-1.0671,-1.0592,0.0,0.0,0.0,0.0,0.0,0.0,0.0,0.0,0.0,0.0,0.0,0.0,0.0,0.0,0.0,0.0,0.0,0.0,0.0,0.0,0.0,0.0,0.0,0.0,0.0,0.0,0.0,0.0,0.0,0.0,0.0,0.0,0.0,0.0,0.0,0.0,0.0,0.0,0.0,0.0,0.0,0.0,0.0,0.0,0.0,0.0,0.0,0.0,0.0,0.0,0.0,0.0,0.0,0.0,0.0,0.0,0.0,0.0,0.0,0.0,0.0,0.0,0.0,0.0,0.0,0.0,0.0,0.0,0.0,0.0,0.0,0.0,0.0,0.0,0.0,0.0,0.0,0.0,0.0,0.0,0.0,0.0,0.0,0.0,0.0,0.0,0.0,0.0,0.0,0.0,0.0,0.0,0.0,0.0,0.0,0.0,0.0,0.0,0.0,0.0,-0.0,-0.0403,-0.0536,-0.0936,-0.7769,-1.0755,-1.0751,-1.0727,-1.0721,-1.0721,-1.0721,-1.0721,-1.0721,-1.0721,-1.0764,-1.062,0.0,0.0,0.0,0.0,0.0,0.0,0.0,0.0,0.0,0.0,0.0,0.0,0.0,0.0,0.0,0.0,0.0,0.0,0.0,0.0,0.0,0.0,0.0,0.0,0.0,0.0,0.0,0.0,0.0,0.0,0.0,0.0,0.0,0.0,0.0,0.0,0.0,0.0,0.0,0.0,0.0,0.0,0.0,0.0,0.0,0.0,0.0,0.0,0.0,0.0,0.0,0.0,0.0,0.0,0.0,0.0,0.0,0.0,0.0,0.0,0.0,0.0,0.0,0.0,0.0,0.0,0.0,0.0,0.0,0.0,0.0,0.0,0.0,0.0,0.0,0.0,0.0,0.0,0.0,0.0,0.0,0.0,0.0,0.0,0.0,0.0,0.0,0.0,0.0,0.0,0.0,0.0,0.0,0.0,0.0,0.0,0.0,0.0,0.0,0.0,-0.0134,-0.5517,-0.7942,-0.8041,-0.9937,-1.0744,-1.0727,-1.0721,-1.0721,-1.0721,-1.0721,-1.0721,-1.0721,-1.0721,-1.0697,-1.066,0.0,0.0,0.0,0.0,0.0,0.0,0.0,0.0,0.0,0.0,0.0,0.0,0.0,0.0,0.0,0.0,0.0,0.0,0.0,0.0,0.0,0.0,0.0,0.0,0.0,0.0,0.0,0.0,0.0,0.0,0.0,0.0,0.0,0.0,0.0,0.0,0.0,0.0,0.0,0.0,0.0,0.0,0.0,0.0,0.0,0.0,0.0,0.0,0.0,0.0,0.0,0.0,0.0,0.0,0.0,0.0,0.0,0.0,0.0,0.0,0.0,0.0,0.0,0.0,0.0,0.0,0.0,0.0,0.0,0.0,0.0,0.0,0.0,0.0,0.0,0.0,0.0,0.0,0.0,0.0,0.0,0.0,0.0,0.0,0.0,0.0,0.0,0.0,0.0,0.0,0.0,0.0,0.0,0.0,0.0,0.0,0.0,0.0,0.0,0.0,-0.0268,-0.7395,-1.0645,-1.0738,-1.0738,-1.0731,-1.0721,-1.0721,-1.0721,-1.0721,-1.0721,-1.0721,-1.0721,-1.0721,-1.0721,-1.0721,0.0,0.0,0.0,0.0,0.0,0.0,0.0,0.0,0.0,0.0,0.0,0.0,0.0,0.0,0.0,0.0,0.0,0.0,0.0,0.0,0.0,0.0,0.0,0.0,0.0,0.0,0.0,0.0,0.0,0.0,0.0,0.0,0.0,0.0,0.0,0.0,0.0,0.0,0.0,0.0,0.0,0.0,0.0,0.0,0.0,0.0,0.0,0.0,0.0,0.0,0.0,0.0,0.0,0.0,0.0,0.0,0.0,0.0,0.0,0.0,0.0,0.0,0.0,0.0,0.0,0.0,0.0,0.0,0.0,0.0,0.0,0.0,0.0,0.0,0.0,0.0,0.0,0.0,0.0,0.0,0.0,0.0,0.0,0.0,0.0,0.0,0.0,0.0,0.0,0.0,0.0,0.0,0.0,0.0,0.0,0.0,0.0,0.0,0.0,-0.0533,-0.1596,-0.788,-1.0717,-1.069,-1.0711,-1.0721,-1.0721,-1.0721,-1.0721,-1.0721,-1.0721,-1.0721,-1.0721,-1.0721,-1.0721,-1.0721,0.0,0.0,0.0,0.0,0.0,0.0,0.0,0.0,0.0,0.0,0.0,0.0,0.0,0.0,0.0,0.0,0.0,0.0,0.0,0.0,0.0,0.0,0.0,0.0,0.0,0.0,0.0,0.0,0.0,0.0,0.0,0.0,0.0,0.0,0.0,0.0,0.0,0.0,0.0,0.0,0.0,0.0,0.0,0.0,0.0,0.0,0.0,0.0,0.0,0.0,0.0,0.0,0.0,0.0,0.0,0.0,0.0,0.0,0.0,0.0,0.0,0.0,0.0,0.0,0.0,0.0,0.0,0.0,0.0,0.0,0.0,0.0,0.0,0.0,0.0,0.0,0.0,0.0,0.0,0.0,0.0,0.0,0.0,0.0,0.0,0.0,0.0,0.0,0.0,0.0,0.0,0.0,0.0,0.0,0.0,0.0,0.0,0.0,0.0,-0.3115,-0.8843,-1.0149,-1.0716,-1.0675,-1.0666,0.0,-1.0721,-1.0721,-1.0721,-1.0721,-1.0721,-1.0721,-1.0721,-1.0721,-1.0721,-1.0721,0.0,0.0,0.0,0.0,0.0,0.0,0.0,0.0,0.0,0.0,0.0,0.0,0.0,0.0,0.0,0.0,0.0,0.0,0.0,0.0,0.0,0.0,0.0,0.0,0.0,0.0,0.0,0.0,0.0,0.0,0.0,0.0,0.0,0.0,0.0,0.0,0.0,0.0,0.0,0.0,0.0,0.0,0.0,0.0,0.0,0.0,0.0,0.0,0.0,0.0,0.0,0.0,0.0,0.0,0.0,0.0,0.0,0.0,0.0,0.0,0.0,0.0,0.0,0.0,0.0,0.0,0.0,0.0,0.0,0.0,0.0,0.0,0.0,0.0,0.0,0.0,0.0,0.0,0.0,0.0,0.0,0.0,0.0,0.0,0.0,0.0,0.0,0.0,0.0,0.0,0.0,0.0,0.0,0.0,0.0,0.0,0.0,0.0,0.0,-0.18,-0.5266,-0.8694,-1.0419,-1.0656,-1.0671,-1.0737,-1.0743,-1.0687,-1.0721,-1.0721,-1.0721,-1.0721,-1.0721,-1.0721,-1.0721,-1.0721,0.0,0.0,0.0,0.0,0.0,0.0,0.0,0.0,0.0,0.0,0.0,0.0,0.0,0.0,0.0,0.0,0.0,0.0,0.0,0.0,0.0,0.0,0.0,0.0,0.0,0.0,0.0,0.0,0.0,0.0,0.0,0.0,0.0,0.0,0.0,0.0,0.0,0.0,0.0,0.0,0.0,0.0,0.0,0.0,0.0,0.0,0.0,0.0,0.0,0.0,0.0,0.0,0.0,0.0,0.0,0.0,0.0,0.0,0.0,0.0,0.0,0.0,0.0,0.0,0.0,0.0,0.0,0.0,0.0,0.0,0.0,0.0,0.0,0.0,0.0,0.0,0.0,0.0,0.0,0.0,0.0,0.0,0.0,0.0,0.0,0.0,0.0,0.0,0.0,0.0,0.0,0.0,0.0,0.0,0.0,0.0,0.0,0.0,0.0,0.0,-0.0254,-0.6764,-0.9999,-1.0499,-1.0517,-1.0596,-1.0637,-1.0757,-1.069,-1.0721,-1.0721,-1.0721,-1.0721,-1.0721,-1.0721,-1.0721,0.0,0.0,0.0,0.0,0.0,0.0,0.0,0.0,0.0,0.0,0.0,0.0,0.0,0.0,0.0,0.0,0.0,0.0,0.0,0.0,0.0,0.0,0.0,0.0,0.0,0.0,0.0,0.0,0.0,0.0,0.0,0.0,0.0,0.0,0.0,0.0,0.0,0.0,0.0,0.0,0.0,0.0,0.0,0.0,0.0,0.0,0.0,0.0,0.0,0.0,0.0,0.0,0.0,0.0,0.0,0.0,0.0,0.0,0.0,0.0,0.0,0.0,0.0,0.0,0.0,0.0,0.0,0.0,0.0,0.0,0.0,0.0,0.0,0.0,0.0,0.0,0.0,0.0,0.0,0.0,0.0,0.0,0.0,0.0,0.0,0.0,0.0,0.0,0.0,0.0,0.0,0.0,0.0,0.0,0.0,0.0,0.0,0.0,0.0,0.0,-0.0246,-0.6768,-0.9857,-0.9827,-0.9843,-1.0236,0.0,-1.0644,-1.073,-1.0721,-1.0721,-1.0721,-1.0721,-1.0721,-1.0721,-1.0721,0.0,0.0,0.0,0.0,0.0,0.0,0.0,0.0,0.0,0.0,0.0,0.0,0.0,0.0,0.0,0.0,0.0,0.0,0.0,0.0,0.0,0.0,0.0,0.0,0.0,0.0,0.0,0.0,0.0,0.0,0.0,0.0,0.0,0.0,0.0,0.0,0.0,0.0,0.0,0.0,0.0,0.0,0.0,0.0,0.0,0.0,0.0,0.0,0.0,0.0,0.0,0.0,0.0,0.0,0.0,0.0,0.0,0.0,0.0,0.0,0.0,0.0,0.0,0.0,0.0,0.0,0.0,0.0,0.0,0.0,0.0,0.0,0.0,0.0,0.0,0.0,0.0,0.0,0.0,0.0,0.0,0.0,0.0,0.0,0.0,0.0,0.0,0.0,0.0,0.0,0.0,0.0,0.0,0.0,0.0,0.0,0.0,0.0,0.0,0.0,-0.0246,-0.682,-0.9844,-0.9814,-0.9824,-0.9966,0.0,-1.0589,-1.0716,-1.0721,-1.0721,-1.0721,-1.0721,-1.0721,-1.0721,-1.0721,0.0,0.0,0.0,0.0,0.0,0.0,0.0,0.0,0.0,0.0,0.0,0.0,0.0,0.0,0.0,0.0,0.0,0.0,0.0,0.0,0.0,0.0,0.0,0.0,0.0,0.0,0.0,0.0,0.0,0.0,0.0,0.0,0.0,0.0,0.0,0.0,0.0,0.0,0.0,0.0,0.0,0.0,0.0,0.0,0.0,0.0,0.0,0.0,0.0,0.0,0.0,0.0,0.0,0.0,0.0,0.0,0.0,0.0,0.0,0.0,0.0,0.0,0.0,0.0,0.0,0.0,0.0,0.0,0.0,0.0,0.0,0.0,0.0,0.0,0.0,0.0,0.0,0.0,0.0,0.0,0.0,0.0,0.0,0.0,0.0,0.0,0.0,0.0,0.0,0.0,0.0,0.0,0.0,0.0,0.0,0.0,0.0,0.0,0.0,0.0,-0.0123,-0.4798,-0.8008,-0.9859,-0.9818,-0.9814,0.0,-1.05,-1.0654,-1.066,-1.0704,-1.0721,-1.0721,-1.0721,-1.0721,-1.0721,0.0,0.0,0.0,0.0,0.0,0.0,0.0,0.0,0.0,0.0,0.0,0.0,0.0,0.0,0.0,0.0,0.0,0.0,0.0,0.0,0.0,0.0,0.0,0.0,0.0,0.0,0.0,0.0,0.0,0.0,0.0,0.0,0.0,0.0,0.0,0.0,0.0,0.0,0.0,0.0,0.0,0.0,0.0,0.0,0.0,0.0,0.0,0.0,0.0,0.0,0.0,0.0,0.0,0.0,0.0,0.0,0.0,0.0,0.0,0.0,0.0,0.0,0.0,0.0,0.0,0.0,0.0,0.0,0.0,0.0,0.0,0.0,0.0,0.0,0.0,0.0,0.0,0.0,0.0,0.0,0.0,0.0,0.0,0.0,0.0,0.0,0.0,0.0,0.0,0.0,0.0,0.0,0.0,0.0,0.0,0.0,0.0,0.0,0.0,0.0,-0.0,-0.0123,-0.3676,-0.9852,-0.9832,-0.9784,0.0,-1.0478,-1.076,-1.0644,-1.0663,-1.0721,-1.0721,-1.0721,-1.0721,-1.0721,0.0,0.0,0.0,0.0,0.0,0.0,0.0,0.0,0.0,0.0,0.0,0.0,0.0,0.0,0.0,0.0,0.0,0.0,0.0,0.0,0.0,0.0,0.0,0.0,0.0,0.0,0.0,0.0,0.0,0.0,0.0,0.0,0.0,0.0,0.0,0.0,0.0,0.0,0.0,0.0,0.0,0.0,0.0,0.0,0.0,0.0,0.0,0.0,0.0,0.0,0.0,0.0,0.0,0.0,0.0,0.0,0.0,0.0,0.0,0.0,0.0,0.0,0.0,0.0,0.0,0.0,0.0,0.0,0.0,0.0,0.0,0.0,0.0,0.0,0.0,0.0,0.0,0.0,0.0,0.0,0.0,0.0,0.0,0.0,0.0,0.0,0.0,0.0,0.0,0.0,0.0,0.0,0.0,0.0,0.0,0.0,0.0,0.0,0.0,0.0,0.0,0.0,-0.3564,-0.9767,-0.9856,-0.9798,-0.9797,-0.9975,-1.027,-1.0763,-1.0678,-1.0764,-1.0721,-1.0721,-1.0721,-1.0721,0.0,0.0,0.0,0.0,0.0,0.0,0.0,0.0,0.0,0.0,0.0,0.0,0.0,0.0,0.0,0.0,0.0,0.0,0.0,0.0,0.0,0.0,0.0,0.0,0.0,0.0,0.0,0.0,0.0,0.0,0.0,0.0,0.0,0.0,0.0,0.0,0.0,0.0,0.0,0.0,0.0,0.0,0.0,0.0,0.0,0.0,0.0,0.0,0.0,0.0,0.0,0.0,0.0,0.0,0.0,0.0,0.1566,0.2914,0.0559,0.0,0.0,0.0,0.0,0.0,0.0,0.0,0.0,0.0,0.0,0.0,0.0,0.0,0.0,0.0,0.0,0.0,0.0,0.0,0.0,0.0,0.0,0.0,0.0,0.0,0.0,0.0,0.0,0.0,0.0,0.0,0.0,0.0,0.0,0.0,0.0,0.0,0.0,0.0,0.0,0.0,0.0,0.0,-0.2214,-0.6285,-0.8744,-0.9777,0.0,-0.9777,-1.0062,-1.0415,-1.0603,-1.0719,-1.0721,-1.0721,-1.0721,-1.0721,0.0,0.0,0.0,0.0,0.0,0.0,0.0,0.0,0.0,0.0,0.0,0.0,0.0,0.0,0.0,0.0,0.0,0.0,0.0,0.0,0.0,0.0,0.0,0.0,0.0,0.0,0.0,0.0,0.0,0.0,0.0,0.0,0.0,0.0,0.0,0.0,0.0,0.0,0.0,0.0,0.0,0.0,0.0,0.0,0.0,0.0,0.0,0.0,0.0,0.0,0.0,0.0,0.0,0.0,0.0,0.0,0.0,0.0,0.0,0.0669,0.0558,0.0112,0.0,0.0112,0.056,0.0671,0.0,0.0112,0.0,0.0,0.0,0.0,0.0,0.0,0.0,0.0,0.0,0.0,0.0,0.0,0.0,0.0,0.0,0.0,0.0,0.0,0.0,0.0,0.0,0.0,0.0,0.0,0.0,0.0,0.0,0.0,0.0,0.0,0.0,0.0,0.0,0.0,0.0,0.0,-0.651,-0.9355,-0.9741,-0.9858,-0.9738,-0.9885,-1.0422,-1.0702,-1.0707,-1.0717,-1.0721,-1.0721,0.0,0.0,0.0,0.0,0.0,0.0,0.0,0.0,0.0,0.0,0.0,0.0,0.0,0.0,0.0,0.0,0.0,0.0,0.0,0.0,0.0,0.0,0.0,0.0,0.0,0.0,0.0,0.0,0.0,0.0,0.0,0.0,0.0,0.0,0.0,0.0,0.0,0.0,0.0,0.0,0.0,0.0,0.0,0.0,0.0,0.0,0.0,0.0,0.0,0.0,0.0,0.0,0.0,0.0,0.0,0.0,0.4236,0.8638,0.7143,0.0,0.5712,0.1115,0.0,0.1227,0.0,0.6847,0.5489,0.0894,0.0,0.0,0.0,0.0,0.0,0.0,0.0,0.0,0.0,0.0,0.0,0.0,0.0,0.0,0.0,0.0,0.0,0.0,0.0,0.0,0.0,0.0,0.0,0.0,0.0,0.0,0.0,0.0,0.0,0.0,0.0,0.0,0.0,0.0,0.0,-0.0123,-0.1595,-0.5149,-0.9856,-0.9747,-0.9838,-0.986,-1.0404,-1.0684,-1.0695,-1.0677,-1.0721,-1.0721,0.0,0.0,0.0,0.0,0.0,0.0,0.0,0.0,0.0,0.0,0.0,0.0,0.0,0.0,0.0,0.0,0.0,0.0,0.0,0.0,0.0,0.0,0.0,0.0,0.0,0.0,0.0,0.0,0.0,0.0,0.0,0.0,0.0,0.0,0.0,0.0,0.0,0.0,0.0,0.0,0.0,0.0,0.0,0.0,0.0,0.0,0.0,0.0,0.0,0.685,0.6728,0.4128,0.0,0.0,0.0,0.0,0.6362,0.8856,0.8947,0.8853,0.8081,0.4912,0.4126,0.4912,0.8205,0.8886,0.797,0.0,0.0,0.2457,0.3801,0.403,0.4033,0.4139,0.1789,0.0,0.0,0.0,0.0,0.0,0.0,0.0,0.0,0.0,0.0,0.0,0.0,0.0,0.0,0.0,0.0,0.0,0.0,0.0,0.0,0.0,0.0,0.0,0.0,0.0,0.0,0.0,0.0,0.0,0.0,-0.3684,-0.9754,-0.9849,-0.9794,-0.9804,-1.0144,-1.0438,-1.0637,-1.0719,-1.0663,-1.0721,0.0,0.0,0.0,0.0,0.0,0.0,0.0,0.0,0.0,0.0,0.0,0.0,0.0,0.0,0.0,0.0,0.0,0.0,0.0,0.0,0.0,0.0,0.0,0.0,0.0,0.0,0.0,0.0,0.0,0.0,0.0,0.0,0.0,0.0,0.0,0.0,0.0,0.0,0.0,0.0,0.0,0.0,0.0,0.0,0.0,0.0,0.0,0.0,0.0,0.7173,0.8876,0.886,0.888,0.0,0.0,0.0,0.0,0.0,0.8944,0.8954,0.8856,0.8856,0.8856,0.8863,0.888,0.0,0.0,0.0,0.0,0.0,0.8431,0.8893,0.0,0.0,0.0,0.0,0.0112,0.0,0.0,0.0,0.0,0.0,0.0,0.0,0.0,0.0,0.0,0.0,0.0,0.0,0.0,0.0,0.0,0.0,0.0,0.0,0.0,0.0,0.0,0.0,0.0,0.0,0.0,0.0,0.0,0.0,-0.8401,-0.9371,-0.9794,-0.9767,-0.9787,-1.0089,-1.0596,-1.0616,-1.0723,-1.0721,0.0,0.0,0.0,0.0,0.0,0.0,0.0,0.0,0.0,0.0,0.0,0.0,0.0,0.0,0.0,0.0,0.0,0.0,0.0,0.0,0.0,0.0,0.0,0.0,0.0,0.0,0.0,0.0,0.0,0.0,0.0,0.0,0.0,0.0,0.0,0.0,0.0,0.0,0.0,0.0,0.0,0.0,0.0,0.0,0.0,0.0,0.0,0.0,0.0,0.8602,0.8853,0.8944,0.8947,0.0,0.0,0.0,0.0,0.0,0.894,0.8944,0.8944,0.8944,0.8944,0.8947,0.895,0.0,0.0,0.0,0.0,0.0,0.0,0.8883,0.889,0.0,0.0,0.2904,0.0,0.0,0.0,0.0,0.0,0.0,0.0,0.0,0.0,0.0,0.0,0.0,0.0,0.0,0.0,0.0,0.0,0.0,0.0,0.0,0.0,0.0,0.0,0.0,0.0,0.0,0.0,0.0,0.0,-0.0615,-0.1967,-0.75,-0.9744,-0.9771,-0.9754,-0.9896,-1.0062,-1.0449,-1.0723,-1.0721,0.0,0.0,0.0,0.0,0.0,0.0,0.0,0.0,0.0,0.0,0.0,0.0,0.0,0.0,0.0,0.0,0.0,0.0,0.0,0.0,0.0,0.0,0.0,0.0,0.0,0.0,0.0,0.0,0.0,0.0,0.0,0.0,0.0,0.0,0.0,0.0,0.0,0.0,0.0,0.0,0.0,0.0,0.0,0.0,0.0,0.0,0.0,0.0,0.0,0.0,0.8937,0.8941,0.8913,0.0,0.0,0.0,0.0,0.0,0.894,0.894,0.894,0.894,0.894,0.894,0.894,0.894,0.0,0.0,0.0,0.0,0.0,0.0,0.886,0.8863,0.0,0.6379,0.5035,0.3465,0.1787,0.0,0.0,0.0,0.0,0.0,0.0,0.0,0.0,0.0,0.0,0.0,0.0,0.0,0.0,0.0,0.0,0.0,0.0,0.0,0.0,0.0,0.0,0.0,0.0,0.0,0.0,0.0,-0.0246,-0.3311,-0.6628,-0.9859,-0.9781,-0.9767,-0.9923,-1.0541,-1.0723,-1.0721,0.0,0.0,0.0,0.0,0.0,0.0,0.0,0.0,0.0,0.0,0.0,0.0,0.0,0.0,0.0,0.0,0.0,0.0,0.0,0.0,0.0,0.0,0.0,0.0,0.0,0.0,0.0,0.0,0.0,0.0,0.0,0.0,0.0,0.0,0.0,0.0,0.0,0.0,0.0,0.0,0.0,0.0,0.0,0.0,0.0,0.0,0.0,0.0,0.0,0.0,0.0,0.0,0.0,0.0,0.0,0.894,0.894,0.894,0.894,0.894,0.894,0.894,0.894,0.894,0.894,0.894,0.0,0.0,0.0,0.0,0.0,0.894,0.0,0.8853,0.8853,0.8863,0.8883,0.6948,0.4693,0.2346,0.0893,0.0,0.0,0.0,0.0,0.0,0.0,0.0,0.0,0.0,0.0,0.0,0.0,0.0,0.0,0.0,0.0,0.0,0.0,0.0,0.0,0.0,0.0,0.0,0.0,0.0,-0.0123,-0.172,-0.5282,-0.9744,-0.9839,-0.9814,-0.9876,-1.0527,-1.0723,-1.0721,0.0,0.0,0.0,0.0,0.0,0.0,0.0,0.0,0.0,0.0,0.0,0.0,0.0,0.0,0.0,0.0,0.0,0.0,0.0,0.0,0.0,0.0,0.0,0.0,0.0,0.0,0.0,0.0,0.0,0.0,0.0,0.0,0.0,0.0,0.0,0.0,0.0,0.0,0.0,0.0,0.0,0.0,0.0,0.0,0.0,0.0,0.0,0.0,0.0,0.0,0.0,0.0,0.0,0.0,0.894,0.894,0.894,0.894,0.894,0.894,0.894,0.894,0.894,0.0,0.894,0.894,0.0,0.894,0.0,0.0,0.0,0.894,0.894,0.894,0.894,0.895,0.8863,0.0,0.8526,0.832,0.3353,0.0,0.0,0.0,0.0,0.0,0.0,0.0,0.0,0.0,0.0,0.0,0.0,0.0,0.0,0.0,0.0,0.0,0.0,0.0,0.0,0.0,0.0,0.0,0.0,0.0,-0.0494,-0.6555,-0.9419,-0.9777,-0.9744,-0.9767,-0.9888,-1.0436,-1.0723,-1.0721,0.0,0.0,0.0,0.0,0.0,0.0,0.0,0.0,0.0,0.0,0.0,0.0,0.0,0.0,0.0,0.0,0.0,0.0,0.0,0.0,0.0,0.0,0.0,0.0,0.0,0.0,0.0,0.0,0.0,0.0,0.0,0.0,0.0,0.0,0.0,0.0,0.0,0.0,0.0,0.0,0.0,0.0,0.0,0.0,0.0,0.0,0.0,0.0,0.0,0.0,0.8676,0.8721,0.8859,0.894,0.894,0.894,0.894,0.894,0.894,0.894,0.894,0.894,0.894,0.0,0.0,0.894,0.894,0.894,0.894,0.0,0.0,0.0,0.894,0.894,0.894,0.8944,0.895,0.8954,0.885,0.8873,0.694,0.4803,0.3015,0.1118,0.0785,0.2709,0.4457,0.3928,0.0234,0.0,0.0,0.0,0.0,0.0,0.0,0.0,0.0,0.0,0.0,0.0,0.0,0.0,0.0,0.0,0.0,0.0,-0.0247,-0.2712,-0.6168,-0.9777,-0.9852,-0.9831,-0.9896,-1.0438,-1.0718,-1.0726,0.0,0.0,0.0,0.0,0.0,0.0,0.0,0.0,0.0,0.0,0.0,0.0,0.0,0.0,0.0,0.0,0.0,0.0,0.0,0.0,0.0,0.0,0.0,0.0,0.0,0.0,0.0,0.0,0.0,0.0,0.0,0.0,0.0,0.0,0.0,0.0,0.0,0.0,0.0,0.0,0.0,0.0,0.0,0.0,0.0,0.0,0.0,0.0,0.0,0.0,0.8587,0.8642,0.8842,0.894,0.894,0.894,0.894,0.894,0.894,0.894,0.894,0.894,0.0,0.0,0.894,0.894,0.894,0.894,0.894,0.0,0.894,0.0,0.0,0.0,0.894,0.894,0.894,0.894,0.8944,0.885,0.8856,0.8069,0.604,0.4023,0.324,0.447,0.7266,0.7103,0.298,0.1053,0.0,0.0,0.0,0.0,0.0,0.0,0.0,0.0,0.0,0.0,0.0,0.0,0.0,0.0,0.0,0.0,0.0,0.0,-0.3817,-0.9777,-0.9852,-0.9794,-0.9814,-1.0226,-1.0503,-1.0647,0.0,0.0,0.0,0.0,0.0,0.0,0.0,0.0,0.0,0.0,0.0,0.0,0.0,0.0,0.0,0.0,0.0,0.0,0.0,0.0,0.0,0.0,0.0,0.0,0.0,0.0,0.0,0.0,0.0,0.0,0.0,0.0,0.0,0.0,0.0,0.0,0.0,0.0,0.0,0.0,0.0,0.0,0.0606,0.0,0.0,0.0,0.0,0.0,0.0,0.0,0.8482,0.8537,0.8842,0.894,0.894,0.894,0.894,0.894,0.894,0.894,0.894,0.0,0.0,0.0,0.894,0.894,0.894,0.894,0.894,0.894,0.894,0.894,0.0,0.894,0.894,0.894,0.894,0.894,0.894,0.894,0.885,0.8863,0.8863,0.8883,0.7639,0.4808,0.7296,0.8851,0.8892,0.3326,0.0,0.0,0.0,0.0,0.0,0.0,0.0,0.0,0.0,0.0,0.0,0.0,0.0,0.0,0.0,0.0,0.0,0.0,-0.3822,-0.9655,-0.9747,-0.9808,-0.981,-0.9833,-1.0233,-1.0647,0.0,0.0,0.0,0.0,0.0,0.0,0.0,0.0,0.0,0.0,0.0,0.0,0.0,0.0,0.0,0.0,0.0,0.0,0.0,0.0,0.0,0.0,0.0,0.0,0.0,0.0,0.0,0.0,0.0,0.0,0.0,0.0,0.0,0.0,0.0,0.0,0.0,0.0,0.0,0.0,0.0,0.2232,0.5564,0.0,0.0,0.0,0.0,0.0,0.0,0.0,0.0,0.0,0.8876,0.894,0.894,0.894,0.894,0.894,0.894,0.894,0.0,0.894,0.0,0.0,0.0,0.894,0.0,0.0,0.894,0.894,0.894,0.894,0.0,0.894,0.894,0.894,0.894,0.894,0.894,0.894,0.8947,0.895,0.895,0.886,0.852,0.7709,0.8406,0.8893,0.894,0.5236,0.2184,0.0116,0.0,0.0,0.0,0.0,0.0,0.0,0.0,0.0,0.0,0.0,0.0,0.0,0.0,0.0,0.0,0.0,-0.1108,-0.3321,-0.7997,-0.9754,-0.9814,-0.98,-1.0176,-1.0645,0.0,0.0,0.0,0.0,0.0,0.0,0.0,0.0,0.0,0.0,0.0,0.0,0.0,0.0,0.0,0.0,0.0,0.0,0.0,0.0,0.0,0.0,0.0,0.0,0.0,0.0,0.0,0.0,0.0,0.0,0.0,0.0,0.0,0.0,0.0,0.0,0.0,0.0,0.0,0.0205,0.2332,0.5157,0.7815,0.0,0.0,0.0,0.0,0.0,0.0,0.0,0.0,0.0,0.8893,0.894,0.894,0.894,0.894,0.894,0.894,0.894,0.0,0.894,0.894,0.894,0.894,0.0,0.0,0.0,0.894,0.894,0.894,0.894,0.0,0.894,0.894,0.894,0.894,0.894,0.894,0.894,0.894,0.894,0.894,0.895,0.8954,0.894,0.895,0.8853,0.8863,0.723,0.432,0.0114,0.0,0.0,0.0,0.0,0.0,0.0,0.0,0.0,0.0,0.0,0.0,0.0,0.0,0.0,0.0,0.0,0.0,-0.0369,-0.4421,-0.75,-0.9767,-0.9797,-1.0159,-1.0717,0.0,0.0,0.0,0.0,0.0,0.0,0.0,0.0,0.0,0.0,0.0,0.0,0.0,0.0,0.0,0.0,0.0,0.0,0.0,0.0,0.0,0.0,0.0,0.0,0.0,0.0,0.0,0.0,0.0,0.0,0.0,0.0,0.0,0.0,0.0,0.0,0.0,0.0,0.0313,0.1111,0.6075,0.8022,0.8016,0.7985,0.0,0.0,0.0,0.0,0.0,0.0,0.0,0.0,0.8896,0.894,0.894,0.894,0.894,0.894,0.894,0.894,0.894,0.894,0.894,0.0,0.894,0.894,0.894,0.894,0.0,0.894,0.894,0.894,0.894,0.894,0.894,0.894,0.894,0.894,0.894,0.894,0.894,0.894,0.894,0.894,0.894,0.894,0.894,0.8947,0.886,0.886,0.642,0.1028,0.0229,0.0,0.0,0.0,0.0,0.0,0.0,0.0,0.0,0.0,0.0,0.0,0.0,0.0,0.0,0.0,0.0,0.0,0.0,-0.3684,-0.9017,-0.9541,-1.0159,-1.0717,0.0,0.0,0.0,0.0,0.0,0.0,0.0,0.0,0.0,0.0,0.0,0.0,0.0,0.0,0.0,0.0,0.0,0.0,0.0,0.0,0.0,0.0,0.0,0.0,0.0,0.0,0.0,0.0,0.0,0.0,0.0,0.0,0.0,0.0,0.0,0.0,0.0,0.0,0.2474,0.6382,0.751,0.8009,0.7982,0.7975,0.8136,0.0,0.0,0.0,0.0,0.0,0.0,0.0,0.8927,0.894,0.894,0.894,0.894,0.894,0.894,0.894,0.0,0.894,0.894,0.894,0.894,0.894,0.894,0.894,0.894,0.894,0.894,0.894,0.894,0.894,0.894,0.894,0.894,0.894,0.894,0.894,0.894,0.894,0.894,0.894,0.894,0.894,0.894,0.894,0.8947,0.8853,0.8313,0.6995,0.2389,0.0,0.0,0.0,0.0,0.0,0.0,0.0,0.0,0.0,0.0,0.0,0.0,0.0,0.0,0.0,0.0,0.0,0.0,-0.0861,-0.2709,-0.791,-1.0205,-1.0724,0.0,0.0,0.0,0.0,0.0,0.0,0.0,0.0,0.0,0.0,0.0,0.0,0.0,0.0,0.0,0.0,0.0,0.0,0.0,0.0,0.0,0.0,0.0,0.0,0.0,0.0,0.0,0.0,0.0,0.0,0.0,0.0,0.0,0.0,0.0,0.0,0.0213,0.2719,0.5453,0.8022,0.8009,0.7989,0.7982,0.8143,0.8211,0.8289,0.8431,0.0,0.0,0.0,0.0,0.0,0.0,0.0,0.894,0.894,0.894,0.894,0.894,0.0,0.0,0.894,0.0,0.894,0.894,0.894,0.894,0.894,0.894,0.894,0.894,0.894,0.894,0.894,0.894,0.894,0.894,0.894,0.894,0.894,0.894,0.894,0.894,0.894,0.894,0.894,0.894,0.894,0.894,0.895,0.8856,0.888,0.4509,0.1478,0.0,0.0,0.0,0.0,0.0,0.0,0.0,0.0,0.0,0.0,0.0,0.0,0.0,0.0,0.0,0.0,0.0,0.0,-0.037,-0.3871,-0.736,-1.0334,0.0,0.0,0.0,0.0,0.0,0.0,0.0,0.0,0.0,0.0,0.0,0.0,0.0,0.0,0.0,0.0,0.0,0.0,0.0,0.0,0.0,0.0,0.0,0.0,0.0,0.0,0.0,0.0,0.0,0.0,0.0,0.0,0.0,0.0,0.0989,0.1405,0.1597,0.5638,0.7607,0.8016,0.8012,0.8009,0.8123,0.8255,0.8323,0.8377,0.8621,0.8726,0.8767,0.8896,0.0,0.0,0.0,0.0,0.894,0.894,0.894,0.894,0.894,0.0,0.894,0.894,0.894,0.0,0.894,0.894,0.894,0.894,0.894,0.894,0.894,0.894,0.894,0.894,0.894,0.894,0.894,0.894,0.894,0.894,0.894,0.894,0.894,0.894,0.894,0.894,0.894,0.894,0.894,0.894,0.895,0.8863,0.649,0.3598,0.0,0.0,0.0,0.0,0.0,0.0,0.0,0.0,0.0,0.0,0.0,0.0,0.0,0.0,0.0,0.0,0.0,0.0,0.0,0.0,-0.3409,-0.8345,0.0,0.0,0.0,0.0,0.0,0.0,0.0,0.0,0.0,0.0,0.0,0.0,0.0,0.0,0.0,0.0,0.0,0.0,0.0,0.0,0.0,0.0,0.0,0.0,0.0,0.0,0.0,0.0,0.0,0.0,0.0,0.0,0.0,0.0224,0.4889,0.6973,0.6831,0.5235,0.5851,0.7992,0.8211,0.8252,0.8258,0.8401,0.8537,0.8659,0.8696,0.8798,0.891,0.893,0.894,0.0,0.0,0.0,0.894,0.894,0.894,0.894,0.894,0.0,0.894,0.0,0.894,0.894,0.0,0.0,0.894,0.0,0.894,0.894,0.894,0.894,0.894,0.894,0.894,0.894,0.894,0.894,0.894,0.894,0.894,0.894,0.894,0.894,0.894,0.894,0.894,0.894,0.894,0.894,0.895,0.8863,0.852,0.5594,0.0,0.0,0.0,0.0,0.0,0.0,0.0,0.0,0.0,0.0,0.0,0.0,0.0,0.0,0.0,0.0,0.0,0.0,0.0,0.0,-0.0498,-0.2271,0.0,0.0,0.0,0.0,0.0,0.0,0.0,0.0,0.0,0.0,0.0,0.0,0.0,0.0,0.0,0.0,0.0,0.0,0.0,0.0,0.0,0.0,0.0,0.0,0.0,0.0,0.0,0.0,0.0,0.0,0.0,0.3475,0.4938,0.0,0.0,0.8376,0.8236,0.7041,0.727,0.833,0.8377,0.8394,0.8404,0.8554,0.8652,0.872,0.8808,0.8879,0.894,0.894,0.894,0.894,0.894,0.0,0.0,0.0,0.894,0.894,0.894,0.894,0.894,0.0,0.894,0.894,0.894,0.894,0.894,0.894,0.894,0.894,0.894,0.894,0.894,0.894,0.894,0.894,0.894,0.894,0.894,0.894,0.894,0.894,0.894,0.894,0.894,0.894,0.894,0.894,0.894,0.894,0.8944,0.8954,0.8856,0.7619,0.5037,0.1688,0.0,0.0,0.0,0.0,0.0,0.0,0.0,0.0,0.0,0.0,0.0,0.0,0.0,0.0,0.0,0.0,0.0,0.0,0.0,-0.0504,0.0,0.0,0.0,0.0,0.0,0.0,0.0,0.0,0.0,0.0,0.0,0.0,0.0,0.0,0.0,0.0,0.0,0.0,0.0,0.0,0.0,0.0,0.0,0.0,0.0,0.0,0.0,0.0,0.0,0.0,0.2354,0.686,0.8907,0.0,0.8862,0.8679,0.0,0.0,0.0,0.8618,0.8533,0.854,0.8554,0.9133,0.9302,0.9316,0.9439,0.9482,0.0,0.0,0.894,0.894,0.894,0.894,0.0,0.0,0.0,0.894,0.0,0.0,0.894,0.894,0.894,0.894,0.0,0.0,0.894,0.0,0.894,0.894,0.894,0.894,0.894,0.894,0.894,0.894,0.894,0.894,0.894,0.894,0.894,0.894,0.894,0.894,0.894,0.894,0.894,0.894,0.894,0.894,0.894,0.894,0.8846,0.8863,0.8886,0.3016,0.0,0.0,0.0,0.0,0.0,0.0,0.0,0.0,0.0,0.0,0.0,0.0,0.0,0.0,0.0,0.0,0.0,0.0,0.0,0.0,0.0,0.0,0.0,0.0,0.0,0.0,0.0,0.0,0.0,0.0,0.0,0.0,0.0,0.8437,0.6165,0.0447,0.0,0.0,0.0,0.0,0.0,0.0,0.0,0.0,0.0,0.0,0.0,0.0,0.0,0.0,0.8453,0.8795,0.8897,0.886,0.8706,0.8635,0.8622,0.0,0.0,0.0,0.0,0.8699,0.0,0.0,0.0,1.0988,0.0,0.0,0.0,0.0,0.0,0.0,0.0,0.894,0.894,0.0,0.0,0.0,0.0,0.894,0.0,0.894,0.894,0.894,0.0,0.0,0.894,0.894,0.894,0.894,0.894,0.894,0.894,0.894,0.894,0.894,0.894,0.894,0.894,0.894,0.894,0.894,0.894,0.894,0.894,0.894,0.894,0.894,0.894,0.894,0.894,0.894,0.894,0.895,0.8863,0.3014,0.0,0.0,0.0,0.0,0.0,0.0,0.0,0.0,0.0,0.0,0.0,0.0,0.0,0.0,0.0,0.0,0.0,0.0,0.0,0.0,0.0,0.0,0.0,0.0,0.0,0.0,0.0,0.0,0.0,0.0,0.0,0.0,0.0,0.8886,0.8088,0.5924,0.4021,0.2905,0.2908,0.2908,0.2908,0.2908,0.1007,0.0,0.0,0.0,0.1905,0.0,0.0,0.5837,0.6165,0.7973,0.8873,0.886,0.8803,0.8773,0.8752,0.8801,0.0,0.0,0.0,0.0,0.0,0.0,0.0,0.0,0.0,0.0,0.0,0.0,0.0,0.0,0.0,0.0,0.0,0.0,0.0,0.0,0.0,0.0,0.0,0.894,0.894,0.894,0.894,0.894,0.894,0.894,0.894,0.894,0.894,0.894,0.894,0.894,0.894,0.894,0.894,0.894,0.894,0.894,0.894,0.894,0.894,0.894,0.894,0.894,0.894,0.894,0.894,0.894,0.894,0.894,0.894,0.8846,0.8883,0.3016,0.0,0.0,0.0,0.0,0.0,0.0,0.0,0.0,0.0,0.0,0.0,0.0,0.0,0.0,0.0,0.0,0.0,0.0,0.0,0.0,0.0,0.0,0.0,0.0,0.0,0.0,0.0,0.0,0.0,0.0,0.0,0.0,0.0,0.0,0.887,0.8863,0.7057,0.5935,0.5935,0.5935,0.5935,0.5935,0.4026,0.257,0.1563,0.1574,0.3491,0.0,0.0,0.0,0.0,0.7955,0.886,0.885,0.885,0.8954,0.0,0.0,0.0,0.9047,0.0,0.0,1.1324,0.0,0.0,0.0,0.0,0.0,0.0,0.0,0.0,0.0,0.0,0.0,0.0,0.0,0.0,0.0,1.0351,0.0,0.0,0.0,0.9265,0.894,0.894,0.894,0.894,0.894,0.894,0.894,0.894,0.894,0.894,0.894,0.894,0.894,0.894,0.894,0.894,0.894,0.894,0.894,0.894,0.894,0.894,0.894,0.894,0.894,0.894,0.894,0.894,0.894,0.894,0.885,0.8897,0.4024,0.1007,0.0,0.0,0.0,0.0,0.0,0.0,0.0,0.0,0.0,0.0,0.0,0.0,0.0,0.0,0.0,0.0,0.0,0.0,0.0,0.0,0.0,0.0,0.0,0.0,0.0,0.0,0.0,0.0,0.894,0.0,0.0,0.0,0.0,0.0,0.886,0.888,0.8893,0.8893,0.8893,0.8893,0.8893,0.8893,0.7522,0.4695,0.4879,0.4881,0.4583,0.7522,0.8901,0.0,0.0,0.885,0.894,0.894,0.894,0.894,0.0,0.894,0.9047,0.0,1.1214,1.1428,0.0,0.0,0.0,1.5417,1.5417,0.0,1.3911,0.0,0.0,0.0,0.0,0.0,0.0,0.0,0.0,0.0,0.0,0.0,0.0,0.0,0.0,0.894,0.0,0.894,0.894,0.894,0.894,0.894,0.894,0.894,0.894,0.894,0.894,0.894,0.894,0.894,0.894,0.894,0.894,0.894,0.894,0.894,0.894,0.894,0.894,0.894,0.894,0.894,0.894,0.894,0.885,0.8893,0.6047,0.3019,0.0,0.0,0.0,0.0,0.0,0.0,0.0,0.0,0.0,0.0,0.0,0.0,0.0,0.0,0.0,0.0,0.0,0.0,0.0,0.0,0.0,0.0,0.0,0.0,0.0,0.894,0.894,0.894,0.0,0.0,0.0,0.894,0.894,0.894,0.8947,0.8954,0.8846,0.8846,0.8846,0.8846,0.8846,0.8863,0.8526,0.773,0.7777,0.7777,0.773,0.845,0.8897,0.895,0.895,0.8947,0.0,0.894,0.894,0.894,0.894,0.0,0.9154,1.1647,1.2729,0.0,0.0,0.0,0.0,0.0,1.7041,1.6929,0.0,1.6393,1.6393,0.0,0.0,0.0,0.0,0.0,0.0,1.1969,0.0,0.0,0.0,0.0,0.0,0.0,0.0,0.894,0.894,0.894,0.894,0.894,0.894,0.894,0.894,0.894,0.894,0.894,0.894,0.894,0.894,0.894,0.894,0.894,0.894,0.894,0.0,0.894,0.894,0.894,0.894,0.894,0.894,0.894,0.8954,0.887,0.671,0.3682,0.0,0.0,0.0,0.0,0.0,0.0,0.0,0.0,0.0,0.0,0.0,0.0,0.0,0.0,0.0,0.0,0.0,0.0,0.0,0.0,0.0,0.0,0.0,0.0,0.894,0.894,0.894,0.894,0.0,0.0,0.0,0.894,0.894,0.894,0.894,0.894,0.894,0.894,0.894,0.894,0.894,0.895,0.885,0.885,0.9028,0.9032,0.885,0.9018,0.9011,0.894,0.894,0.894,0.894,0.0,0.0,0.0,0.0,0.0,0.0,1.3048,0.0,0.0,1.6717,1.7582,0.0,0.0,0.0,1.7582,1.7582,1.7582,0.0,0.0,0.0,0.0,0.0,0.0,0.0,0.0,0.0,0.0,0.0,0.0,0.0,0.894,0.894,0.894,0.894,0.894,0.894,0.894,0.894,0.894,0.894,0.894,0.894,0.894,0.894,0.894,0.894,0.894,0.894,0.894,0.894,0.894,0.894,0.894,0.894,0.894,0.894,0.894,0.894,0.894,0.895,0.8863,0.7721,0.6035,0.3692,0.1229,0.0,0.0,0.0,0.0,0.0,0.0,0.0,0.0,0.0,0.0,0.0,0.0,0.0,0.0,0.0,0.0,0.0,0.0,0.0,0.894,0.894,0.894,0.894,0.894,0.894,0.894,0.0,0.894,0.894,0.894,0.894,0.894,0.894,0.894,0.894,0.894,0.894,0.894,0.894,0.894,0.894,0.894,0.9062,0.9066,0.894,0.9066,0.9062,0.894,0.894,0.8937,0.9154,0.0,0.0,0.0,0.0,0.0,1.1755,1.4234,1.531,0.0,0.0,1.7582,1.7582,1.7582,1.7582,1.7582,1.7582,1.7582,0.0,0.0,0.0,0.0,0.0,1.7582,0.0,0.0,0.0,0.0,0.0,0.0,0.0,0.8937,0.894,0.894,0.894,0.894,0.894,0.894,0.894,0.894,0.894,0.894,0.894,0.894,0.894,0.894,0.894,0.894,0.894,0.894,0.894,0.894,0.894,0.894,0.894,0.894,0.894,0.894,0.894,0.894,0.895,0.886,0.886,0.8876,0.8795,0.3243,0.0336,0.0,0.0,0.0,0.0,0.0,0.0,0.0,0.0,0.0,0.0,0.0,0.0,0.0,0.0,0.0,0.0,0.0,0.0,0.894,0.894,0.894,0.894,0.894,0.894,0.894,0.894,0.894,0.894,0.894,0.894,0.894,0.894,0.894,0.894,0.894,0.894,0.894,0.894,0.894,0.894,0.894,0.8964,0.8967,0.894,0.8967,0.8964,0.894,0.894,0.9482,1.0676,0.0,0.0,0.0,0.0,0.0,1.4556,1.3911,0.0,1.5524,1.7041,1.7582,1.7582,1.7582,1.7582,1.7582,1.7582,1.7582,1.7582,0.0,0.0,0.0,1.7582,0.0,0.0,0.0,0.0,0.0,0.0,0.0,0.0,0.9154,0.894,0.894,0.894,0.894,0.894,0.894,0.894,0.894,0.894,0.894,0.894,0.894,0.894,0.894,0.894,0.894,0.894,0.894,0.894,0.894,0.894,0.894,0.894,0.894,0.894,0.894,0.894,0.894,0.894,0.8947,0.8947,0.8846,0.887,0.5367,0.2345,0.0,0.0,0.0,0.0,0.0,0.0,0.0,0.0,0.0,0.0,0.0,0.0,0.0,0.0,0.0,0.0,0.0,0.0,0.894,0.894,0.894,0.894,0.894,0.894,0.894,0.894,0.894,0.894,0.894,0.894,0.894,0.894,0.9005,0.9045,0.9045,0.9117,0.9161,0.9161,0.9161,0.9161,0.9161,0.9161,0.9161,0.9161,0.9161,0.9161,0.9157,0.9853,1.0469,1.1232,0.0,0.0,0.0,0.0,1.5204,1.6393,1.5743,0.0,1.6605,1.7364,1.7582,1.7582,1.7582,1.7582,1.7582,1.7582,1.7582,0.0,0.0,1.7582,1.7582,0.0,1.7582,1.7259,0.0,0.0,0.0,1.2724,0.0,0.0,0.0,1.0025,0.9809,0.9047,0.894,0.894,0.894,0.894,0.894,0.894,0.894,0.894,0.894,0.894,0.894,0.894,0.894,0.894,0.894,0.894,0.894,0.894,0.894,0.894,0.894,0.894,0.894,0.894,0.894,0.894,0.894,0.894,0.895,0.886,0.739,0.4355,0.0,0.0,0.0,0.0,0.0,0.0,0.0,0.0,0.0,0.0,0.0,0.0,0.0,0.0,0.0,0.0,0.0,0.0,0.894,0.894,0.894,0.894,0.894,0.894,0.895,0.8977,0.9005,0.9025,0.9025,0.9245,0.0,0.0,0.9909,0.9979,0.9759,0.9767,0.9726,0.9381,0.9381,0.9381,0.9381,0.9381,0.9381,0.9381,0.9381,0.961,0.9834,1.094,1.1759,1.2306,0.0,0.0,0.0,0.0,0.0,1.7669,0.0,1.7635,1.7582,1.7582,1.7582,1.7582,1.7582,1.7582,1.7582,1.7582,1.7582,1.7582,1.7582,1.7582,0.0,0.0,0.0,0.0,0.0,0.0,0.0,0.0,0.0,1.3372,0.0,0.0,0.0,0.9588,0.0,0.0,0.0,0.0,0.0,0.894,0.0,0.0,0.0,0.894,0.0,0.894,0.894,0.894,0.894,0.894,0.894,0.894,0.894,0.894,0.894,0.894,0.894,0.894,0.894,0.894,0.894,0.894,0.8947,0.8856,0.886,0.6376,0.1676,0.0558,0.0,0.0,0.0,0.0,0.0,0.0,0.0,0.0,0.0,0.0,0.0,0.0,0.0,0.0,0.8991,0.894,0.0,0.894,0.894,0.894,0.894,0.894,0.8984,0.9113,0.9249,0.933,0.0,0.0,0.0,0.0,0.0,0.0,1.1634,0.0,1.087,0.9497,0.9381,0.9381,0.9381,0.9381,0.9381,0.9381,0.9381,1.0185,1.1553,1.1646,1.3211,0.0,1.5887,0.0,0.0,0.0,1.7902,0.0,1.7989,1.7829,0.0,1.7582,1.7582,1.7582,1.7582,1.7582,1.7582,0.0,1.7582,1.7582,0.0,1.7582,1.7582,1.7582,0.0,0.0,0.0,0.0,0.0,0.0,1.5204,0.0,0.0,0.0,1.262,1.1105,0.0,0.0,0.0,0.0,0.0,0.0,0.0,0.0,0.894,0.894,0.894,0.894,0.894,0.894,0.894,0.894,0.894,0.894,0.894,0.894,0.894,0.894,0.894,0.894,0.894,0.894,0.894,0.894,0.894,0.8944,0.8853,0.853,0.775,0.2458,0.0,0.0,0.0,0.0,0.0,0.0,0.0,0.0,0.0,0.0,0.0,0.0,0.0,0.0,0.9222,0.9195,0.0,0.0,0.9195,0.9195,0.9195,0.9195,0.9218,0.9276,0.934,0.9381,0.0,0.0,0.0,0.0,0.0,1.2971,0.0,0.0,0.0,1.1047,1.0108,0.9635,0.9635,1.0576,1.1047,1.1047,1.1984,1.2804,1.3391,1.419,1.5151,0.0,1.7179,0.0,1.849,0.0,1.8424,0.0,0.0,0.0,0.0,1.7716,1.7582,1.7582,1.7582,1.7582,1.7582,0.0,1.7582,0.0,0.0,0.0,0.0,0.0,0.0,0.0,0.0,0.0,0.0,0.0,0.0,0.0,1.4877,0.0,1.4126,0.0,0.0,0.0,0.0,0.0,0.0,0.0,0.894,0.0,0.0,0.0,0.894,0.894,0.0,0.0,0.894,0.894,0.894,0.894,0.894,0.894,0.894,0.894,0.894,0.894,0.894,0.894,0.894,0.894,0.894,0.894,0.895,0.8853,0.8647,0.2678,0.0,0.0,0.0,0.0,0.0,0.0,0.0,0.0,0.0,0.0,0.0,0.0,0.0,0.0,0.9503,0.0,0.0,0.0,0.9381,0.9381,0.9381,0.9415,0.9445,0.9445,0.0,0.0,0.9503,1.0314,0.0,0.0,1.3451,1.4351,0.0,0.0,1.3283,0.0,0.0,0.0,1.114,1.2213,1.2813,1.2813,1.4004,1.4837,1.5311,1.6187,1.6916,1.7383,0.0,1.8731,1.8731,0.0,1.8684,1.8604,1.9036,1.9416,1.9604,1.8224,1.7655,1.7582,1.7582,1.7582,1.7582,1.7582,1.7582,0.0,1.7582,0.0,0.0,0.0,0.0,0.0,1.7582,0.0,0.0,0.0,0.0,0.0,0.0,0.0,0.0,0.0,0.0,0.0,0.0,0.0,0.0,0.0,0.0,0.894,0.0,0.894,0.0,0.0,0.0,0.0,0.0,0.8852,0.8876,0.8876,0.8913,0.894,0.894,0.894,0.894,0.894,0.894,0.894,0.894,0.894,0.894,0.894,0.894,0.895,0.8745,0.4462,0.1562,0.0,0.0,0.0,0.0,0.0,0.0,0.0,0.0,0.0,0.0,0.0,0.0,0.0,0.9805,0.9578,0.0,0.0,0.0,0.9381,0.9381,0.0,0.0,0.0,0.0,0.0,0.0,0.0,0.0,0.0,0.0,1.8512,1.7073,0.0,1.6138,0.0,0.0,1.4485,0.0,1.4485,1.4485,1.4485,1.4604,1.5429,1.6968,1.6956,1.7787,1.9352,1.9345,1.9339,1.9339,1.9339,1.9172,1.9018,2.0424,2.1752,2.2388,0.0,1.7842,1.7582,1.7582,0.0,0.0,1.7582,1.7582,0.0,0.0,0.0,0.0,0.0,0.0,0.0,0.0,0.0,0.0,1.7582,0.0,0.0,0.0,0.0,1.4984,0.0,0.0,0.0,0.0,0.0,0.0,0.0,0.0,0.0,0.0,0.0,0.0,0.0,0.0,0.0,0.0,0.8632,0.8716,0.8716,0.8855,0.894,0.894,0.894,0.894,0.894,0.894,0.894,0.894,0.894,0.894,0.894,0.894,0.895,0.8863,0.8745,0.5475,0.0,0.0,0.0,0.0,0.0,0.0,0.0,0.0,0.0,0.0,0.0,0.0,0.0,0.0,0.0,0.0,0.0,0.0,0.0,0.0,0.9717,0.0,0.0,1.1343,0.0,0.0,1.4004,1.5074,0.0,0.0,1.8046,1.8525,1.7566,0.0,0.0,0.0,1.4604,0.0,0.0,0.0,1.6138,1.7214,1.8052,1.8642,1.8642,1.8887,1.9366,0.0,1.9366,0.0,0.0,0.0,0.0,0.0,2.2986,2.3071,0.0,2.1222,2.1082,2.0759,2.0159,0.0,1.8988,1.8297,1.7582,1.7582,1.7582,1.7582,1.7582,1.7582,1.7582,0.0,0.0,1.7582,1.7582,0.0,0.0,0.0,0.0,0.0,0.0,0.0,0.0,0.0,0.0,0.0,0.0,0.0,0.0,0.0,0.0,0.0,0.0,0.0,0.0,0.0,0.0,0.871,0.871,0.8852,0.894,0.894,0.894,0.894,0.894,0.894,0.894,0.894,0.894,0.894,0.894,0.894,0.8944,0.895,0.8856,0.7841,0.5699,0.1674,0.0,0.0,0.0,0.0,0.0,0.0,0.0,0.0,0.0,0.0,0.0,0.9822,0.0,0.0,0.0,0.0,0.0,0.0,0.0,0.0,0.0,1.2693,0.0,1.4485,0.0,1.5902,0.0,1.7566,1.8286,1.9366,1.8402,0.0,1.7806,1.6862,0.0,0.0,0.0,0.0,0.0,0.0,1.9366,1.9366,1.9366,1.9366,1.9366,0.0,1.97,2.0256,2.1252,2.1919,0.0,0.0,2.4792,0.0,0.0,2.4041,2.2822,0.0,2.1982,2.1188,2.074,1.9702,1.8548,1.8331,1.7996,1.7582,1.7582,1.7582,1.7582,1.7582,1.7582,0.0,1.7582,1.7582,0.0,1.7582,0.0,1.6823,0.0,0.0,0.0,0.0,0.0,0.0,0.0,0.0,0.0,0.0,0.8808,0.0,0.0,0.0,0.0,0.0,0.8496,0.8598,0.8703,0.8801,0.8879,0.8933,0.894,0.894,0.894,0.894,0.894,0.894,0.894,0.894,0.894,0.894,0.894,0.894,0.8954,0.8853,0.8634,0.4803,0.2008,0.0,0.0,0.0,0.0,0.0,0.0,0.0,0.0,0.0,0.0,0.0,0.0,0.0,0.0,0.994,0.0,0.0,0.0,1.2333,0.0,1.3765,1.4723,1.4842,1.6256,1.7085,1.7085,1.8525,1.9366,1.9366,1.9366,0.0,0.0,1.9366,1.9366,1.9366,0.0,0.0,0.0,0.0,0.0,1.9366,1.9366,1.9366,0.0,1.9366,0.0,2.1586,2.1692,2.2589,2.4156,2.5599,2.7051,2.8291,2.8291,2.6139,2.3118,2.3093,2.3093,2.2822,2.257,2.1506,2.0189,1.9754,1.8729,1.7707,1.7589,1.7582,1.7582,1.7582,1.7582,1.7582,1.7582,1.7582,0.0,0.0,0.0,1.5524,0.0,0.0,0.0,0.0,0.0,0.0,0.0,0.0,0.0,0.0,0.0,0.8655,0.0,0.0,0.0,0.0,0.8272,0.8397,0.8679,0.8706,0.8777,0.0,0.893,0.893,0.894,0.894,0.894,0.894,0.894,0.894,0.894,0.894,0.894,0.894,0.894,0.895,0.886,0.8863,0.5695,0.0446,0.0447,0.0223,0.0,0.0,0.0,0.0,0.0,0.0,0.0,0.9822,1.0781,1.1615,0.0,1.1615,1.1615,0.0,0.0,0.0,0.0,1.6133,1.6856,1.8052,1.8532,1.8765,1.8765,1.9127,0.0,0.0,0.0,0.0,1.9366,1.9366,1.9366,1.9366,1.9366,0.0,1.9366,0.0,0.0,1.9366,1.9366,1.9366,0.0,0.0,2.0256,2.1699,2.2814,2.471,2.7168,2.7618,2.795,2.8291,0.0,2.7708,2.6927,2.6625,2.5103,2.3419,2.4105,2.26,2.0527,2.0204,1.9888,1.9324,1.7952,1.7582,1.7582,1.7582,1.7582,1.7582,1.7582,1.7582,1.7582,0.0,0.0,0.0,0.0,0.0,0.0,0.0,0.0,0.0,0.0,0.0,0.0,0.0,0.0,0.0,0.8499,0.0,0.0,0.8119,0.8299,0.8459,0.8533,0.8645,0.8777,0.893,0.8832,0.8821,0.8933,0.894,0.894,0.894,0.894,0.894,0.894,0.894,0.894,0.894,0.894,0.8944,0.895,0.8856,0.8063,0.6596,0.6611,0.4026,0.0,0.0,0.0,0.0,0.0,0.0,0.0,0.9822,0.0,0.0,1.3053,0.0,0.0,1.3292,1.4599,0.0,1.6844,1.7566,0.0,1.9249,1.9366,1.9366,1.9366,1.9366,0.0,1.9366,0.0,0.0,1.9366,1.9366,1.9366,1.9366,1.9366,0.0,1.9366,0.0,0.0,1.9366,1.9366,0.0,0.0,0.0,2.0594,2.2702,2.4829,2.6726,2.8291,2.8291,2.8291,0.0,2.8291,2.8291,2.8262,2.8027,2.6946,2.5559,2.6027,2.4271,2.1844,2.1498,2.0552,1.9226,1.8076,1.7782,1.7756,1.7615,1.7582,1.7582,1.7582,1.7582,1.7582,1.7582,1.7582,1.7582,0.0,1.6929,1.6387,0.0,0.0,0.0,0.0,0.0,0.0,0.0,0.0,0.0,0.0,0.8523,0.0,0.8163,0.8347,0.8482,0.8482,0.856,0.8676,0.0,0.8757,0.8781,0.8933,0.894,0.894,0.894,0.894,0.894,0.894,0.894,0.894,0.894,0.894,0.894,0.894,0.8954,0.8846,0.885,0.8873,0.6945,0.3684,0.1005,0.0,0.0,0.0,0.0,0.0,1.0061,0.0,0.0,0.0,0.0,0.0,0.0,1.638,0.0,1.7325,0.0,1.9366,1.9366,1.9366,1.9366,1.9366,0.0,1.9366,1.9366,1.9366,1.9366,1.9366,1.9366,1.9366,1.9366,1.9366,1.9366,0.0,0.0,0.0,1.9366,1.9366,0.0,0.0,0.0,0.0,0.0,2.706,2.8291,2.8291,2.8291,2.8291,2.8291,2.8291,2.8291,2.8291,2.8291,2.8184,2.8009,2.7871,2.5986,2.362,2.3252,2.1217,1.9023,1.8503,1.8205,1.8036,1.7729,1.7642,1.7629,1.7595,1.7582,1.7582,1.7582,1.7582,1.7582,1.7582,1.7582,1.7582,0.0,0.0,0.0,0.0,0.0,0.0,0.0,0.0,0.0,0.0,0.0,0.0,0.8313,0.8391,0.8455,0.8455,0.8455,0.0,0.0,0.0,0.876,0.8933,0.894,0.894,0.894,0.894,0.894,0.894,0.894,0.894,0.894,0.894,0.894,0.894,0.894,0.894,0.894,0.885,0.886,0.8406,0.3238,0.067,0.0,0.0,0.0,0.0,0.0,0.0,0.0,0.0,0.0,1.8532,1.8532,1.8771,1.9004,1.9004,1.9243,1.9366,1.9366,1.9366,1.9366,1.9366,1.9366,0.0,0.0,0.0,0.0,1.9366,1.9366,1.9366,1.9366,1.9366,1.9366,0.0,0.0,0.0,1.9366,1.9366,0.0,0.0,0.0,0.0,2.4044,2.706,0.0,2.8291,2.8291,2.8291,2.8291,2.8291,2.8291,2.8291,2.8291,2.7501,2.6707,2.7756,2.7056,2.5539,2.5255,2.3943,2.2259,2.073,1.9365,1.8343,1.8043,1.7963,1.7903,1.7649,1.7582,1.7582,1.7582,1.7582,1.7582,1.7582,1.7582,1.7582,1.7582,0.0,0.0,0.0,0.0,0.0,0.0,0.0,0.0,0.0,0.0,1.0023,0.0,0.0,0.0,0.8306,0.8306,0.8425,0.8696,0.0,0.8652,0.0,0.894,0.894,0.0,0.0,0.894,0.894,0.894,0.894,0.894,0.894,0.894,0.894,0.894,0.894,0.894,0.8944,0.8846,0.8749,0.7744,0.436,0.0,0.0,0.0,0.0,0.0,0.0,0.0,0.0,0.0,0.0,0.0,1.9366,1.9366,1.9366,1.9366,1.9366,1.9366,1.9366,1.9366,1.9366,1.9366,1.9366,1.9366,1.9366,1.9366,1.9366,1.9366,1.9366,1.9366,1.9366,1.9366,1.9366,0.0,1.9366,1.9366,1.9366,0.0,2.0587,0.0,2.371,0.0,0.0,0.0,2.8291,2.8291,2.8291,2.8291,2.8291,2.8291,2.8291,2.8291,2.7843,2.7384,2.8067,2.7286,2.6118,2.5919,2.4772,2.328,2.1501,2.0428,1.9611,1.857,1.8277,1.8203,1.7896,1.7822,1.7782,1.7615,1.7582,1.7582,1.7582,1.7582,1.7582,1.7582,1.7041,0.0,0.0,0.0,0.0,0.0,0.0,0.0,0.0,0.0,0.0,0.0,0.0,0.0,0.0,0.0,0.8476,0.8699,0.8638,0.8706,0.0,0.0,0.0,0.894,0.0,0.894,0.894,0.894,0.894,0.894,0.894,0.894,0.894,0.894,0.894,0.894,0.894,0.8947,0.8846,0.887,0.7168,0.4575,0.458,0.4585,0.4143,0.0,1.6262,0.0,0.0,1.8402,1.7929,1.9243,1.9419,1.9432,1.9372,1.9366,1.9366,1.9366,1.9366,1.9366,1.9366,1.9366,1.9366,1.9366,1.9366,1.9366,1.9366,1.97,1.9815,1.9815,2.0148,2.0378,0.0,0.0,0.0,0.0,1.9597,0.0,0.0,0.0,0.0,0.0,0.0,2.8291,2.8291,2.8291,2.8291,2.8291,2.8291,2.8291,2.8291,2.8291,2.8291,2.8291,2.8291,2.7501,2.6608,2.6608,2.5489,2.3986,2.2601,2.1746,2.0907,1.941,1.8793,1.851,1.8217,1.8096,1.7983,1.7736,1.7629,1.7582,1.7582,1.7582,1.7582,1.7582,1.7582,0.0,0.0,0.0,0.0,0.0,0.0,0.0,0.0,0.0,0.0,1.1518,0.0,0.0,0.0,0.8727,0.855,0.8703,0.871,0.8781,0.8933,0.0,0.894,0.894,0.0,0.894,0.894,0.894,0.894,0.894,0.894,0.894,0.894,0.894,0.894,0.894,0.894,0.894,0.894,0.885,0.8856,0.8856,0.8876,0.8883,0.8205,0.0,0.0,0.0,0.0,0.0,1.9243,1.9366,1.9593,1.9666,1.9406,1.9366,1.9366,1.9366,1.9366,1.9366,1.9366,1.9366,1.9366,1.9366,1.9366,1.9366,1.9366,2.0702,2.1358,2.1358,2.271,2.3383,0.0,0.0,2.1358,0.0,2.004,0.0,0.0,0.0,0.0,0.0,2.7726,2.8291,2.8291,2.8291,2.8291,2.8291,2.8291,2.8291,2.8291,2.8291,2.8291,2.8291,2.8291,2.8184,2.8067,2.8067,2.706,2.5809,2.5664,2.3653,2.1466,2.1026,1.9857,1.8811,1.8524,1.8243,1.8036,1.8009,1.7782,1.7582,1.7582,1.7582,1.7582,1.7582,1.7582,1.7582,0.0,0.0,0.0,0.0,0.0,1.6717,1.531,0.0,0.0,1.3234,1.1759,0.0,0.0,0.9374,0.855,0.8703,0.871,0.8781,0.8933,0.894,0.894,0.894,0.894,0.894,0.894,0.894,0.894,0.894,0.894,0.894,0.894,0.894,0.894,0.894,0.894,0.894,0.894,0.894,0.8944,0.8944,0.8944,0.8846,0.8863,0.0,0.0,0.0,0.0,0.0,0.0,0.0,1.9987,2.0013,1.99,1.9887,1.9887,1.9887,1.9887,1.982,1.9639,1.9626,1.9553,1.9379,2.0263,2.0702,2.0702,2.2145,2.2927,2.2927,2.3487,2.3822,0.0,0.0,0.0,0.0,0.0,0.0,0.0,0.0,2.7394,2.7501,2.8067,2.8291,2.8291,2.8291,2.8291,2.8291,2.8291,2.8291,2.8291,2.8291,2.8291,2.8291,2.8291,2.8291,2.8291,2.8291,2.795,2.7276,2.6381,2.5261,2.3892,2.1976,2.0947,2.021,1.9043,1.8664,1.8524,1.835,1.8076,1.7862,1.7862,1.7709,1.7582,1.7582,1.7582,1.7582,1.7582,0.0,0.0,0.0,0.0,0.0,1.6823,0.0,1.6174,0.0,1.3184,0.0,0.0,0.9589,0.8686,0.8838,0.8849,0.8876,0.8937,0.0,0.894,0.894,0.894,0.894,0.894,0.894,0.894,0.894,0.894,0.894,0.894,0.894,0.894,0.894,0.894,0.894,0.894,0.894,0.894,0.894,0.894,0.8944,0.8954,2.0106,0.0,2.0234,0.0,2.0234,2.0234,2.0234,2.0307,2.0361,2.0361,2.0441,2.0428,2.0254,2.0234,2.0147,1.9947,1.9927,1.984,1.9633,2.1097,2.1832,2.1728,2.3642,0.0,2.4488,2.4931,2.516,2.516,2.471,0.0,0.0,0.0,0.0,0.0,2.7618,2.8291,2.8291,2.8291,2.8291,2.8291,2.8291,2.8291,2.8291,2.8291,2.8291,2.8291,2.8291,2.8291,2.8291,2.8291,2.8291,2.8291,2.8291,2.8291,2.8067,2.649,2.5818,2.482,2.2258,2.1252,2.0644,1.932,1.8985,1.8871,1.8664,1.839,1.8156,1.8063,1.7802,1.7582,1.7582,1.7582,1.7582,1.7582,0.0,0.0,0.0,1.7582,0.0,1.7582,1.7582,1.7147,1.6174,1.4776,0.0,0.0,0.0,0.9254,0.8933,0.894,0.894,0.0,0.0,0.0,0.894,0.894,0.894,0.894,0.894,0.894,0.894,0.894,0.894,0.894,0.894,0.894,0.894,0.894,0.894,0.894,0.894,0.894,0.894,0.894,0.894,0.894,1.9857,2.0234,2.0234,2.0234,2.0234,2.0234,2.0234,2.0481,2.0675,2.0675,2.0922,2.0875,2.0294,2.0234,2.0234,2.0227,2.0227,2.0227,2.0221,2.1759,2.2423,0.0,0.0,2.646,2.6054,2.7501,2.8291,2.8291,0.0,0.0,2.6045,0.0,2.6045,2.6155,2.7618,2.8291,2.8291,2.8291,2.8291,2.8291,2.8291,2.8291,2.8291,2.8291,2.8291,2.8291,2.8291,2.8291,2.8291,2.8291,2.8291,2.8291,2.8291,2.8291,2.8067,2.649,2.5041,2.3487,2.2032,2.0594,1.9366,1.9366,1.9138,1.8925,1.8918,1.8691,1.8404,1.8103,1.7802,1.7582,1.7582,1.7582,1.7582,1.7582,0.0,0.0,0.0,1.7582,0.0,1.7582,1.7582,1.7582,1.7582,1.628,0.0,0.0,0.0,1.0457,0.8937,0.0,0.0,0.894,0.894,0.0,0.894,0.894,0.894,0.894,0.894,0.894,0.894,0.894,0.894,0.894,0.894,0.894,0.894,0.894,0.894,0.894,0.894,0.894,0.894,0.894,0.894,0.894,2.0704,2.0828,2.0828,2.0828,2.0828,2.0828,2.0828,2.0909,2.0969,2.0969,2.1049,2.1036,2.0848,2.1803,2.2443,0.0,2.327,2.3754,0.0,2.5028,2.5788,2.566,2.763,2.8468,2.8038,2.8494,2.8574,2.8291,0.0,0.0,0.0,2.7618,2.7618,2.7618,2.8067,2.8291,2.8291,2.8291,2.8291,2.8291,2.8291,2.8291,2.8291,2.8291,2.8291,2.8291,2.8291,2.8291,2.8291,2.8291,2.8291,2.8291,2.8291,2.7609,2.6717,2.6264,2.5041,2.3487,2.2032,2.1252,2.0702,1.97,1.9299,1.9225,1.9225,1.8998,1.8704,1.841,1.811,1.7903,1.7903,1.7722,1.7582,1.7582,1.7582,0.0,1.7582,0.0,1.7582,1.7582,1.7582,1.7582,1.7582,1.628,0.0,0.0,0.0,0.0,0.0,0.0,0.0,0.0,0.894,0.0,0.894,0.894,0.894,0.894,0.894,0.894,0.894,0.894,0.894,0.894,0.894,0.894,0.894,0.894,0.894,0.894,0.894,0.894,0.894,0.894,0.894,0.894,2.1109,2.1109,2.1109,2.1109,2.1109,2.1109,2.1109,2.1109,2.1109,2.1109,2.1109,2.1109,2.1109,2.3193,0.0,2.3405,2.4819,2.5666,2.5434,2.6854,2.7615,2.747,2.8984,2.9609,2.917,2.9004,0.0,2.8525,2.8369,2.8291,2.8291,2.8291,2.8291,2.8291,2.8291,2.8291,2.8291,2.8291,2.8291,2.8291,2.8291,2.8291,2.8291,2.8291,2.8291,2.8291,2.8291,2.8291,2.8291,2.8291,2.8291,2.8291,2.8291,2.7276,2.6155,2.6155,2.5041,2.3487,2.2032,2.1252,2.0587,1.9591,1.9366,1.9366,1.9366,1.9138,1.8871,1.8691,1.8417,1.8183,1.807,1.7889,1.7716,1.7602,1.7582,1.7582,1.7582,0.0,1.7582,0.0,0.0,1.7582,0.0,1.6823,1.628,0.0,0.0,0.0,0.0,0.0,0.894,0.894,0.894,0.894,0.894,0.894,0.894,0.894,0.894,0.894,0.894,0.894,0.894,0.894,0.894,0.894,0.894,0.894,0.894,0.894,0.894,0.894,0.894,0.894,0.894,0.894,2.1109,2.1109,2.1109,0.0,2.1109,2.1109,2.1109,2.1109,2.1109,2.1229,2.1229,2.1355,2.1481,2.4278,2.5497,2.4054,0.0,0.0,2.6349,2.7683,2.8382,2.802,2.9422,3.0049,2.9619,2.9209,2.8975,2.8916,2.8496,2.8291,2.8291,2.8291,2.8291,2.8291,2.8291,2.8291,2.8291,2.8291,2.8291,2.8291,2.8291,2.8291,2.8291,2.8291,2.8291,2.8291,2.8291,2.8291,2.8291,2.8291,2.8291,2.8291,2.8291,2.7394,2.6155,2.6045,2.482,2.3375,2.1805,2.0479,1.9366,1.9366,1.9366,1.9366,1.9366,1.9152,1.8951,1.8951,1.8724,1.8437,1.8156,1.809,1.7976,1.7662,1.7615,1.7609,1.7589,1.7582,1.7582,0.0,0.0,0.0,1.7582,1.7582,1.7582,0.0,0.0,0.0,0.0,0.0,0.9154,0.9047,0.8937,0.894,0.894,0.894,0.894,0.894,0.894,0.894,0.894,0.894,0.894,0.894,0.894,0.894,0.894,0.894,0.894,0.894,0.894,0.894,0.894,0.895,0.8954,0.8954,0.0,0.0,2.1109,2.1109,2.1109,2.1109,2.1109,2.1109,2.1607,2.2834,2.2959,2.3442,2.4763,2.6591,2.7692,2.7331,2.8801,2.9776,2.9776,3.0147,3.0227,3.0131,3.049,3.0518,3.0059,2.9951,2.958,2.8916,2.8496,2.8291,2.8291,2.8291,2.8291,2.8291,2.8291,2.8291,2.8291,2.8291,2.8291,2.8291,2.8291,2.8291,2.8291,2.8291,2.8291,2.8291,2.8291,2.8291,2.8291,2.8291,2.8291,2.8291,2.8291,2.8067,2.7286,2.5041,2.3263,2.1813,2.0371,1.9707,1.9366,1.9366,1.9366,1.9366,1.9366,1.9312,1.9265,1.9265,1.9032,1.8798,1.8731,1.8537,1.829,1.7989,1.7936,1.7856,1.7615,1.7582,1.7582,0.0,1.7582,1.7582,1.7582,1.7582,1.7582,0.0,0.0,1.5417,1.5417,1.3372,1.1755,1.0566,0.9482,0.894,0.894,0.894,0.894,0.894,0.894,0.894,0.894,0.894,0.894,0.894,0.894,0.894,0.894,0.894,0.894,0.894,0.894,0.894,0.895,0.8943,0.8871,0.8884,2.1289,2.1309,2.1349,2.1483,2.2133,2.2759,2.2759,2.3257,2.3908,2.4898,2.4757,2.5016,2.5855,2.7443,2.8417,2.8417,2.9903,3.0889,3.0889,3.0889,3.0889,3.0889,3.0889,3.0771,3.0518,3.0303,2.9873,2.9219,2.8789,2.8574,2.8574,2.8389,2.8291,2.8291,2.8291,2.8291,2.8291,2.8291,2.8291,2.8291,2.8291,2.8291,2.8291,2.8291,2.8291,2.8291,2.8291,2.8291,2.8291,2.8291,2.8291,2.8291,2.8291,2.7843,2.6825,2.4497,2.3263,2.2258,2.0816,1.9924,1.9366,1.9366,1.9366,1.9366,1.9366,1.9366,1.9366,1.9366,1.9239,1.9085,1.8951,1.8791,1.8591,1.8297,1.825,1.8143,1.7836,1.7789,1.7729,1.7595,1.7582,1.7582,1.7582,1.7582,1.7582,1.7582,1.6823,0.0,1.6393,1.499,1.3264,1.1214,1.0351,0.9588,0.894,0.894,0.894,0.894,0.894,0.894,0.894,0.9008,0.9035,0.9039,0.8994,0.8907,0.8907,0.8907,0.8907,0.8907,0.8907,0.8907,0.8917,0.8876,0.902,0.9269,2.157,2.1617,2.1697,2.1944,2.3384,2.466,2.466,2.5818,2.6753,2.7001,2.6708,2.6613,2.6805,2.802,2.8856,2.8792,3.003,3.0889,3.0889,3.0889,3.0889,3.0889,3.0889,3.0889,3.0889,3.043,3.0019,2.9668,2.9228,2.8984,2.8916,2.8555,2.8359,2.8291,2.8291,2.8291,2.8291,2.8291,2.8291,2.8291,2.8291,2.8291,2.8291,2.8291,2.8291,2.8291,2.8291,2.8291,2.8291,2.8291,2.8291,2.8291,2.8291,2.7276,2.5818,2.4267,2.3599,2.3151,2.1699,2.0364,1.9366,1.9366,1.9366,1.9366,1.9366,1.9366,1.9366,1.9366,1.9366,1.9292,1.9038,1.8991,1.8898,1.8604,1.8557,1.845,1.8156,0.0,1.7996,1.7749,1.7682,1.7655,1.7655,1.7609,1.7582,1.7582,1.7582,1.7582,1.7582,1.6174,1.4234,1.1542,1.1214,1.0347,0.894,0.896,0.8971,0.8971,0.8994,0.9005,0.9008,0.913,0.9188,0.9195,0.9086,0.902,0.902,0.9023,0.9023,0.9023,0.9023,0.9023,0.9026,0.9046,0.9415,0.9778,2.1911,2.1917,2.1931,2.1977,2.3384,2.466,2.466,2.6017,2.7638,2.9004,2.9198,2.9537,3.0581,3.0921,3.0905,3.0547,3.0772,3.0889,3.0889,3.0889,3.0889,3.0889,3.0889,3.0889,3.0889,3.043,3.0166,3.0098,2.9678,2.9277,2.8916,2.8848,2.8633,2.8291,2.8291,2.8291,2.8291,2.8291,2.8291,2.8291,2.8291,2.8291,2.8291,2.8291,2.8291,2.8291,2.8291,2.8291,2.8291,2.8291,2.8291,2.8291,2.8291,2.7276,2.5818,2.4267,2.2927,2.1586,2.0148,1.9591,1.9366,1.9366,1.9366,1.9366,1.9366,1.9366,1.9366,1.9366,1.9366,1.9352,1.9305,1.9299,1.9199,1.8905,1.8858,1.8751,1.8464,0.0,1.8397,1.8357,1.813,1.7976,1.7976,1.7736,1.7582,1.7582,1.7582,1.7582,1.7582,1.6174,1.4663,1.3048,1.1755,1.0347,0.894,0.9059,0.912,0.912,0.9252,0.9313,0.9313,0.9337,0.9347,0.9347,0.9371,0.9381,0.9381,0.962,0.962,0.962,0.962,0.962,0.9637,0.9648,0.9696,0.9836,2.2191,2.2218,2.2531,2.3735,2.5325,2.6881,2.7781,2.9291,3.0576,3.1332,3.1143,3.1312,3.1764,3.166,3.1435,3.124,3.1025,3.0889,3.0889,3.0889,3.0889,3.0889,3.0889,3.0889,3.0889,3.0684,3.0576,3.0576,3.0127,2.9805,2.96,2.9131,2.8818,2.8623,2.8398,2.8291,2.8291,2.8291,2.8291,2.8291,2.8291,2.8291,2.8291,2.8291,2.8291,2.8291,2.8291,2.8291,2.8291,2.8291,2.8291,2.8291,2.8291,2.7276,2.5818,2.4267,2.2153,2.0256,1.9591,1.9366,1.9366,1.9366,1.9366,1.9366,1.9366,1.9366,1.9366,1.9366,1.9366,1.9366,1.9366,1.9366,1.9325,1.9185,1.9165,1.9058,1.8764,1.8724,1.8664,1.851,1.837,1.829,1.829,1.8156,1.807,1.807,1.807,1.807,1.807,1.7405,1.6399,1.495,1.1744,0.9756,0.9178,0.9242,0.9276,0.9276,0.9347,0.9381,0.9384,0.9466,0.9503,0.9507,0.9585,0.9618,0.9618,0.9741,0.9744,0.9744,0.9744,0.9744,0.9751,0.982,0.9847,0.9854,2.313,2.344,2.43,2.5867,2.7627,2.9213,3.0642,3.1964,3.2939,3.2939,3.2656,3.2422,3.2324,3.2012,3.1728,3.1533,3.1221,3.0996,3.0898,3.0889,3.0889,3.0889,3.0889,3.0889,3.0889,3.0889,3.0889,3.0889,3.0537,3.0303,3.0176,2.9424,2.9014,2.8896,2.8476,2.8291,2.8291,2.8291,2.8291,2.8291,2.8291,2.8291,2.8291,2.8291,2.8291,2.8291,2.8291,2.8291,2.8291,2.8291,2.8291,2.8291,2.8291,2.7276,2.5818,2.4267,2.1714,1.9366,1.9366,1.9366,1.9366,1.9366,1.9366,1.9366,1.9366,1.9366,1.9366,1.9366,1.9366,1.9366,1.9366,1.9366,1.9366,1.9366,0.0,1.9285,1.9058,1.9025,1.8945,1.8718,1.8631,1.8591,1.8591,1.8531,1.849,1.849,1.849,1.849,1.849,1.8144,1.7365,1.5931,1.1877,0.9717,0.9381,0.9415,0.9435,0.9435,0.9466,0.9483,0.9486,0.9605,0.9659,0.9663,0.9774,0.9822,0.9822,0.9822,0.9822,0.9822,0.9822,0.9822,0.9822,0.9822,0.9822,0.9822,2.5211,2.6675,2.7875,2.8032,2.9474,3.0642,3.0771,3.22,3.3379,3.3379,3.335,3.3184,3.2793,3.2715,3.2383,3.1592,3.1484,3.1309,3.0918,3.0889,3.0889,3.0889,3.0889,3.0889,3.0889,3.0889,3.0889,3.0889,3.0859,3.0625,3.0185,2.9736,2.9307,2.8896,2.8476,2.8291,2.8291,2.8291,2.8291,2.8291,2.8291,2.8291,2.8291,2.8291,2.8291,2.8291,2.8291,2.8291,2.8291,2.8291,2.8291,2.8291,2.8291,2.7276,2.5818,2.4267,2.1714,1.9366,1.9366,1.9366,1.9366,1.9366,1.9366,1.9366,1.9366,1.9366,1.9366,1.9366,1.9366,1.9366,1.9366,1.9366,1.9366,1.9366,0.0,0.0,1.9339,1.9332,1.9325,1.9305,1.9058,1.8891,1.8891,1.8651,1.849,1.849,1.849,1.849,1.849,1.7216,1.5846,1.4577,1.2657,1.0854,0.9381,0.952,0.9591,0.9595,0.9727,0.9788,0.9788,0.9798,0.9805,0.9805,0.9815,0.9822,0.9822,0.9822,0.9822,0.9822,0.9822,0.9822,0.9822,0.9822,0.9822,0.9822,2.7105,2.7776,2.8558,2.9605,3.0384,3.1166,3.2228,3.3019,3.3418,3.3418,3.3418,3.3359,3.3203,3.2949,3.2666,3.2334,3.1826,3.1455,3.1289,3.1035,3.0889,3.0889,3.0889,3.0889,3.0889,3.0889,3.0889,3.0889,3.0889,3.0801,3.0615,3.0166,2.9726,2.9307,2.8877,2.8535,2.8291,2.8291,2.8291,2.8291,2.8291,2.8291,2.8291,2.8291,2.8291,2.8291,2.8291,2.8291,2.8291,2.8291,2.8291,2.8174,2.7168,2.6599,2.5599,2.3151,2.1038,1.9366,1.9366,1.9366,1.9366,1.9366,1.9366,1.9366,1.9366,1.9366,1.9366,1.9366,1.9366,1.9366,1.9366,1.9366,1.9366,1.9366,0.0,1.9366,1.9366,1.9366,1.9366,1.9366,1.9265,1.9199,1.9199,1.9098,1.9038,1.9038,1.9038,1.9038,1.9038,1.8555,1.7541,1.611,1.5322,1.3756,1.1185,1.0183,0.9741,0.9741,0.9795,0.9822,0.9822,0.9822,0.9822,0.9822,0.9822,0.9822,0.9822,0.9822,0.9822,0.9822,0.9822,0.9822,0.9822,0.9822,0.9822,0.9822,2.9083,2.9483,3.0263,3.1442,3.157,3.1963,3.3155,3.3418,3.3418,3.3418,3.3418,3.3418,3.3418,3.3164,3.2939,3.2803,3.2256,3.1807,3.1533,3.1123,3.0889,3.0889,3.0889,3.0889,3.0889,3.0889,3.0889,3.0889,3.0889,3.0889,3.0879,3.042,3.0039,2.9736,2.917,2.876,2.8476,2.835,2.8291,2.8291,2.8291,2.8291,2.8291,2.8291,2.8291,2.8291,2.8291,2.8291,2.8291,2.8291,2.795,2.7394,2.6381,2.548,2.4258,2.2258,2.0587,1.9366,1.9366,1.9366,1.9366,1.9366,1.9366,1.9366,1.9366,1.9366,1.9366,1.9366,1.9366,1.9366,1.9366,1.9366,1.9366,1.9366,1.9366,1.9366,1.9366,1.9366,1.9366,1.9366,1.9366,1.9366,1.9366,1.9366,1.9366,1.9366,1.9366,1.9366,1.9366,1.9366,1.8887,1.7806,1.7202,1.5897,1.376,1.1615,1.0301,0.9822,0.9822,0.9822,0.9822,0.9822,0.9822,0.9822,0.9822,0.9822,0.9822,0.9822,0.9822,0.9822,0.9822,0.9822,0.9822,0.9822,0.9822,0.9822,3.0771,3.2228,3.3418,3.3418,3.3418,3.3418,3.3418,3.3418,3.3418,3.3418,3.3418,3.3418,3.3418,3.3418,3.3252,3.2832,3.2793,3.2432,3.1572,3.1123,3.0889,3.0889,3.0889,3.0889,3.0889,3.0889,3.0889,3.0889,3.0889,3.0889,3.0879,3.042,3.0205,3.0156,2.9307,2.8926,2.8887,2.8467,2.8291,2.8291,2.8291,2.8291,2.8291,2.8291,2.8291,2.8291,2.8291,2.8291,2.8291,2.8291,2.7286,2.6155,2.6045,2.4036,2.1586,2.1586,2.0594,1.9366,1.9366,1.9366,1.9366,1.9366,1.9366,1.9366,1.9366,1.9366,1.9366,1.9366,1.9366,1.9366,1.9366,1.9366,1.9366,1.9366,1.9366,1.9366,1.9366,1.9366,1.9366,1.9366,1.9366,1.9366,1.9366,1.9366,1.9366,1.9366,1.9366,1.9366,1.9366,1.9366,1.9366,1.9366,1.7806,1.6968,1.6968,1.376,1.1378,0.9822,0.9822,0.9822,0.9822,0.9822,0.9822,0.9822,0.9822,0.9822,0.9822,0.9822,0.9822,0.9822,0.9822,0.9822,0.9822,0.9822,0.9822,0.9822,3.2629,3.3019,3.3418,3.3418,3.3418,3.3418,3.3418,3.3418,3.3418,3.3418,3.3418,3.3418,3.3418,3.3418,3.3369,3.3242,3.2969,3.2432,3.1572,3.1123,3.0889,3.0889,3.0889,3.0889,3.0889,3.0889,3.0889,3.0889,3.0889,3.0889,3.0889,3.0752,3.0508,3.0176,2.9619,2.9209,2.8887,2.8467,2.8291,2.8291,2.8291,2.8291,2.8291,2.8291,2.8291,2.8291,2.8291,2.8291,2.8291,2.8291,2.7286,2.5709,2.359,2.1593,2.0033,2.0033,1.97,1.9366,1.9366,1.9366,1.9366,1.9366,1.9366,1.9366,1.9366,1.9366,1.9366,1.9366,1.9366,1.9366,1.9366,1.9366,1.9366,1.9366,1.9366,1.9366,1.9366,1.9366,1.9366,1.9366,1.9366,1.9366,1.9366,1.9366,1.9366,1.9366,1.9366,1.9366,1.9366,1.9366,1.9366,1.9366,1.7806,1.6492,1.5311,1.3287,1.1976,1.1499,1.0301,0.9822,0.9822,0.9822,0.9822,0.9822,0.9822,0.9822,0.9822,0.9822,0.9822,0.9822,0.9822,0.9822,0.9822,0.9822,0.9822,0.9822,3.3418,3.3418,3.3418,3.3418,3.3418,3.3418,3.3418,3.3418,3.3418,3.3418,3.3418,3.3418,3.3418,3.3418,3.3418,3.3418,3.3037,3.251,3.1816,3.1377,3.1064,3.0898,3.0889,3.0889,3.0889,3.0889,3.0889,3.0889,3.0889,3.0889,3.0889,3.0889,3.0742,3.0449,2.9834,2.9424,2.9141,2.8545,2.8291,2.8291,2.8291,2.8291,2.8291,2.8291,2.8291,2.8291,2.8291,2.8291,2.8291,2.8291,2.6943,2.471,2.1707,2.0148,1.9366,1.9366,1.9366,1.9366,1.9366,1.9366,1.9366,1.9366,1.9366,1.9366,1.9366,1.9366,1.9366,1.9366,1.9366,1.9366,1.9366,1.9366,1.9366,1.9366,1.9366,1.9366,1.9366,1.9366,1.9366,1.9366,1.9366,1.9366,1.9366,1.9366,1.9366,1.9366,1.9366,1.9366,1.9366,1.9366,1.9366,1.9366,1.7806,1.6492,1.5548,1.3287,1.1856,1.1257,1.0301,0.9822,0.9822,0.9822,0.9822,0.9822,0.9822,0.9822,0.9822,0.9822,0.9822,0.9822,0.9822,0.9822,0.9822,0.9822,0.9822,0.9822,3.3418,3.3418,3.3418,3.3418,3.3418,3.3418,3.3418,3.3418,3.3418,3.3418,3.3418,3.3418,3.3418,3.3418,3.3418,3.3418,3.3037,3.2617,3.2197,3.1758,3.1328,3.0908,3.0889,3.0889,3.0889,3.0889,3.0889,3.0889,3.0889,3.0889,3.0889,3.0889,3.0889,3.0859,3.001,2.96,2.9521,2.8701,2.833,2.8291,2.8291,2.8291,2.8291,2.8291,2.8291,2.8291,2.8291,2.8291,2.8291,2.8174,2.6164,2.3263,2.0486,1.9482,1.9366,1.9366,1.9366,1.9366,1.9366,1.9366,1.9366,1.9366,1.9366,1.9366,1.9366,1.9366,1.9366,1.9366,1.9366,1.9366,1.9366,1.9366,1.9366,1.9366,1.9366,1.9366,1.9366,1.9366,1.9366,1.9366,1.9366,1.9366,1.9366,1.9366,1.9366,1.9366,1.9366,1.9366,1.9366,1.9366,1.9366,1.9366,1.7806,1.6968,1.685,1.376,1.1499,1.0061,0.9819,0.9822,0.9822,0.9822,0.9822,0.9822,0.9822,0.9822,0.9822,0.9822,0.9822,0.9822,0.9822,0.9822,0.9822,0.9822,0.9822,0.9822,3.3418,3.3418,3.3418,3.3418,3.3418,3.3418,3.3418,3.3418,3.3418,3.3418,3.3418,3.3418,3.3418,3.3418,3.3418,3.3418,3.3037,3.2617,3.2197,3.1758,3.1328,3.0908,3.0889,3.0889,3.0889,3.0889,3.0889,3.0889,3.0889,3.0889,3.0889,3.0889,3.0889,3.0869,3.0312,2.9873,2.9531,2.9004,2.8594,2.8291,2.8291,2.8291,2.8291,2.8291,2.8291,2.8291,2.8291,2.8291,2.8067,2.6943,2.538,2.3487,2.1707,2.0364,1.9366,1.9366,1.9366,1.9366,1.9366,1.9366,1.9366,1.9366,1.9366,1.9366,1.9366,1.9366,1.9366,1.9366,1.9366,1.9366,1.9366,1.9366,1.9366,1.9366,1.9366,1.9366,1.9366,1.9366,1.9366,1.9366,1.9366,1.9366,1.9366,1.9366,1.9366,1.9366,1.9366,1.9366,1.9366,1.9366,1.9366,1.9366,1.7806,1.6374,1.5074,1.3168,1.1972,1.1615,1.0422,0.9822,0.9822,0.9822,0.9822,0.9822,0.9822,0.9822,0.9822,0.9822,0.9822,0.9822,0.9822,0.9822,0.9822,0.9822,0.9822,0.9822,3.3418,3.3418,3.3418,3.3418,3.3418,3.3418,3.3418,3.3418,3.3418,3.3418,3.3418,3.3418,3.3418,3.3418,3.3418,3.3418,3.3223,3.292,3.249,3.206,3.1641,3.1211,3.0996,3.0889,3.0889,3.0889,3.0889,3.0889,3.0889,3.0889,3.0889,3.0889,3.0889,3.0869,3.04,2.9961,2.9541,2.9101,2.8672,2.8291,2.8291,2.8291,2.8291,2.8291,2.8291,2.8291,2.8291,2.8291,2.8067,2.6599,2.5041,2.3487,2.2032,2.0594,1.9366,1.9366,1.9366,1.9366,1.9366,1.9366,1.9366,1.9366,1.9366,1.9366,1.9366,1.9366,1.9366,1.9366,1.9366,1.9366,1.9366,1.9366,1.9412,1.9553,1.9573,1.9626,1.976,1.978,1.978,1.978,1.978,1.978,1.978,1.978,1.978,1.978,1.978,1.978,1.978,1.978,1.978,1.978,1.8307,1.6972,1.6128,1.4548,1.3333,1.2479,1.0734,0.9822,0.9822,0.9822,0.9822,0.9822,0.9822,0.9822,0.9822,0.9822,0.9822,0.9822,0.9822,0.9822,0.9822,0.9822,0.9822,0.9822,3.3418,3.3418,3.3418,3.3418,3.3418,3.3418,3.3418,3.3418,3.3418,3.3418,3.3418,3.3418,3.3418,3.3418,3.3418,3.3418,3.3418,3.3242,3.2822,3.2402,3.1973,3.1533,3.1113,3.0889,3.0889,3.0889,3.0889,3.0889,3.0889,3.0889,3.0889,3.0889,3.0889,3.0869,3.0488,3.0078,2.9648,2.9209,2.8789,2.8398,2.832,2.8291,2.8291,2.8291,2.8291,2.8291,2.8291,2.8291,2.8067,2.6599,2.5041,2.3487,2.2032,2.0594,1.9366,1.9366,1.9366,1.9366,1.9366,1.9366,1.9366,1.9366,1.9366,1.9379,1.9432,1.9406,1.9366,1.9366,1.9406,1.9446,1.9446,1.9486,1.9593,1.9833,1.9873,1.996,2.0201,2.0234,2.0234,2.0234,2.0234,2.0234,2.0234,2.0234,2.0234,2.0234,2.0234,2.0234,2.0234,2.0234,2.0234,2.0234,1.8979,1.8111,1.786,1.6623,1.5013,1.3269,1.1241,1.0127,0.9859,0.9859,0.9846,0.9822,0.9822,0.9822,0.9822,0.9822,0.9822,0.9822,0.9822,0.9822,0.9822,0.9822,0.9822,0.9822,3.3418,3.3418,3.3418,3.3418,3.3418,3.3418,3.3418,3.3418,3.3418,3.3418,3.3418,3.3418,3.3418,3.3418,3.3418,3.3418,3.3418,3.3242,3.2822,3.2402,3.1973,3.1533,3.1113,3.0889,3.0889,3.0889,3.0889,3.0889,3.0889,3.0889,3.0889,3.0889,3.0889,3.0889,3.083,3.0547,3.0078,2.9658,2.9238,2.8809,2.8437,2.8291,2.8291,2.8291,2.8291,2.8291,2.8291,2.8291,2.8067,2.6599,2.5041,2.3487,2.2032,2.0594,1.9366,1.9366,1.9366,1.9366,1.9366,1.9366,1.9366,1.9366,1.9366,1.9432,1.9686,1.9546,1.9366,1.9366,1.9566,1.974,1.974,1.9947,2.0127,2.0167,2.0174,2.0187,2.0227,2.0234,2.0234,2.0234,2.0234,2.0234,2.0234,2.0234,2.0234,2.0234,2.0234,2.0234,2.0234,2.0234,2.0234,2.0234,1.9985,1.9235,1.786,1.7731,1.6747,1.5137,1.3345,1.1627,1.0019,1.0019,0.9944,0.9822,0.9822,0.9822,0.9822,0.9822,0.9822,0.9822,0.9822,0.9822,0.9822,0.9822,0.9822,0.9822,3.3418,3.3418,3.3418,3.3418,3.3418,3.3418,3.3418,3.3418,3.3418,3.3418,3.3418,3.3418,3.3418,3.3418,3.3418,3.3418,3.3418,3.334,3.3164,3.2754,3.2334,3.1904,3.1475,3.1133,3.0898,3.0889,3.0889,3.0889,3.0889,3.0889,3.0889,3.0889,3.0889,3.0889,3.0889,3.0635,3.0185,3.0,2.9531,2.8896,2.8721,2.8506,2.8291,2.8291,2.8291,2.8291,2.8291,2.8291,2.8067,2.6599,2.5041,2.3487,2.2032,2.0594,1.9366,1.9366,1.9366,1.9366,1.9366,1.9366,1.9406,1.9573,1.9606,1.9686,1.9973,1.9947,1.9853,1.9853,1.9953,2.004,2.004,2.0147,2.0287,2.0454,2.0481,2.0535,2.0702,2.0722,2.0722,2.0722,2.0722,2.0722,2.0722,2.0722,2.0722,2.0722,2.0722,2.0722,2.0722,2.0722,2.0722,2.0722,2.0722,2.0342,1.9693,1.9699,1.8805,1.7152,1.5371,1.3558,1.1537,1.0549,1.0141,1.0073,0.9985,0.9947,0.9941,0.9856,0.9822,0.9822,0.9822,0.9822,0.9822,0.9822,0.9822,0.9822]}]]